Date StartTime U_cm/s V_cm/s W_cm/s Ustd_cm/s Vstd_cm/s Wstd_cm/s Uvar_(cm/s)^2 Vvar_(cm/s)^2 Wvar_(cm/s)^2 KE_(m/s)^2 TurbulentKE_(m/s)^2 HorizWindSpeed_cm/s FrictionSpeec_cm/s DragCoef SpeedOfSound_m/s SonicTemperature_C Pressure_mb 
09/09/2013  00:00:00       39.037       32.611       14.652       43.196       22.147       18.022     1865.934      490.499      324.794        0.274        0.134       50.867        3.124        0.004      344.655       21.629      860.577
09/09/2013  00:01:00       45.738       65.087        8.846       61.515       28.766       19.249     3784.059      827.462      370.508        0.569        0.249       79.551       15.047        0.036      345.124       22.430      860.573
09/09/2013  00:02:00      -67.735       13.796      -14.961       28.752       35.207       14.686      826.684     1239.516      215.667        0.364        0.114       69.125       14.518        0.044      344.227       20.895      860.587
09/09/2013  00:03:00      -73.287       -7.047        0.766       26.537       14.884        9.871      704.224      221.520       97.445        0.322        0.051       73.625        8.965        0.015      344.050       20.594      860.599
09/09/2013  00:04:00      -33.074       -7.602       -0.541        8.079       13.321        3.692       65.265      177.439       13.635        0.070        0.013       33.937        2.341        0.005      344.175       20.809      860.597
09/09/2013  00:05:00      -44.027       -2.356        0.661       12.601        8.170        6.362      158.774       66.752       40.480        0.111        0.013       44.090        3.640        0.007      344.143       20.750      860.595
09/09/2013  00:06:00     -104.264        0.147      -11.386       29.723       13.234       13.146      883.427      175.133      172.811        0.612        0.062      104.264       14.897        0.020      343.971       20.460      860.626
09/09/2013  00:07:00     -122.676      -11.493       -8.023       30.323       20.716       19.875      919.488      429.164      395.023        0.849        0.087      123.213       17.048        0.019      343.942       20.410      860.650
09/09/2013  00:08:00      -45.542       -7.113       -7.157       24.655       10.106        9.586      607.844      102.132       91.883        0.149        0.040       46.094       12.411        0.073      344.084       20.653      860.648
09/09/2013  00:09:00      -50.408      -12.571       -5.302       27.467       18.850       15.594      754.412      355.313      243.167        0.204        0.068       51.952       20.653        0.158      343.998       20.503      860.639
09/09/2013  00:10:00      -90.162      -29.635      -13.139       14.714       10.698       10.369      216.495      114.444      107.515        0.481        0.022       94.907        8.161        0.007      344.332       21.074      860.643
09/09/2013  00:11:00     -100.542      -22.027       -8.399       10.581       14.196        9.972      111.948      201.524       99.447        0.554        0.021      102.927        3.052        0.001      343.940       20.406      860.643
09/09/2013  00:12:00      -83.868        3.204      -16.453       23.635       15.270       10.562      558.630      233.174      111.557        0.411        0.045       83.929        9.770        0.014      343.855       20.259      860.632
09/09/2013  00:13:00      -38.024       -6.062        0.940        7.623        8.652        3.629       58.103       74.862       13.170        0.081        0.007       38.504        3.324        0.007      344.142       20.751      860.629
09/09/2013  00:14:00      -65.379       -7.259       -3.595       20.548       14.496        9.259      422.213      210.133       85.735        0.253        0.036       65.781        8.886        0.018      343.948       20.419      860.639
09/09/2013  00:15:00      -88.278      -16.805      -10.264       35.113       17.308       16.457     1232.910      299.566      270.838        0.499        0.090       89.863       20.448        0.052      343.831       20.218      860.633
09/09/2013  00:16:00     -117.348       16.667      -16.916       25.050       17.148       11.666      627.507      294.037      136.093        0.770        0.053      118.526        7.393        0.004      343.946       20.416      860.662
09/09/2013  00:17:00      -43.426       -5.434       -7.500       22.755       13.024       12.644      517.799      169.630      159.869        0.141        0.042       43.765       14.660        0.112      343.962       20.444      860.662
09/09/2013  00:18:00        1.906      -13.741        5.414       20.812       17.656       13.819      433.133      311.731      190.965        0.058        0.047       13.873       14.908        1.155      344.043       20.583      860.628
09/09/2013  00:19:00        7.263       13.535       21.788       35.222       21.849       20.200     1240.612      477.372      408.030        0.142        0.106       15.361       18.093        1.387      343.509       19.672      860.619
09/09/2013  00:20:00      -48.075       -2.378       -4.745       31.642       10.291       11.127     1001.207      105.910      123.805        0.178        0.062       48.133       13.352        0.077      343.998       20.506      860.636
09/09/2013  00:21:00      -75.961      -20.021      -16.356       15.785       17.536        6.887      249.178      307.496       47.436        0.352        0.030       78.555        4.730        0.004      343.866       20.279      860.641
09/09/2013  00:22:00      -12.961      -22.323       -4.118       16.006       10.179        8.509      256.202      103.619       72.410        0.056        0.022       25.813        9.537        0.137      343.936       20.401      860.627
09/09/2013  00:23:00       15.095       23.271       33.326       34.894       22.391       17.055     1217.599      501.355      290.867        0.194        0.100       27.738       11.496        0.172      343.459       19.586      860.618
09/09/2013  00:24:00      -33.967       -0.207        3.262       36.658       17.658       16.441     1343.801      311.790      270.307        0.154        0.096       33.968       19.509        0.330      344.232       20.905      860.631
09/09/2013  00:25:00     -124.602      -16.676      -17.984       47.896       17.567       15.481     2294.000      308.614      239.655        0.948        0.142      125.713       18.613        0.022      343.690       19.977      860.652
09/09/2013  00:26:00      -61.328      -49.019       -7.655       44.502       16.833       10.866     1980.417      283.347      118.064        0.430        0.119       78.511       16.683        0.045      344.227       20.897      860.648
09/09/2013  00:27:00       34.866       -7.816       19.588       29.054       21.761       19.532      844.110      473.561      381.494        0.168        0.085       35.732       18.415        0.266      343.973       20.463      860.635
09/09/2013  00:28:00       16.198       24.971        8.639       14.618       16.576       12.770      213.698      274.751      163.071        0.081        0.033       29.765       10.020        0.113      343.764       20.106      860.674
09/09/2013  00:29:00       49.081       -8.896       15.046       40.706       19.990       20.652     1657.002      399.583      426.514        0.260        0.124       49.881       15.950        0.102      344.046       20.588      860.684
09/09/2013  00:30:00       54.651      -12.792       31.045       39.763       31.512       26.956     1581.093      993.015      726.644        0.371        0.165       56.128       15.972        0.081      343.731       20.051      860.688
09/09/2013  00:31:00       14.643        5.071      -20.877       31.286       36.572       20.423      978.835     1337.541      417.093        0.170        0.137       15.496       11.967        0.596      344.013       20.531      860.710
09/09/2013  00:32:00       57.902      -26.767       -8.818       27.729       19.915       18.245      768.870      396.604      332.872        0.282        0.075       63.789        6.690        0.011      344.340       21.091      860.711
09/09/2013  00:33:00       43.177      -19.355        7.518       36.306       37.769       22.533     1318.124     1426.497      507.715        0.277        0.163       47.317       20.739        0.192      343.334       19.373      860.724
09/09/2013  00:34:00      -46.669      -13.292       -2.837       52.442       21.563       17.841     2750.143      464.976      318.302        0.295        0.177       48.525       11.807        0.059      343.575       19.783      860.743
09/09/2013  00:35:00      -97.854      -36.232      -10.147       26.517       25.307       14.772      703.147      640.458      218.211        0.628        0.078      104.347       12.053        0.013      343.762       20.102      860.758
09/09/2013  00:36:00     -112.866      -15.521      -16.228       16.636       15.421       11.017      276.758      237.802      121.368        0.694        0.032      113.929        3.270        0.001      343.942       20.410      860.775
09/09/2013  00:37:00      -45.226       -6.216        1.368       29.239       14.003       14.141      854.893      196.090      199.969        0.167        0.063       45.651       18.356        0.162      343.816       20.193      860.781
09/09/2013  00:38:00        2.831        4.271        2.825       11.959        8.463        7.859      143.008       71.622       61.768        0.016        0.014        5.124        4.701        0.842      343.391       19.470      860.782
09/09/2013  00:39:00       35.881      -12.715       18.533       33.302       29.190       22.671     1109.024      852.037      513.995        0.213        0.124       38.067       19.645        0.266      343.041       18.873      860.791
09/09/2013  00:40:00       35.548      -31.412       15.061       32.190       23.265       16.991     1036.197      541.243      288.685        0.217        0.093       47.438       12.157        0.066      342.939       18.700      860.793
09/09/2013  00:41:00      -22.900      -78.761        7.395       20.946       37.324       16.964      438.723     1393.084      287.788        0.445        0.106       82.022       18.257        0.050      343.610       19.842      860.787
09/09/2013  00:42:00      -32.255     -109.334        1.941       14.226       12.998       10.146      202.366      168.936      102.935        0.674        0.024      113.992        7.596        0.004      344.197       20.845      860.795
09/09/2013  00:43:00      -34.705     -106.190       -4.449       20.904       27.157       13.291      436.996      737.478      176.660        0.693        0.068      111.717        9.082        0.007      344.257       20.947      860.792
09/09/2013  00:44:00       17.178      -26.158        6.655       45.061       32.461       19.473     2030.517     1053.721      379.181        0.224        0.173       31.294       11.035        0.124      343.637       19.889      860.786
09/09/2013  00:45:00       30.107       -2.000       15.417       23.657       14.752       22.859      559.674      217.636      522.518        0.122        0.065       30.174       16.473        0.298      343.032       18.859      860.802
09/09/2013  00:46:00      -99.950       23.271       -5.818       46.331       18.672       13.399     2146.550      348.657      179.546        0.662        0.134      102.623       20.011        0.038      343.268       19.262      860.803
09/09/2013  00:47:00     -149.768       -6.165      -12.452       31.993       28.217       18.860     1023.564      796.219      355.717        1.240        0.109      149.895       15.345        0.010      343.279       19.278      860.796
09/09/2013  00:48:00     -143.271      -44.457       -3.399       17.841       22.658       10.844      318.285      513.369      117.584        1.173        0.047      150.010        8.388        0.003      343.521       19.690      860.784
09/09/2013  00:49:00      -50.617      -21.865       11.209       44.095       40.068       22.697     1944.343     1605.474      515.134        0.361        0.203       55.138       25.083        0.207      343.343       19.389      860.787
09/09/2013  00:50:00      -33.431      -17.564       -0.265       24.492       17.693       10.911      599.842      313.050      119.060        0.123        0.052       37.764       11.914        0.100      343.417       19.514      860.794
09/09/2013  00:51:00       -8.687       -6.921        4.467       17.862       16.434        6.662      319.062      270.091       44.379        0.039        0.032       11.107        6.200        0.312      343.137       19.038      860.808
09/09/2013  00:52:00       -1.780       -1.638       -1.769       41.275       13.672       10.546     1703.599      186.935      111.212        0.100        0.100        2.419        6.898        8.133      342.894       18.623      860.820
09/09/2013  00:53:00      -78.999       -4.021      -11.979       18.770       16.177       10.171      352.318      261.691      103.449        0.356        0.036       79.101        8.019        0.010      343.492       19.643      860.832
09/09/2013  00:54:00      -57.350      -26.859       -2.468       33.297       25.753       17.912     1108.685      663.212      320.850        0.305        0.105       63.328       17.542        0.077      343.501       19.655      860.833
09/09/2013  00:55:00      -86.688       -6.178       -0.852       39.956       23.407       20.110     1596.464      547.867      404.430        0.505        0.127       86.908       19.470        0.050      343.366       19.426      860.840
09/09/2013  00:56:00      -49.957       -7.195        7.235       27.658       32.948       17.543      764.977     1085.565      307.750        0.238        0.108       50.472       17.523        0.121      343.261       19.246      860.859
09/09/2013  00:57:00        0.032      -23.315       14.569       29.924       22.856       18.146      895.463      522.378      329.280        0.125        0.087       23.315       16.250        0.486      343.067       18.918      860.880
09/09/2013  00:58:00      -29.910       -9.651       -3.477       40.874       18.203       14.859     1670.711      331.345      220.776        0.161        0.111       31.428       14.351        0.209      342.915       18.660      860.892
09/09/2013  00:59:00     -128.831      -17.926      -12.116       38.128       30.924       21.513     1453.726      956.275      462.796        0.997        0.144      130.072       18.431        0.020      343.134       19.031      860.902
09/09/2013  01:00:00     -118.990      -11.833       -4.337       52.993       33.090       27.402     2808.209     1094.955      750.861        0.948        0.233      119.577       28.018        0.055      342.908       18.647      860.902
09/09/2013  01:01:00     -100.299       18.816      -11.711       45.524       25.068       15.802     2072.441      628.411      249.690        0.675        0.148      102.049       15.736        0.024      342.879       18.599      860.897
09/09/2013  01:02:00      -75.190      -19.216      -11.553       27.916       37.891       17.874      779.301     1435.755      319.463        0.434        0.127       77.606       16.143        0.043      342.940       18.701      860.896
09/09/2013  01:03:00      -38.606      -37.066        4.574       49.497       40.003       22.830     2449.916     1600.201      521.202        0.373        0.229       53.519       18.773        0.123      342.881       18.601      860.882
09/09/2013  01:04:00     -100.716      -79.752        5.131       46.757       32.663       23.690     2186.194     1066.886      561.226        1.017        0.191      128.468       13.835        0.012      342.891       18.617      860.870
09/09/2013  01:05:00      -47.566      -43.839        3.212       34.442       26.833       17.779     1186.279      720.012      316.076        0.321        0.111       64.687       10.287        0.025      343.256       19.240      860.862
09/09/2013  01:06:00      -50.798       49.512       -3.081       27.940       49.550       14.246      780.645     2455.204      202.959        0.424        0.172       70.935       19.653        0.077      343.120       19.008      860.886
09/09/2013  01:07:00     -119.163       83.902      -23.213       37.367       37.036       21.767     1396.301     1371.645      473.815        1.251        0.162      145.737       14.473        0.010      342.964       18.741      860.920
09/09/2013  01:08:00      -55.268      -37.701        4.727       49.859       44.675       23.018     2485.962     1995.864      529.815        0.475        0.251       66.902       23.696        0.125      343.241       19.214      860.904
09/09/2013  01:09:00      -83.765      -46.308        5.661       48.720       42.872       18.037     2373.678     1838.000      325.346        0.686        0.227       95.713       21.231        0.049      343.302       19.319      860.901
09/09/2013  01:10:00     -153.730       14.779      -16.123       77.674       22.014       22.645     6033.264      484.602      512.795        1.557        0.352      154.439       33.574        0.047      343.004       18.810      860.927
09/09/2013  01:11:00     -161.550       33.850      -12.989       29.200       29.004       18.817      852.644      841.207      354.087        1.473        0.102      165.059       13.622        0.007      343.130       19.025      860.947
09/09/2013  01:12:00     -202.316       27.871      -11.899       37.982       37.652       17.998     1442.599     1417.640      323.935        2.252        0.159      204.227       15.284        0.006      343.259       19.243      860.973
09/09/2013  01:13:00     -196.799      -38.974      -20.125       65.182       51.822       28.539     4248.757     2685.470      814.458        2.420        0.387      200.621       12.161        0.004      343.257       19.240      860.983
09/09/2013  01:14:00      -22.277      -41.512       20.433       66.083       41.440       32.750     4366.992     1717.262     1072.585        0.490        0.358       47.112       35.260        0.560      343.154       19.067      860.939
09/09/2013  01:15:00       -4.210      -50.726        9.126       32.820       32.373       27.017     1077.136     1047.980      729.920        0.276        0.143       50.901       13.810        0.074      343.587       19.803      860.938
09/09/2013  01:16:00      -34.987       58.113       -3.863       47.165       55.341       24.734     2224.516     3062.579      611.769        0.526        0.295       67.832       35.421        0.273      342.963       18.740      860.981
09/09/2013  01:17:00     -129.126       70.084      -13.654       38.819       34.563       24.874     1506.934     1194.629      618.735        1.255        0.166      146.920       16.766        0.013      343.358       19.414      861.005
09/09/2013  01:18:00      -97.796      -30.981       -6.488       27.322       34.620       21.172      746.481     1198.575      448.248        0.648        0.120      102.586       16.894        0.027      343.527       19.701      861.008
09/09/2013  01:19:00     -121.341      -42.990        2.986       26.269       23.071       15.638      690.044      532.254      244.547        0.902        0.073      128.732       13.068        0.010      343.700       19.997      860.986
09/09/2013  01:20:00     -109.039      -32.865       -3.689       48.146       30.462       17.572     2318.040      927.908      308.784        0.827        0.178      113.885       13.281        0.014      343.357       19.412      860.989
09/09/2013  01:21:00      -88.632      -25.564       -3.336       34.485       37.006       19.654     1189.244     1369.424      386.281        0.573        0.147       92.245       18.961        0.042      343.218       19.175      861.006
09/09/2013  01:22:00     -106.508       -2.101      -14.919       30.303       21.478       18.692      918.268      461.311      349.377        0.665        0.086      106.529       13.979        0.017      343.345       19.391      860.996
09/09/2013  01:23:00     -101.068      -59.751       -1.143       47.776       27.303       17.764     2282.503      745.429      315.562        0.856        0.167      117.409       17.387        0.022      343.242       19.216      861.001
09/09/2013  01:24:00      -84.048      -59.352        2.533       49.594       35.042       25.436     2459.587     1227.963      646.974        0.746        0.217      102.891       25.410        0.061      343.224       19.184      861.010
09/09/2013  01:25:00      -60.192      -39.584        2.194       41.039       23.068       18.020     1684.198      532.142      324.711        0.387        0.127       72.041       20.348        0.080      343.233       19.200      861.019
09/09/2013  01:26:00      -98.927      -46.856        2.244       38.385       25.410       17.436     1473.406      645.663      304.014        0.720        0.121      109.462       17.879        0.027      343.260       19.247      861.012
09/09/2013  01:27:00      -62.748      -58.083       -2.168       39.566       24.452       14.987     1565.432      597.878      224.597        0.485        0.119       85.504       16.164        0.036      343.278       19.276      861.008
09/09/2013  01:28:00     -119.829      -61.913        2.468       44.727       45.131       25.193     2000.499     2036.822      634.711        1.143        0.234      134.879       22.955        0.029      343.304       19.322      861.025
09/09/2013  01:29:00      -80.087      -68.215       -0.431       46.289       35.690       18.635     2142.656     1273.766      347.269        0.741        0.188      105.201       13.511        0.016      343.353       19.406      861.023
09/09/2013  01:30:00      -71.019      -67.532        9.490       56.909       48.257       32.322     3238.686     2328.692     1044.734        0.815        0.331       98.002       33.559        0.117      343.381       19.453      861.013
09/09/2013  01:31:00     -125.514      -88.861        7.899       63.623       37.318       34.254     4047.833     1392.626     1173.329        1.516        0.331      153.785       30.681        0.040      343.512       19.674      861.018
09/09/2013  01:32:00     -148.208      -45.799       -5.796       48.827       39.187       33.428     2384.079     1535.614     1117.458        1.457        0.252      155.123       26.781        0.030      343.588       19.804      861.048
09/09/2013  01:33:00     -101.965      -29.682       -3.462       41.611       52.468       25.446     1731.494     2752.863      647.499        0.821        0.257      106.197       21.781        0.042      343.486       19.633      861.073
09/09/2013  01:34:00      -42.525      -27.243        0.291       56.849       30.151       18.916     3231.820      909.063      357.805        0.352        0.225       50.503       25.768        0.260      343.399       19.482      861.085
09/09/2013  01:35:00      -11.462        5.160       18.283       19.529       39.983       22.286      381.389     1598.604      496.654        0.148        0.124       12.570       17.616        1.964      343.133       19.030      861.091
09/09/2013  01:36:00      -35.236       -1.386        4.243       25.598       21.313       14.899      655.263      454.265      221.977        0.130        0.067       35.263       15.929        0.204      343.083       18.945      861.110
09/09/2013  01:37:00       18.665        2.034       13.559       38.726       26.345       16.983     1499.681      694.056      288.436        0.151        0.124       18.776        7.207        0.147      342.579       18.087      861.116
09/09/2013  01:38:00       -5.715      -85.685        4.678       57.621       48.112       19.236     3320.147     2314.808      370.041        0.670        0.300       85.875       15.287        0.032      342.901       18.635      861.110
09/09/2013  01:39:00      -28.738      -77.042       -2.936       32.083       47.500       14.818     1029.311     2256.213      219.578        0.514        0.175       82.227       12.346        0.023      343.349       19.399      861.120
09/09/2013  01:40:00       -7.450      -35.260       11.198       32.638       33.404       15.809     1065.248     1115.857      249.923        0.193        0.122       36.038       17.425        0.234      343.182       19.113      861.131
09/09/2013  01:41:00      -24.920       -0.949        1.240       46.167       27.138       18.407     2131.364      736.459      338.829        0.191        0.160       24.938       16.139        0.419      342.878       18.595      861.146
09/09/2013  01:42:00      -25.794       19.031       14.432       27.987       24.016       15.756      783.254      576.755      248.266        0.142        0.080       32.055       13.079        0.166      342.874       18.591      861.187
09/09/2013  01:43:00      -44.995       29.102       -9.359       34.133       31.607       25.018     1165.036      998.982      625.907        0.287        0.139       53.586       18.848        0.124      343.104       18.982      861.187
09/09/2013  01:44:00       59.785      -80.042       -6.823       39.345       25.140       31.521     1548.015      632.045      993.546        0.660        0.159       99.905       18.355        0.034      342.438       17.847      861.164
09/09/2013  01:45:00       -1.184      -28.003       10.289       27.102       14.147       13.890      734.536      200.149      192.936        0.101        0.056       28.028       11.473        0.168      342.794       18.453      861.175
09/09/2013  01:46:00      -54.681       -5.956        2.288       32.369       19.361       17.544     1047.727      374.867      307.793        0.238        0.087       55.004       15.143        0.076      343.063       18.910      861.177
09/09/2013  01:47:00      -46.508      -31.607        5.829       56.153       30.192       23.677     3153.145      911.585      560.594        0.391        0.231       56.231       31.857        0.321      342.980       18.771      861.181
09/09/2013  01:48:00        5.521      -13.294       18.543       41.477       24.465       21.331     1720.344      598.531      455.014        0.166        0.139       14.395       21.766        2.286      342.547       18.034      861.180
09/09/2013  01:49:00      -79.792      -44.244       -6.328       39.493       37.858       17.043     1559.659     1433.213      290.454        0.582        0.164       91.238       21.998        0.058      343.120       19.010      861.182
09/09/2013  01:50:00      -94.126      -73.443       -8.906       32.879       27.466       19.091     1081.060      754.361      364.481        0.827        0.110      119.388       12.286        0.011      343.138       19.040      861.181
09/09/2013  01:51:00      -64.487      -57.938        3.357       27.397       27.952       18.318      750.582      781.318      335.555        0.470        0.093       86.692       13.737        0.025      343.032       18.859      861.170
09/09/2013  01:52:00      -50.055      -61.405        0.051       38.146       23.833       16.419     1455.132      568.008      269.568        0.428        0.115       79.221        7.978        0.010      343.072       18.927      861.156
09/09/2013  01:53:00      -79.722      -31.972       -0.514       31.511       35.642       17.013      992.919     1270.386      289.441        0.496        0.128       85.894       15.992        0.035      343.035       18.863      861.153
09/09/2013  01:54:00      -58.328      -17.817        4.265       26.794       24.727       15.798      717.917      611.449      249.573        0.266        0.079       60.988       14.474        0.056      342.896       18.628      861.162
09/09/2013  01:55:00     -127.759      -43.974       -9.212       32.848       30.395       21.197     1078.986      923.848      449.328        1.040        0.123      135.115       14.448        0.011      342.953       18.724      861.149
09/09/2013  01:56:00     -147.807      -46.119       -3.337       47.231       44.574       23.217     2230.744     1986.819      539.016        1.437        0.238      154.835       21.987        0.020      342.931       18.686      861.141
09/09/2013  01:57:00     -128.549      -44.948       -8.021       31.004       27.172       21.386      961.260      738.345      457.381        1.038        0.108      136.180       18.745        0.019      342.934       18.691      861.145
09/09/2013  01:58:00     -119.643      -27.864       -2.489       50.529       26.751       20.823     2553.169      715.606      433.609        0.940        0.185      122.845       25.102        0.042      342.741       18.361      861.129
09/09/2013  01:59:00     -124.037      -27.862        2.033       56.892       39.922       26.294     3236.756     1593.792      691.352        1.084        0.276      127.128       29.853        0.055      342.721       18.328      861.117
09/09/2013  02:00:00     -127.035      -41.499        2.335       50.406       33.102       24.796     2540.748     1095.743      614.839        1.106        0.213      133.641       23.048        0.030      342.682       18.262      861.113
09/09/2013  02:01:00     -119.225      -22.113        5.970       53.385       32.425       23.115     2849.925     1051.379      534.311        0.959        0.222      121.258       25.190        0.043      342.699       18.291      861.116
09/09/2013  02:02:00     -113.186      -23.414        3.405       48.852       38.492       21.746     2386.516     1481.635      472.881        0.886        0.217      115.582       20.251        0.031      342.601       18.126      861.116
09/09/2013  02:03:00     -125.884      -23.189       -1.744       51.986       39.930       24.225     2702.555     1594.420      586.874        1.063        0.244      128.002       29.022        0.051      342.499       17.951      861.101
09/09/2013  02:04:00      -49.497      -47.551        5.547       54.120       35.973       17.923     2929.023     1294.075      321.220        0.464        0.227       68.637       15.226        0.049      342.512       17.973      861.082
09/09/2013  02:05:00     -109.763      -29.226      -11.421       28.730       35.921       20.337      825.417     1290.324      413.592        0.778        0.126      113.588       20.218        0.032      342.548       18.035      861.092
09/09/2013  02:06:00     -153.285      -42.351       -2.757       26.766       20.113       15.132      716.443      404.547      228.968        1.332        0.067      159.028       11.806        0.006      342.579       18.088      861.086
09/09/2013  02:07:00     -146.876      -31.119       -5.176       34.100       37.993       21.159     1162.844     1443.476      447.692        1.281        0.153      150.137       20.431        0.019      342.386       17.760      861.090
09/09/2013  02:08:00     -128.544      -32.281      -15.166       33.457       38.356       26.450     1119.369     1471.196      699.597        1.054        0.165      132.535       16.677        0.016      342.304       17.618      861.092
09/09/2013  02:09:00      -66.831      -41.918        6.449       36.616       32.494       27.836     1340.761     1055.881      774.819        0.472        0.159       78.890       23.699        0.090      342.324       17.653      861.095
09/09/2013  02:10:00     -162.129      -50.232      -19.208       20.987       33.077       17.018      440.437     1094.079      289.611        1.550        0.091      169.732        9.443        0.003      342.280       17.579      861.089
09/09/2013  02:11:00     -144.786      -51.124      -12.477       60.206       29.615       21.560     3624.777      877.062      464.847        1.435        0.248      153.547       20.009        0.017      342.286       17.589      861.079
09/09/2013  02:12:00     -171.402      -50.595      -13.708       34.649       51.835       27.987     1200.551     2686.883      783.255        1.840        0.234      178.713       23.751        0.018      342.129       17.321      861.084
09/09/2013  02:13:00     -178.179       -9.031      -16.575       59.878       45.345       28.412     3585.319     2056.161      807.247        1.928        0.322      178.408       29.184        0.027      342.221       17.477      861.078
09/09/2013  02:14:00     -144.752       20.270       -8.903       49.845       39.859       29.590     2484.508     1588.775      875.595        1.320        0.247      146.164       21.909        0.022      342.232       17.497      861.083
09/09/2013  02:15:00     -119.945        3.600       -8.801       65.436       46.845       24.442     4281.829     2194.430      597.406        1.077        0.354      119.999       28.497        0.056      342.345       17.689      861.087
09/09/2013  02:16:00     -130.963       -9.469      -12.070       67.227       45.628       28.741     4519.492     2081.920      826.038        1.241        0.371      131.305       35.886        0.075      342.246       17.520      861.081
09/09/2013  02:17:00      -60.397      -24.303       -4.007       51.114       42.804       26.987     2612.670     1832.181      728.310        0.471        0.259       65.103       26.608        0.167      342.247       17.522      861.069
09/09/2013  02:18:00      -91.965       -7.826       -4.809       25.703       35.771       20.975      660.651     1279.537      439.966        0.546        0.119       92.297       13.185        0.020      342.295       17.603      861.074
09/09/2013  02:19:00      -64.667      -13.546       -5.771       33.795       36.053       20.938     1142.105     1299.807      438.400        0.364        0.144       66.070       20.871        0.100      342.230       17.495      861.069
09/09/2013  02:20:00      -56.444        3.243       -1.562       33.654       22.646       20.724     1132.606      512.840      429.469        0.264        0.104       56.537       15.940        0.079      342.300       17.613      861.065
09/09/2013  02:21:00      -67.267       22.764       -2.781       32.276       20.672       18.933     1041.772      427.325      358.474        0.344        0.091       71.014       15.876        0.050      342.323       17.654      861.070
09/09/2013  02:22:00      -44.538       -7.292       -3.288       25.343       24.343       16.918      642.293      592.588      286.214        0.178        0.076       45.131       16.173        0.128      342.294       17.601      861.087
09/09/2013  02:23:00      -78.157      -30.917       -3.938       33.424       22.267       14.469     1117.165      495.802      209.338        0.445        0.091       84.050       13.041        0.024      342.358       17.710      861.087
09/09/2013  02:24:00     -115.788      -47.981       -3.589       49.477       47.297       20.359     2447.990     2237.049      414.477        1.041        0.255      125.336       18.619        0.022      342.215       17.469      861.078
09/09/2013  02:25:00      -40.540        4.250       -6.106       32.962       24.369       20.975     1086.501      593.835      439.955        0.191        0.106       40.762       14.564        0.128      342.153       17.364      861.082
09/09/2013  02:26:00      -30.588      -44.839        2.647       28.972       22.805       15.210      839.395      520.082      231.332        0.227        0.080       54.278       14.278        0.069      342.353       17.703      861.089
09/09/2013  02:27:00      -78.292      -25.719       -6.961       25.028       21.567       10.943      626.392      465.135      119.758        0.403        0.061       82.408       10.550        0.016      342.307       17.625      861.100
09/09/2013  02:28:00      -72.777      -21.842       -4.053       24.717       25.897       15.962      610.940      670.629      254.785        0.366        0.077       75.984       10.983        0.021      342.173       17.397      861.118
09/09/2013  02:29:00      -44.694        9.277       -4.335       12.743       14.535        8.466      162.380      211.262       71.670        0.127        0.022       45.646        4.371        0.009      342.292       17.600      861.129
09/09/2013  02:30:00      -66.870      -14.659      -12.513       19.622       14.458       13.015      385.010      209.048      169.389        0.280        0.038       68.458       12.936        0.036      342.469       17.900      861.118
09/09/2013  02:31:00      -90.582      -44.148      -19.500       22.365       25.317       15.643      500.204      640.963      244.695        0.596        0.069      100.767       11.598        0.013      342.495       17.944      861.112
09/09/2013  02:32:00      -90.666      -47.219      -12.294       32.616       14.889       11.735     1063.828      221.673      137.714        0.601        0.071      102.225       10.924        0.011      342.598       18.118      861.091
09/09/2013  02:33:00      -75.841      -34.002       -1.618       32.810       15.868       11.566     1076.508      251.809      133.776        0.419        0.073       83.114       14.436        0.030      342.574       18.078      861.078
09/09/2013  02:34:00     -101.481      -21.959       -6.266       15.204       16.150       10.376      231.152      260.812      107.660        0.571        0.030      103.830        6.371        0.004      342.389       17.766      861.069
09/09/2013  02:35:00      -79.847       -2.125       -6.901       20.173        9.405       10.597      406.950       88.450      112.301        0.352        0.030       79.875        7.895        0.010      342.554       18.045      861.076
09/09/2013  02:36:00      -78.597       -8.568      -15.822       12.574        8.967        7.463      158.095       80.416       55.698        0.340        0.015       79.062        4.766        0.004      342.677       18.255      861.061
09/09/2013  02:37:00     -127.049      -25.335      -17.275       18.722       23.538       14.211      350.524      554.048      201.966        0.909        0.055      129.550       12.205        0.009      342.656       18.219      861.060
09/09/2013  02:38:00     -120.549      -34.854      -17.858       22.778       22.878       18.685      518.823      523.399      349.136        0.873        0.070      125.487       14.310        0.013      342.421       17.817      861.052
09/09/2013  02:39:00      -75.884      -27.208      -12.767       22.907       21.469       19.665      524.708      460.900      386.717        0.402        0.069       80.614       15.269        0.036      342.441       17.852      861.036
09/09/2013  02:40:00     -108.042      -29.957      -14.849       31.778       15.820       12.260     1009.858      250.272      150.312        0.710        0.071      112.118        6.552        0.003      342.303       17.618      861.031
09/09/2013  02:41:00     -155.433      -44.394      -13.119       20.894       22.733       16.933      436.567      516.769      286.726        1.377        0.062      161.648       13.822        0.007      342.246       17.521      861.025
09/09/2013  02:42:00      -96.749      -53.533       -3.410       46.768       23.383       17.142     2187.290      546.775      293.852        0.763        0.151      110.572       18.332        0.027      342.192       17.429      861.013
09/09/2013  02:43:00      -88.478      -39.190       -3.632       17.531       16.018       11.506      307.330      256.578      132.396        0.504        0.035       96.769        4.824        0.002      342.309       17.628      861.007
09/09/2013  02:44:00      -93.018      -25.737      -12.762       18.433       14.619       11.997      339.781      213.715      143.935        0.509        0.035       96.513       11.397        0.014      342.346       17.691      860.995
09/09/2013  02:45:00      -98.240      -45.810      -14.056       12.790       14.164       10.146      163.594      200.614      102.932        0.621        0.023      108.396        2.960        0.001      342.539       18.020      860.990
09/09/2013  02:46:00     -124.062      -22.751      -16.560       17.269       18.919       11.678      298.213      357.921      136.381        0.849        0.040      126.131        8.159        0.004      342.501       17.956      860.987
09/09/2013  02:47:00      -90.042      -35.605       -9.613       16.795       14.442        7.959      282.076      208.570       63.349        0.501        0.028       96.826        2.835        0.001      342.486       17.928      860.984
09/09/2013  02:48:00      -68.113      -17.292      -10.009       21.020       19.561       12.062      441.829      382.636      145.492        0.300        0.048       70.274        9.475        0.018      342.410       17.800      860.987
09/09/2013  02:49:00      -66.238      -26.808      -11.018       17.520       12.836        9.013      306.948      164.760       81.237        0.289        0.028       71.457        2.476        0.001      342.547       18.031      861.000
09/09/2013  02:50:00      -98.400      -43.718      -12.125       18.583       11.481        6.786      345.318      131.805       46.055        0.613        0.026      107.675        4.752        0.002      342.188       17.423      861.028
09/09/2013  02:51:00      -62.624      -60.929      -12.052       34.346       22.379       18.370     1179.670      500.801      337.453        0.490        0.101       87.373       19.427        0.049      342.140       17.341      861.036
09/09/2013  02:52:00      -97.830      -26.532      -16.320       14.806       17.021        7.910      219.207      289.725       62.570        0.556        0.029      101.364        5.723        0.003      342.295       17.603      861.032
09/09/2013  02:53:00      -65.354      -27.703      -12.071       18.976       13.242        9.930      360.097      175.348       98.598        0.291        0.032       70.983       10.058        0.020      342.458       17.881      861.033
09/09/2013  02:54:00      -89.842      -17.356      -10.046       28.756       17.240       14.928      826.923      297.225      222.851        0.491        0.067       91.504       13.266        0.021      342.130       17.325      861.041
09/09/2013  02:55:00      -82.073      -53.675       -3.633       29.608       16.429       15.780      876.658      269.911      249.023        0.551        0.070       98.066       16.661        0.029      342.065       17.213      861.044
09/09/2013  02:56:00      -56.550      -34.797        2.963       19.722       23.474       12.075      388.968      551.012      145.809        0.275        0.054       66.399       12.356        0.035      342.173       17.399      861.032
09/09/2013  02:57:00      -78.926      -25.421       -9.633        8.847       11.696        9.134       78.265      136.808       83.431        0.363        0.015       82.919        7.186        0.008      342.188       17.424      861.021
09/09/2013  02:58:00      -93.027      -18.753       -9.734       14.369       13.138        9.879      206.463      172.603       97.588        0.479        0.024       94.898        3.591        0.001      342.219       17.476      861.008
09/09/2013  02:59:00     -119.091      -57.686       -7.022       17.327       17.069       12.023      300.239      291.362      144.552        0.915        0.037      132.327        5.463        0.002      342.109       17.289      860.994
09/09/2013  03:00:00     -104.813      -59.267        2.089       29.984       25.335       19.594      899.052      641.867      383.906        0.821        0.096      120.409       15.678        0.017      342.114       17.299      860.996
09/09/2013  03:01:00      -35.017      -19.364        5.525       26.897       19.257       13.331      723.445      370.835      177.715        0.145        0.064       40.015       13.907        0.121      342.084       17.247      860.993
09/09/2013  03:02:00      -60.860      -15.564       -5.213       16.391       13.847       10.380      268.669      191.734      107.755        0.227        0.028       62.819        7.873        0.016      342.284       17.585      860.998
09/09/2013  03:03:00      -33.143      -47.754      -10.447       20.308       12.894       12.483      412.399      166.263      155.836        0.211        0.037       58.129        9.767        0.028      342.497       17.948      860.998
09/09/2013  03:04:00      -62.569      -54.899       -9.937       21.151       18.472       11.105      447.355      341.196      123.316        0.397        0.046       83.239        9.379        0.013      342.392       17.769      860.995
09/09/2013  03:05:00     -100.398      -44.312      -10.755       13.427       21.091        8.660      180.295      444.828       74.996        0.643        0.035      109.741        4.377        0.002      342.135       17.333      861.007
09/09/2013  03:06:00      -79.333      -70.804       -8.287       24.309       27.616       15.319      590.916      762.651      234.664        0.648        0.079      106.334        7.650        0.005      342.264       17.551      861.020
09/09/2013  03:07:00      -97.161      -37.064       -3.458       21.790       14.893       13.041      474.800      221.790      170.055        0.585        0.043      103.990       10.387        0.010      342.178       17.406      861.013
09/09/2013  03:08:00      -99.820      -53.442       -6.649       31.473       21.117       18.486      990.574      445.946      341.725        0.732        0.089      113.225       15.691        0.019      342.232       17.498      861.009
09/09/2013  03:09:00     -121.791      -64.565       -6.023       20.716       23.521       16.361      429.163      553.240      267.696        1.014        0.063      137.847        8.015        0.003      342.254       17.533      861.000
09/09/2013  03:10:00     -102.176      -81.706       -2.368       34.476       24.289       22.247     1188.602      589.964      494.949        0.970        0.114      130.828       17.934        0.019      342.239       17.511      861.001
09/09/2013  03:11:00     -136.046      -64.950       -3.578       21.047       18.442       14.285      442.971      340.111      204.053        1.186        0.049      150.755       11.011        0.005      342.226       17.487      861.000
09/09/2013  03:12:00     -104.878      -39.850       -6.115       19.313       20.383       12.459      373.000      415.461      155.231        0.678        0.047      112.194        7.056        0.004      342.149       17.356      860.997
09/09/2013  03:13:00     -116.123      -34.167      -11.979       14.465       12.832       13.069      209.243      164.665      170.786        0.767        0.027      121.045        9.074        0.006      342.135       17.333      860.997
09/09/2013  03:14:00     -102.503      -27.452      -12.929       23.869       19.319       12.654      569.708      373.210      160.136        0.627        0.055      106.116       10.752        0.010      342.127       17.320      861.001
09/09/2013  03:15:00      -57.433      -49.581       -1.408       15.194       14.844       12.465      230.862      220.343      155.365        0.318        0.030       75.874        8.638        0.013      342.134       17.331      861.004
09/09/2013  03:16:00      -99.366      -58.456       -3.920       26.564       21.663       12.398      705.671      469.300      153.702        0.732        0.066      115.286       13.823        0.014      342.074       17.229      861.014
09/09/2013  03:17:00      -74.988      -67.416       -2.851       27.820       26.132       23.506      773.934      682.883      552.535        0.609        0.100      100.837       14.758        0.021      342.024       17.144      861.008
09/09/2013  03:18:00      -51.774      -84.892       -0.697       49.692       48.831       38.394     2469.284     2384.513     1474.124        0.811        0.316       99.435       23.041        0.054      342.275       17.571      861.000
09/09/2013  03:19:00      -57.852     -170.435       -0.632       43.318       48.451       30.969     1876.447     2347.530      959.085        1.879        0.259      179.986       13.937        0.006      342.399       17.781      860.989
09/09/2013  03:20:00      -27.605     -108.635        8.199       48.840       71.588       30.743     2385.313     5124.826      945.114        1.054        0.423      112.088       24.669        0.048      342.437       17.846      860.984
09/09/2013  03:21:00      -25.602      -26.409       21.641       45.446       39.126       23.261     2065.357     1530.861      541.082        0.298        0.207       36.782       26.334        0.513      342.278       17.576      861.005
09/09/2013  03:22:00      -26.242      -94.267       -5.694       42.510       57.972       27.948     1807.101     3360.721      781.072        0.778        0.297       97.851       22.159        0.051      342.301       17.615      860.997
09/09/2013  03:23:00      -13.501      -22.370       18.505       35.084       45.589       20.992     1230.903     2078.398      440.676        0.239        0.187       26.129       16.398        0.394      342.187       17.420      860.995
09/09/2013  03:24:00      -15.846       15.439        9.965       28.956       22.279       19.386      838.468      496.349      375.818        0.115        0.086       22.123       14.711        0.442      342.168       17.389      861.006
09/09/2013  03:25:00        6.041        5.381       12.145       15.005       24.792       13.546      225.143      614.644      183.493        0.062        0.051        8.090        9.620        1.414      342.063       17.209      861.019
09/09/2013  03:26:00       25.356       -6.655        7.348       21.919       27.334       17.094      480.422      747.154      292.191        0.113        0.076       26.215       15.997        0.372      342.019       17.136      861.024
09/09/2013  03:27:00      -59.891      -99.322       -6.889       53.678       51.367       26.486     2881.289     2638.579      701.513        0.986        0.311      115.982       18.394        0.025      342.208       17.456      861.006
09/09/2013  03:28:00      -34.142      -46.317        0.193       30.292       37.856       20.953      917.590     1433.097      439.027        0.305        0.139       57.540       21.633        0.141      342.173       17.396      861.020
09/09/2013  03:29:00       10.798      -13.818        0.025       16.310       25.452       12.565      266.027      647.788      157.888        0.069        0.054       17.537        6.716        0.147      342.094       17.264      861.034
09/09/2013  03:30:00        4.392      -28.189        1.661       18.103       23.609       14.582      327.706      557.385      212.641        0.096        0.055       28.529       11.650        0.167      342.070       17.223      861.036
09/09/2013  03:31:00       -6.406      -43.279        0.317       25.817       60.739       17.761      666.494     3689.216      315.444        0.329        0.234       43.751        6.406        0.021      342.158       17.372      861.034
09/09/2013  03:32:00        2.443      -48.669       11.885       22.631       68.117       20.045      512.164     4639.920      401.811        0.403        0.278       48.730       21.486        0.194      342.223       17.482      861.038
09/09/2013  03:33:00      -19.441       31.005        7.586       20.653       39.210       17.925      426.549     1537.446      321.305        0.184        0.114       36.596       14.135        0.149      341.959       17.035      861.055
09/09/2013  03:34:00      -12.990      -45.214      -14.896       30.025       21.566       13.781      901.487      465.101      189.928        0.200        0.078       47.043       13.553        0.083      342.052       17.192      861.049
09/09/2013  03:35:00       35.337       39.872       13.332       12.781       17.093       18.337      163.342      292.166      336.251        0.190        0.040       53.278       10.409        0.038      341.973       17.058      861.058
09/09/2013  03:36:00      -52.485       31.689       -8.566       35.948       18.554       12.440     1292.232      344.259      154.741        0.281        0.090       61.310       14.428        0.055      342.056       17.198      861.084
09/09/2013  03:37:00      -38.745      -37.208      -10.742       24.567       38.527        9.642      603.539     1484.323       92.968        0.259        0.109       53.718        2.436        0.002      342.125       17.317      861.071
09/09/2013  03:38:00      -24.169      -80.464      -12.331       29.453       24.219       20.890      867.508      586.556      436.394        0.455        0.095       84.016       13.307        0.025      342.230       17.495      861.056
09/09/2013  03:39:00      -40.633      -15.585        8.768       38.349       33.130       16.805     1470.641     1097.613      282.422        0.241        0.143       43.519       13.764        0.100      342.080       17.240      861.075
09/09/2013  03:40:00        6.855       -8.492        9.689       41.548       25.966       19.888     1726.213      674.235      395.530        0.150        0.140       10.914       18.548        2.888      341.985       17.079      861.089
09/09/2013  03:41:00       10.002       11.648       15.303       18.895       10.970        9.837      357.005      120.343       96.763        0.052        0.029       15.353        6.171        0.162      341.889       16.915      861.095
09/09/2013  03:42:00       35.507       31.114       26.449       16.767       28.090       26.801      281.137      789.063      718.278        0.236        0.089       47.210       23.589        0.250      341.828       16.811      861.114
09/09/2013  03:43:00       51.339       48.363       20.433       39.092       39.326       40.364     1528.187     1546.524     1629.251        0.505        0.235       70.531       32.138        0.208      341.609       16.441      861.115
09/09/2013  03:44:00       63.156       13.558       -2.675       32.167       23.378       15.440     1034.746      546.528      238.384        0.300        0.091       64.595        9.884        0.023      341.432       16.140      861.112
09/09/2013  03:45:00      -10.780      -33.863       -2.126       30.436       15.590       12.456      926.369      243.040      155.159        0.130        0.066       35.537       10.454        0.087      341.698       16.593      861.104
09/09/2013  03:46:00      -91.887      -35.441        5.238       53.631       33.879       15.298     2876.334     1147.781      234.021        0.699        0.213       98.484       15.984        0.026      341.863       16.871      861.111
09/09/2013  03:47:00     -108.892      -64.872        0.392       53.353       34.061       27.208     2846.506     1160.159      740.267        1.041        0.237      126.751       24.455        0.037      341.902       16.936      861.125
09/09/2013  03:48:00      -57.642      -57.084       10.901       61.353       37.247       29.993     3764.137     1387.365      899.559        0.637        0.303       81.125       27.001        0.111      341.956       17.030      861.132
09/09/2013  03:49:00      -80.756      -79.706        5.313       46.181       40.655       28.939     2132.683     1652.864      837.446        0.876        0.231      113.466       28.201        0.062      341.963       17.041      861.142
09/09/2013  03:50:00      -33.150      -41.981        5.709       49.927       30.349       21.573     2492.663      921.066      465.402        0.339        0.194       53.492       21.279        0.158      341.952       17.022      861.155
09/09/2013  03:51:00      -36.608      -54.461        6.305       39.096       34.765       24.145     1528.471     1208.637      582.964        0.383        0.166       65.621       20.404        0.097      342.018       17.135      861.158
09/09/2013  03:52:00       -3.106      -11.989        4.507       16.088       19.203       16.364      258.829      368.751      267.778        0.053        0.045       12.385        9.265        0.560      341.916       16.960      861.157
09/09/2013  03:53:00       21.342       16.613       14.544       22.222       14.543       10.047      493.828      211.500      100.939        0.087        0.040       27.045        8.880        0.108      341.851       16.850      861.160
09/09/2013  03:54:00       50.632       25.023       12.613       27.926       24.695       21.788      779.866      609.838      474.697        0.261        0.093       56.478       17.407        0.095      341.810       16.783      861.152
09/09/2013  03:55:00       35.367       20.548       10.788       32.115       14.559       22.286     1031.342      211.975      496.652        0.176        0.087       40.903        7.961        0.038      341.810       16.783      861.166
09/09/2013  03:56:00      -13.358        9.533       -1.235        7.493        6.397        7.299       56.151       40.917       53.271        0.021        0.008       16.411        3.343        0.041      341.830       16.814      861.191
09/09/2013  03:57:00      -39.321      -14.456        1.996       15.446       21.625       10.817      238.581      467.649      117.012        0.129        0.041       41.894        9.317        0.049      341.876       16.892      861.194
09/09/2013  03:58:00      -51.362      -32.669       -2.245       27.252       22.229        9.671      742.646      494.150       93.535        0.252        0.067       60.871        5.681        0.009      341.830       16.816      861.193
09/09/2013  03:59:00      -57.881      -41.891        1.737       35.122       23.478       15.189     1233.526      551.220      230.699        0.356        0.101       71.450       22.545        0.100      341.918       16.964      861.193
09/09/2013  04:00:00      -21.314      -40.202       13.695       50.116       31.594       17.207     2511.576      998.183      296.075        0.303        0.190       45.503       16.128        0.126      341.902       16.938      861.196
09/09/2013  04:01:00      -69.264      -56.040        3.986       46.441       31.751       20.940     2156.740     1008.108      438.492        0.578        0.180       89.095       21.928        0.061      341.837       16.827      861.204
09/09/2013  04:02:00      -53.612      -58.023        7.054       49.220       43.037       28.763     2422.639     1852.143      827.286        0.570        0.255       78.999       33.863        0.184      341.762       16.698      861.210
09/09/2013  04:03:00      -31.092      -13.917        8.742       48.517       28.685       20.168     2353.945      822.803      406.759        0.241        0.179       34.065       19.521        0.328      341.708       16.607      861.211
09/09/2013  04:04:00      -83.139      -47.169        9.721       46.775       39.094       30.117     2187.891     1528.328      907.027        0.693        0.231       95.588       27.392        0.082      341.718       16.624      861.199
09/09/2013  04:05:00     -131.978      -72.894       -4.844       50.260       39.835       19.883     2526.071     1586.819      395.331        1.363        0.225      150.770       14.368        0.009      341.724       16.637      861.206
09/09/2013  04:06:00     -111.724      -92.349       -6.194       48.066       30.998       20.441     2310.344      960.854      417.849        1.237        0.184      144.950       21.623        0.022      341.727       16.641      861.223
09/09/2013  04:07:00      -95.696      -61.198       -6.788       26.310       20.507       12.897      692.233      420.542      166.321        0.711        0.064      113.591        8.206        0.005      341.721       16.630      861.215
09/09/2013  04:08:00      -66.527      -45.430        3.982       38.414       35.330       19.931     1475.605     1248.232      397.261        0.481        0.156       80.559       19.583        0.059      341.621       16.461      861.225
09/09/2013  04:09:00      -79.198      -74.387      -11.544       37.363       33.207       17.524     1395.969     1102.709      307.102        0.737        0.140      108.654        8.311        0.006      341.664       16.536      861.226
09/09/2013  04:10:00     -126.437     -101.241       -8.795       35.851       22.529       22.669     1285.322      507.569      513.874        1.431        0.115      161.976       13.065        0.007      341.623       16.465      861.206
09/09/2013  04:11:00     -195.564      -81.960      -19.399       38.582       35.162       21.155     1488.578     1236.385      447.514        2.426        0.159      212.044       19.198        0.008      341.618       16.454      861.210
09/09/2013  04:12:00     -131.866      -99.660       -5.501       59.333       77.464       33.049     3520.438     6000.686     1092.263        1.898        0.531      165.290       35.285        0.046      341.569       16.371      861.232
09/09/2013  04:13:00     -107.385     -109.849       -4.886       55.194       39.891       27.748     3046.386     1591.325      769.946        1.451        0.270      153.618       17.907        0.014      341.627       16.471      861.218
09/09/2013  04:14:00     -126.372      -87.632        4.656       57.368       35.246       27.559     3291.130     1242.277      759.508        1.448        0.265      153.783       18.646        0.015      341.572       16.377      861.210
09/09/2013  04:15:00     -120.690      -98.924        2.431       62.582       64.774       27.453     3916.558     4195.727      753.677        1.661        0.443      156.051       20.636        0.017      341.515       16.280      861.211
09/09/2013  04:16:00     -116.953      -83.378       -1.667       53.505       62.510       33.637     2862.747     3907.545     1131.455        1.427        0.395      143.631       32.062        0.050      341.437       16.149      861.218
09/09/2013  04:17:00     -121.186      -77.846        2.882       52.145       41.228       31.832     2719.069     1699.707     1013.257        1.309        0.272      144.035       25.517        0.031      341.427       16.131      861.227
09/09/2013  04:18:00     -103.421      -24.181       -1.909       40.244       55.484       24.206     1619.614     3078.448      585.927        0.828        0.264      106.210       13.428        0.016      341.404       16.092      861.221
09/09/2013  04:19:00      -96.399      -94.130        5.540       78.692       59.182       30.335     6192.508     3502.529      920.191        1.440        0.531      134.734       39.279        0.085      341.388       16.065      861.211
09/09/2013  04:20:00     -182.749     -126.261      -11.476       56.197       51.018       29.101     3158.055     2602.821      846.860        2.804        0.330      222.124       27.536        0.015      341.343       15.987      861.217
09/09/2013  04:21:00     -171.649      -52.819       -8.219       63.246       60.729       32.794     4000.119     3687.959     1075.460        2.054        0.438      179.592       29.347        0.027      341.274       15.872      861.233
09/09/2013  04:22:00     -148.091      -50.724       -4.559       57.565       57.639       29.108     3313.691     3322.280      847.271        1.600        0.374      156.537       28.657        0.034      341.263       15.854      861.232
09/09/2013  04:23:00     -111.513      -53.319       -2.711       55.287       49.494       30.449     3056.699     2449.659      927.132        1.086        0.322      123.605       30.711        0.062      341.202       15.752      861.233
09/09/2013  04:24:00     -116.721      -38.779        3.206       52.039       38.532       20.924     2708.073     1484.749      437.797        0.988        0.232      122.994       17.501        0.020      341.164       15.687      861.235
09/09/2013  04:25:00     -176.536      -22.766      -17.029       46.674       42.682       26.075     2178.424     1821.734      679.926        1.833        0.234      177.998       25.250        0.020      341.096       15.571      861.229
09/09/2013  04:26:00     -186.283      -41.999       -7.219       53.873       49.551       35.838     2902.352     2455.261     1284.397        2.158        0.332      190.959       30.937        0.026      340.998       15.403      861.220
09/09/2013  04:27:00     -194.843      -93.196       -6.412       51.426       44.338       28.226     2644.643     1965.897      796.705        2.605        0.270      215.985       23.101        0.011      341.156       15.670      861.217
09/09/2013  04:28:00     -160.789      -98.207       -0.750       61.472       50.846       34.091     3778.762     2585.351     1162.185        2.151        0.376      188.408       37.766        0.040      341.233       15.800      861.224
09/09/2013  04:29:00     -118.697      -34.929       -4.244       35.728       39.384       25.135     1276.458     1551.085      631.788        0.939        0.173      123.729       17.122        0.019      341.189       15.729      861.228
09/09/2013  04:30:00     -114.776      -14.678       -7.391       42.900       30.268       19.512     1840.418      916.154      380.736        0.829        0.157      115.711       20.685        0.032      341.117       15.606      861.228
09/09/2013  04:31:00     -127.629      -44.492       -4.993       41.897       27.210       22.183     1755.380      740.367      492.085        1.064        0.149      135.161       21.007        0.024      341.094       15.568      861.249
09/09/2013  04:32:00     -176.266      -33.498       -7.326       44.720       41.957       23.863     1999.878     1760.431      569.466        1.829        0.216      179.421       21.156        0.014      341.027       15.453      861.263
09/09/2013  04:33:00     -130.782      -60.952        2.855       56.283       39.520       28.062     3167.801     1561.836      787.493        1.317        0.276      144.288       27.460        0.036      341.054       15.501      861.280
09/09/2013  04:34:00      -71.180      -52.913       10.321       41.832       35.091       24.932     1749.945     1231.411      621.595        0.579        0.180       88.693       23.517        0.070      341.156       15.673      861.285
09/09/2013  04:35:00     -100.937      -53.717        5.217       32.473       33.272       20.440     1054.466     1107.051      417.783        0.784        0.129      114.341       18.090        0.025      341.153       15.669      861.287
09/09/2013  04:36:00      -61.248      -44.901        1.920       44.716       31.850       19.003     1999.550     1014.401      361.100        0.457        0.169       75.943       20.231        0.071      341.124       15.619      861.293
09/09/2013  04:37:00     -105.817      -86.939       -3.570       31.217       29.630       21.616      974.477      877.939      467.239        1.054        0.116      136.952       19.957        0.021      341.169       15.696      861.293
09/09/2013  04:38:00      -36.177      -55.504        7.979       36.612       25.642       27.721     1340.473      657.517      768.475        0.361        0.138       66.253       23.494        0.126      341.156       15.676      861.290
09/09/2013  04:39:00      -67.150      -62.974        1.328       53.837       30.539       23.126     2898.439      932.635      534.819        0.642        0.218       92.058       15.473        0.028      341.243       15.823      861.293
09/09/2013  04:40:00     -106.659      -28.759        7.608       49.907       49.811       29.842     2490.715     2481.155      890.522        0.906        0.293      110.468       30.270        0.075      341.268       15.864      861.310
09/09/2013  04:41:00      -65.169      -25.472       -0.192       39.945       36.014       17.323     1595.594     1297.029      300.078        0.404        0.160       69.970       19.851        0.080      341.259       15.848      861.319
09/09/2013  04:42:00      -49.745      -40.480       -0.274       34.219       23.594       21.160     1170.935      556.658      447.757        0.314        0.109       64.135       16.904        0.069      341.195       15.739      861.324
09/09/2013  04:43:00     -113.119      -66.076       -1.878       42.312       44.033       21.447     1790.308     1938.877      459.957        1.068        0.209      131.004       17.437        0.018      341.085       15.554      861.341
09/09/2013  04:44:00     -122.347      -71.987       -5.785       48.109       24.496       21.432     2314.490      600.048      459.342        1.178        0.169      141.954       25.731        0.033      341.073       15.532      861.344
09/09/2013  04:45:00      -14.262      -45.002       17.143       38.794       27.885       22.602     1505.005      777.564      510.866        0.266        0.140       47.208       25.312        0.288      341.106       15.589      861.347
09/09/2013  04:46:00      -80.221      -90.913       -6.870       37.141       26.848       26.213     1379.419      720.826      687.143        0.877        0.139      121.246       21.146        0.030      341.188       15.728      861.363
09/09/2013  04:47:00      -83.460      -63.605       -6.206       35.151       37.459       29.636     1235.581     1403.155      878.310        0.728        0.176      104.934       15.995        0.023      341.159       15.677      861.364
09/09/2013  04:48:00     -144.074     -100.693       -1.206       46.250       56.084       31.220     2139.099     3145.398      974.696        1.858        0.313      175.774       29.575        0.028      341.088       15.557      861.381
09/09/2013  04:49:00     -162.353     -140.514      -15.923       58.663       38.827       27.962     3441.328     1507.521      781.857        2.604        0.287      214.716       21.811        0.010      341.106       15.585      861.390
09/09/2013  04:50:00     -118.238      -98.634        9.514       77.389       57.051       38.021     5989.045     3254.791     1445.569        1.724        0.534      153.978       41.126        0.071      341.055       15.500      861.382
09/09/2013  04:51:00     -132.339      -87.591        2.435       66.525       55.796       35.576     4425.610     3113.163     1265.627        1.700        0.440      158.700       35.765        0.051      341.019       15.439      861.387
09/09/2013  04:52:00      -92.978     -101.825        7.804       79.822       50.080       41.987     6371.496     2507.974     1762.925        1.486        0.532      137.889       49.025        0.126      341.011       15.427      861.392
09/09/2013  04:53:00     -121.015     -105.928       -2.284       64.247       50.880       36.885     4127.721     2588.786     1360.511        1.697        0.404      160.827       39.014        0.059      341.029       15.458      861.387
09/09/2013  04:54:00      -42.551      -47.257       13.812       50.570       31.976       27.616     2557.308     1022.454      762.664        0.429        0.217       63.591       25.152        0.156      341.027       15.455      861.389
09/09/2013  04:55:00      -99.029      -74.953        8.000       63.382       57.997       31.241     4017.239     3363.674      976.000        1.192        0.418      124.196       35.753        0.083      341.045       15.484      861.391
09/09/2013  04:56:00      -63.300      -90.919        9.385       54.166       56.238       36.456     2933.993     3162.712     1329.036        0.989        0.371      110.784       37.878        0.117      341.007       15.423      861.385
09/09/2013  04:57:00      -79.194      -78.674        0.434       44.327       31.955       24.686     1964.881     1021.124      609.397        0.803        0.180      111.631       23.373        0.044      340.987       15.387      861.393
09/09/2013  04:58:00      -87.927      -20.223       -2.601       28.552       34.191       18.373      815.220     1169.024      337.554        0.523        0.116       90.223       14.913        0.027      340.861       15.174      861.421
09/09/2013  04:59:00      -82.559      -39.761        3.417       44.429       24.556       18.300     1973.935      603.015      334.883        0.566        0.146       91.635       20.629        0.051      340.769       15.016      861.438
09/09/2013  05:00:00      -78.349      -24.006       -2.067       38.982       32.985       19.868     1519.581     1088.010      394.739        0.486        0.150       81.944       21.205        0.067      340.750       14.987      861.449
09/09/2013  05:01:00      -76.623      -13.085        3.427       39.860       25.521       20.422     1588.790      651.329      417.074        0.436        0.133       77.732       23.251        0.089      340.719       14.933      861.452
09/09/2013  05:02:00      -64.753      -19.600        6.288       49.534       22.606       17.407     2453.665      511.033      303.002        0.394        0.163       67.654       22.218        0.108      340.732       14.957      861.462
09/09/2013  05:03:00     -102.171      -42.138       -0.988       41.624       33.763       15.326     1732.566     1139.949      234.880        0.766        0.155      110.519       17.099        0.024      340.827       15.116      861.465
09/09/2013  05:04:00     -158.249      -42.167       -5.048       40.315       39.120       21.652     1625.280     1530.340      468.817        1.523        0.181      163.770       20.532        0.016      340.723       14.940      861.484
09/09/2013  05:05:00     -169.626      -33.859        2.794       30.350       32.473       18.607      921.146     1054.467      346.224        1.612        0.116      172.972       20.159        0.014      340.761       15.005      861.494
09/09/2013  05:06:00     -142.219      -53.549       -3.040       35.266       26.873       17.743     1243.709      722.155      314.798        1.269        0.114      151.966       18.548        0.015      340.770       15.021      861.504
09/09/2013  05:07:00     -108.256      -21.415       -3.162       43.880       29.560       19.861     1925.432      873.782      394.458        0.769        0.160      110.354       22.181        0.040      340.745       14.978      861.503
09/09/2013  05:08:00     -127.103      -23.306       -1.647       44.445       31.416       23.044     1975.326      986.984      531.037        1.010        0.175      129.222       19.538        0.023      340.756       14.995      861.511
09/09/2013  05:09:00     -111.026      -32.009       -1.781       30.117       34.352       21.450      907.049     1180.034      460.086        0.795        0.127      115.548       17.015        0.022      340.799       15.070      861.518
09/09/2013  05:10:00     -100.101      -23.849       -1.897       29.984       30.285       20.805      899.041      917.153      432.844        0.642        0.112      102.903       14.655        0.020      340.772       15.022      861.525
09/09/2013  05:11:00      -83.139      -31.113       -1.856       19.679       21.543       14.814      387.271      464.098      219.452        0.448        0.054       88.770       10.818        0.015      340.805       15.080      861.521
09/09/2013  05:12:00      -75.543      -35.112       -2.213       38.119       20.338       15.011     1453.036      413.652      225.321        0.452        0.105       83.304       17.073        0.042      340.792       15.057      861.525
09/09/2013  05:13:00      -81.322       -6.785        5.486       37.789       22.197       15.832     1427.990      492.712      250.637        0.443        0.109       81.604       17.340        0.045      340.806       15.081      861.538
09/09/2013  05:14:00      -95.994      -40.541       -6.535       24.416       33.622       16.070      596.147     1130.455      258.260        0.644        0.099      104.204       15.186        0.021      340.790       15.052      861.553
09/09/2013  05:15:00      -80.333      -46.847       -2.845       21.358       20.103       15.586      456.181      404.147      242.930        0.488        0.055       92.995       10.923        0.014      340.712       14.922      861.566
09/09/2013  05:16:00      -76.340      -37.433        3.560       39.091       19.453       16.630     1528.117      378.409      276.546        0.471        0.109       85.024       18.435        0.047      340.655       14.825      861.584
09/09/2013  05:17:00      -37.954      -48.871        6.509       41.099       28.372       17.485     1689.134      804.950      305.720        0.333        0.140       61.877       19.599        0.100      340.721       14.937      861.598
09/09/2013  05:18:00      -49.218      -80.279        3.915       40.476       31.514       20.491     1638.295      993.147      419.885        0.597        0.153       94.165       23.562        0.063      340.783       15.041      861.592
09/09/2013  05:19:00      -60.761      -20.400        5.562       45.694       36.566       25.203     2087.979     1337.105      635.194        0.410        0.203       64.094       22.948        0.128      340.742       14.973      861.599
09/09/2013  05:20:00      -90.698      -60.454       -6.710       45.236       41.661       19.737     2046.291     1735.611      389.542        0.805        0.209      108.999       17.486        0.026      340.707       14.913      861.621
09/09/2013  05:21:00      -82.757      -81.757       -3.099       47.982       40.023       27.696     2302.317     1601.849      767.054        0.911        0.234      116.331       22.282        0.037      340.674       14.858      861.623
09/09/2013  05:22:00     -131.736      -76.720       -8.663       42.450       43.092       22.091     1801.994     1856.963      488.031        1.373        0.207      152.448       20.826        0.019      340.742       14.973      861.618
09/09/2013  05:23:00     -110.424      -83.842        5.880       54.375       55.853       26.689     2956.660     3119.514      712.307        1.302        0.339      138.647       28.350        0.042      340.733       14.958      861.612
09/09/2013  05:24:00     -101.983      -77.867        6.134       71.507       58.201       39.934     5113.198     3387.370     1594.749        1.330        0.505      128.311       42.660        0.111      340.677       14.863      861.610
09/09/2013  05:25:00     -120.087      -77.420        4.266       54.572       45.135       32.224     2978.075     2037.167     1038.372        1.324        0.303      142.880       27.284        0.036      340.658       14.831      861.618
09/09/2013  05:26:00      -43.393      -59.096        1.807       57.167       52.910       31.434     3268.120     2799.464      988.092        0.622        0.353       73.317       33.041        0.203      340.647       14.812      861.614
09/09/2013  05:27:00     -123.685     -118.165       -8.748       46.757       43.769       21.862     2186.229     1915.753      477.931        1.696        0.229      171.058       19.385        0.013      340.735       14.960      861.602
09/09/2013  05:28:00     -175.618      -71.549      -10.616       64.360       54.348       33.759     4142.214     2953.737     1139.659        2.215        0.412      189.634       38.227        0.041      340.683       14.872      861.615
09/09/2013  05:29:00     -118.442      -37.219       -0.506       57.752       41.859       26.802     3335.320     1752.170      718.335        1.061        0.290      124.153       28.807        0.054      340.628       14.780      861.633
09/09/2013  05:30:00     -111.332      -92.840       -0.838       40.583       52.953       25.231     1646.940     2803.980      636.591        1.305        0.254      144.962       23.104        0.025      340.628       14.780      861.624
09/09/2013  05:31:00     -129.778      -96.703       -5.433       35.672       43.680       25.845     1272.498     1907.919      667.959        1.504        0.192      161.845       19.540        0.015      340.640       14.801      861.606
09/09/2013  05:32:00     -117.722     -110.103       -9.395       35.604       32.134       28.665     1267.644     1032.603      821.655        1.460        0.156      161.187       19.457        0.015      340.666       14.845      861.625
09/09/2013  05:33:00      -68.302      -46.237        6.654       41.449       41.870       20.619     1718.053     1753.057      425.132        0.537        0.195       82.480       16.106        0.038      340.619       14.766      861.624
09/09/2013  05:34:00      -82.447      -42.616        3.648       33.130       25.162       23.129     1097.629      633.127      534.932        0.545        0.113       92.809       23.238        0.063      340.681       14.870      861.613
09/09/2013  05:35:00      -99.697       -9.455       -0.455       29.698       23.211       15.168      881.992      538.738      230.076        0.584        0.083      100.145       15.792        0.025      340.602       14.735      861.615
09/09/2013  05:36:00      -76.973      -31.964       -2.565       33.185       18.935       12.289     1101.230      358.518      151.008        0.428        0.081       83.346       14.007        0.028      340.582       14.702      861.615
09/09/2013  05:37:00      -49.573      -38.857        1.903       35.361       21.421       14.269     1250.382      458.865      203.614        0.294        0.096       62.987       16.481        0.068      340.675       14.861      861.613
09/09/2013  05:38:00      -39.990      -20.818        4.749       29.360       16.271       12.661      861.989      264.735      160.297        0.167        0.064       45.085       12.948        0.082      340.703       14.907      861.609
09/09/2013  05:39:00     -122.361      -30.863      -21.236       18.996       14.981       11.641      360.855      224.421      135.503        0.855        0.036      126.194        5.871        0.002      340.631       14.783      861.621
09/09/2013  05:40:00     -143.978      -37.479      -23.389       20.565       14.590       14.396      422.935      212.870      207.248        1.176        0.042      148.776        8.485        0.003      340.555       14.655      861.617
09/09/2013  05:41:00     -156.901      -33.715      -13.619       13.534       22.288       17.380      183.162      496.739      302.059        1.346        0.049      160.482        3.236        0.000      340.440       14.463      861.602
09/09/2013  05:42:00     -141.500      -35.158      -18.016       11.497       11.203        8.630      132.184      125.510       74.484        1.096        0.017      145.802        4.475        0.001      340.402       14.399      861.600
09/09/2013  05:43:00     -133.238      -46.741      -13.045       41.508       23.540       21.183     1722.898      554.139      448.738        1.142        0.136      141.198       25.277        0.032      340.410       14.412      861.610
09/09/2013  05:44:00     -142.550      -55.840       -7.467       28.113       40.350       20.585      790.333     1628.110      423.761        1.317        0.142      153.097       17.453        0.013      340.374       14.350      861.617
09/09/2013  05:45:00     -109.780      -62.506       -4.091       35.951       23.264       20.912     1292.463      541.227      437.302        0.912        0.114      126.328       16.292        0.017      340.350       14.309      861.612
09/09/2013  05:46:00     -145.009      -40.275      -16.404       15.886       19.434       13.165      252.380      377.682      173.308        1.186        0.040      150.498        7.119        0.002      340.439       14.460      861.605
09/09/2013  05:47:00      -84.813      -37.149       -0.417       33.959       20.602       15.754     1153.189      424.452      248.183        0.520        0.091       92.592       17.348        0.035      340.342       14.296      861.598
09/09/2013  05:48:00      -86.943      -35.138       -1.372       22.092       30.212       20.147      488.045      912.758      405.882        0.530        0.090       93.775       13.131        0.020      340.374       14.349      861.597
09/09/2013  05:49:00      -98.814      -65.971       -9.607       39.234       28.206       19.578     1539.302      795.565      383.302        0.846        0.136      118.812       20.160        0.029      340.444       14.466      861.609
09/09/2013  05:50:00      -96.707      -79.252       -5.123       39.818       37.728       21.274     1585.458     1423.416      452.587        0.956        0.173      125.033       22.143        0.031      340.462       14.498      861.616
09/09/2013  05:51:00      -96.023     -101.803        0.217       56.682       34.455       30.918     3212.795     1187.120      955.916        1.247        0.268      139.944       32.189        0.053      340.451       14.479      861.627
09/09/2013  05:52:00     -109.004     -107.725      -11.562       50.987       42.068       31.415     2599.711     1769.683      986.875        1.449        0.268      153.253       31.889        0.043      340.419       14.428      861.637
09/09/2013  05:53:00     -110.648      -83.280        0.630       37.757       44.327       24.266     1425.623     1964.925      588.828        1.158        0.199      138.486       24.788        0.032      340.413       14.416      861.634
09/09/2013  05:54:00      -71.113      -53.226        0.837       42.229       32.807       22.576     1783.286     1076.313      509.678        0.563        0.168       88.826       19.961        0.050      340.468       14.509      861.645
09/09/2013  05:55:00      -77.453      -54.689       -3.011       34.996       17.508       15.960     1224.698      306.539      254.715        0.539        0.089       94.815        9.296        0.010      340.491       14.549      861.660
09/09/2013  05:56:00     -145.486      -42.546      -13.773       24.068       21.838       11.818      579.259      476.899      139.665        1.218        0.060      151.579        6.400        0.002      340.459       14.492      861.682
09/09/2013  05:57:00     -145.054      -58.198       -7.279       25.952       19.092       17.792      673.481      364.509      316.552        1.292        0.068      156.294       14.453        0.009      340.442       14.467      861.707
09/09/2013  05:58:00     -113.872      -64.478       -2.098       37.214       29.191       22.567     1384.856      852.143      509.249        0.994        0.137      130.860       21.306        0.027      340.435       14.452      861.716
09/09/2013  05:59:00     -128.804      -52.908       -9.387       25.702       22.621       16.387      660.609      511.722      268.538        1.046        0.072      139.247        3.150        0.001      340.447       14.474      861.715
09/09/2013  06:00:00      -99.454      -48.623      -12.531       11.624       17.804       11.983      135.125      316.978      143.593        0.650        0.030      110.704        6.703        0.004      340.471       14.513      861.714
09/09/2013  06:01:00     -118.602      -44.083       -4.350       26.815       27.077       20.368      719.051      733.159      414.852        0.895        0.093      126.530       15.413        0.015      340.407       14.408      861.715
09/09/2013  06:02:00      -88.418      -73.020        4.092       51.666       45.209       30.232     2669.383     2043.850      914.002        0.940        0.281      114.672       25.940        0.051      340.440       14.461      861.723
09/09/2013  06:03:00     -184.344     -123.847      -14.756       44.826       43.762       32.056     2009.332     1915.104     1027.566        2.724        0.248      222.083       17.205        0.006      340.489       14.542      861.734
09/09/2013  06:04:00     -175.215     -126.075      -11.798       46.375       35.659       34.052     2150.629     1271.544     1159.509        2.566        0.229      215.859       20.167        0.009      340.434       14.447      861.742
09/09/2013  06:05:00     -130.204     -111.345       -2.814       59.670       55.213       32.999     3560.539     3048.471     1088.939        1.853        0.385      171.321       35.485        0.043      340.445       14.469      861.743
09/09/2013  06:06:00     -167.505      -96.100       -3.448       50.002       45.743       37.859     2500.180     2092.376     1433.282        2.166        0.301      193.114       27.775        0.021      340.401       14.395      861.742
09/09/2013  06:07:00     -166.153     -118.813      -17.055       57.490       61.206       35.150     3305.103     3746.211     1235.520        2.515        0.414      204.263       38.490        0.036      340.418       14.422      861.738
09/09/2013  06:08:00     -187.014     -150.320      -15.498       55.871       49.884       35.469     3121.595     2488.391     1258.068        3.234        0.343      239.938       27.231        0.013      340.429       14.440      861.728
09/09/2013  06:09:00     -172.011     -132.669      -17.727       27.798       43.043       23.473      772.721     1852.669      550.972        2.534        0.159      217.230       12.467        0.003      340.428       14.438      861.735
09/09/2013  06:10:00     -125.349      -92.167       -0.399       42.862       34.166       28.781     1837.186     1167.316      828.371        1.402        0.192      155.586       24.195        0.024      340.454       14.487      861.743
09/09/2013  06:11:00     -113.415      -80.742       -3.903       41.797       38.130       23.746     1746.985     1453.929      563.871        1.158        0.188      139.220       21.609        0.024      340.515       14.589      861.738
09/09/2013  06:12:00     -131.216      -61.132       -6.111       21.856       33.802       14.083      477.671     1142.586      198.324        1.141        0.091      144.758        9.076        0.004      340.559       14.663      861.733
09/09/2013  06:13:00      -94.159      -44.842        2.549       36.418       31.717       19.624     1326.240     1005.965      385.094        0.680        0.136      104.292       17.876        0.029      340.521       14.600      861.727
09/09/2013  06:14:00     -116.245      -35.795        1.213       38.093       24.557       22.525     1451.091      603.053      507.364        0.868        0.128      121.631       18.259        0.023      340.429       14.443      861.744
09/09/2013  06:15:00      -98.678      -51.623        1.715       46.983       26.698       21.772     2207.430      712.785      474.014        0.790        0.170      111.365       18.172        0.027      340.433       14.449      861.742
09/09/2013  06:16:00      -97.315      -47.912       -5.188       38.365       31.335       19.244     1471.897      981.899      370.318        0.731        0.141      108.470        7.508        0.005      340.431       14.446      861.740
09/09/2013  06:17:00     -130.179      -25.679       -9.261       40.425       20.007       17.224     1634.157      400.289      296.679        1.001        0.117      132.687       20.036        0.023      340.404       14.402      861.734
09/09/2013  06:18:00     -156.187      -28.699       -6.546       32.434       24.739       21.782     1051.946      612.012      474.434        1.370        0.107      158.802       15.862        0.010      340.358       14.325      861.741
09/09/2013  06:19:00     -143.404      -44.434       -0.937       37.762       40.938       19.989     1425.990     1675.884      399.561        1.302        0.175      150.130       15.169        0.010      340.280       14.192      861.758
09/09/2013  06:20:00     -154.830      -59.059       -2.751       37.541       31.349       22.409     1409.350      982.758      502.184        1.518        0.145      165.712       20.034        0.015      340.267       14.169      861.763
09/09/2013  06:21:00     -136.259      -14.689       -4.384       33.877       26.774       20.324     1147.671      716.840      413.048        1.054        0.114      137.049       18.180        0.018      340.241       14.125      861.770
09/09/2013  06:22:00     -163.846      -46.085       -9.236       40.161       36.685       20.394     1612.880     1345.754      415.919        1.621        0.169      170.203       16.665        0.010      340.197       14.051      861.767
09/09/2013  06:23:00     -152.093      -59.627       -1.736       52.949       37.398       21.942     2803.625     1398.635      481.443        1.569        0.234      163.363       18.245        0.012      340.196       14.050      861.768
09/09/2013  06:24:00     -152.222      -54.069       -6.770       23.485       25.234       14.457      551.546      636.736      209.009        1.377        0.070      161.539        8.223        0.003      340.224       14.097      861.773
09/09/2013  06:25:00     -112.564      -46.696       -2.068       39.547       25.950       21.576     1563.942      673.392      465.535        0.878        0.135      121.865       17.428        0.020      340.237       14.116      861.791
09/09/2013  06:26:00     -133.163      -39.686       -2.051       31.416       28.598       21.512      986.938      817.848      462.771        1.079        0.113      138.951       16.184        0.014      340.220       14.090      861.807
09/09/2013  06:27:00     -162.259      -36.830       -3.166       20.814       22.861       19.064      433.216      522.643      363.450        1.451        0.066      166.386        7.909        0.002      340.207       14.067      861.813
09/09/2013  06:28:00     -120.643      -51.641      -12.499       33.592       21.020       15.702     1128.428      441.833      246.542        0.960        0.091      131.231       11.101        0.007      340.269       14.171      861.820
09/09/2013  06:29:00     -117.283      -54.692       -0.276       42.465       36.861       22.960     1803.285     1358.714      527.158        1.022        0.184      129.408       19.198        0.022      340.226       14.100      861.822
09/09/2013  06:30:00      -90.464      -60.515        1.611       43.879       37.058       22.374     1925.384     1373.306      500.584        0.782        0.190      108.839       20.038        0.034      340.260       14.158      861.828
09/09/2013  06:31:00     -151.582      -89.357       -8.857       31.730       29.084       22.437     1006.770      845.897      503.419        1.670        0.118      175.959       19.665        0.012      340.225       14.098      861.849
09/09/2013  06:32:00     -143.098      -68.592       -0.825       41.016       34.847       25.574     1682.300     1214.342      654.042        1.437        0.178      158.688       18.121        0.013      340.221       14.092      861.855
09/09/2013  06:33:00     -171.480      -51.033       -7.796       38.942       25.012       18.453     1516.464      625.585      340.498        1.728        0.124      178.913       19.042        0.011      340.232       14.109      861.862
09/09/2013  06:34:00     -125.300      -38.977       -0.114       60.047       31.024       28.849     3605.655      962.482      832.249        1.131        0.270      131.223       33.187        0.064      340.199       14.054      861.863
09/09/2013  06:35:00     -115.725      -55.853       -1.793       48.979       32.566       20.174     2398.923     1060.533      407.001        1.019        0.193      128.499       18.633        0.021      340.166       13.999      861.866
09/09/2013  06:36:00     -113.486      -79.129      -11.658       24.639       30.643       16.091      607.092      938.965      258.931        1.054        0.090      138.349        9.076        0.004      340.233       14.113      861.879
09/09/2013  06:37:00     -121.186     -109.203       -7.814       40.399       38.433       32.596     1632.063     1477.071     1062.499        1.542        0.209      163.130       29.469        0.033      340.231       14.110      861.887
09/09/2013  06:38:00     -119.879      -93.008       -1.532       45.308       45.563       25.609     2052.825     2076.027      655.838        1.390        0.239      151.728       24.793        0.027      340.239       14.121      861.889
09/09/2013  06:39:00      -97.050      -91.152       -2.769       42.558       44.274       23.692     1811.157     1960.202      561.299        1.103        0.217      133.144       21.443        0.026      340.239       14.121      861.888
09/09/2013  06:40:00      -78.148      -71.976        3.538       44.447       38.378       27.759     1975.540     1472.842      770.589        0.776        0.211      106.243       27.954        0.069      340.237       14.119      861.888
09/09/2013  06:41:00     -115.490      -97.374       -2.092       37.001       45.393       25.810     1369.096     2060.493      666.175        1.346        0.205      151.061       18.146        0.014      340.235       14.114      861.896
09/09/2013  06:42:00     -149.211     -115.279      -18.058       34.372       51.620       25.937     1181.435     2664.580      672.745        2.020        0.226      188.555       19.812        0.011      340.172       14.008      861.894
09/09/2013  06:43:00     -168.145     -131.241      -18.608       51.284       51.700       31.579     2630.034     2672.921      997.224        2.607        0.315      213.300       23.178        0.012      340.109       13.900      861.890
09/09/2013  06:44:00     -133.924      -89.016       -1.300       51.120       47.937       31.392     2613.281     2297.966      985.459        1.588        0.295      160.809       24.971        0.024      340.064       13.826      861.895
09/09/2013  06:45:00     -144.404     -100.025      -20.538       52.059       49.660       30.146     2710.160     2466.095      908.809        1.868        0.304      175.663       19.996        0.013      340.086       13.863      861.909
09/09/2013  06:46:00     -131.053      -81.642       -7.838       68.856       48.782       34.034     4741.152     2379.667     1158.308        1.609        0.414      154.403       37.853        0.060      340.060       13.819      861.923
09/09/2013  06:47:00     -160.346     -101.769       -4.223       72.222       66.207       35.642     5215.955     4383.429     1270.364        2.348        0.543      189.915       38.952        0.042      340.027       13.762      861.920
09/09/2013  06:48:00     -177.227     -124.288      -15.941       46.070       45.791       34.533     2122.467     2096.859     1192.525        2.626        0.271      216.465       21.930        0.010      340.023       13.753      861.923
09/09/2013  06:49:00     -161.620     -134.697      -12.769       39.827       41.463       32.664     1586.158     1719.184     1066.964        2.440        0.219      210.391       25.207        0.014      340.046       13.794      861.919
09/09/2013  06:50:00     -169.533     -131.099      -14.291       53.496       46.985       32.398     2861.831     2207.550     1049.647        2.612        0.306      214.309       27.197        0.016      340.080       13.851      861.921
09/09/2013  06:51:00     -161.425      -93.529        0.094       58.739       42.675       33.950     3450.255     1821.117     1152.634        2.061        0.321      186.563       28.585        0.023      340.067       13.831      861.922
09/09/2013  06:52:00     -133.310      -94.132        5.219       59.106       44.123       35.524     3493.500     1946.817     1261.939        1.668        0.335      163.194       34.041        0.044      340.050       13.802      861.940
09/09/2013  06:53:00     -116.683      -86.181        6.479       51.241       50.345       28.627     2625.600     2534.659      819.496        1.353        0.299      145.059       24.175        0.028      340.113       13.909      861.951
09/09/2013  06:54:00     -120.137      -97.301       -4.410       51.418       36.849       28.231     2643.785     1357.839      796.972        1.436        0.240      154.597       29.737        0.037      340.084       13.859      861.956
09/09/2013  06:55:00      -68.861      -83.457        9.312       43.032       31.309       27.266     1851.755      980.273      743.456        0.768        0.179      108.199       22.235        0.042      340.135       13.945      861.968
09/09/2013  06:56:00     -104.489     -129.308      -10.171       41.716       38.438       24.122     1740.208     1477.467      581.865        1.577        0.190      166.249       20.251        0.015      340.168       14.003      861.977
09/09/2013  06:57:00     -173.811     -134.111      -13.067       38.484       47.486       28.215     1480.991     2254.881      796.077        2.645        0.227      219.536       17.946        0.007      340.162       13.989      861.990
09/09/2013  06:58:00      -80.463      -48.628        2.482       57.421       42.407       32.572     3297.173     1798.389     1060.933        0.750        0.308       94.016       29.902        0.101      340.129       13.936      862.007
09/09/2013  06:59:00     -111.405      -38.954       -8.986       54.654       44.327       36.579     2987.031     1964.925     1338.053        1.015        0.315      118.019       17.745        0.023      340.114       13.913      862.028
09/09/2013  07:00:00     -105.747      -37.688        4.004       65.747       46.282       34.020     4322.617     2141.987     1157.328        1.012        0.381      112.262       30.614        0.074      340.081       13.856      862.033
09/09/2013  07:01:00      -67.851      -44.794       16.586       80.642       49.962       42.520     6503.176     2496.226     1807.951        0.884        0.540       81.304       46.282        0.324      340.114       13.910      862.034
09/09/2013  07:02:00      -97.721      -37.440        4.297       75.379       53.471       36.919     5682.016     2859.127     1363.018        1.043        0.495      104.648       32.580        0.097      340.123       13.926      862.032
09/09/2013  07:03:00     -163.815     -102.744       -0.698       56.043       46.728       33.639     3140.794     2183.496     1131.565        2.192        0.323      193.369       29.147        0.023      340.089       13.866      862.031
09/09/2013  07:04:00     -160.568     -141.051       -5.134       58.999       46.401       38.174     3480.897     2153.084     1457.232        2.640        0.355      213.722       30.749        0.021      340.161       13.989      862.032
09/09/2013  07:05:00      -99.801      -92.687       -9.717       66.969       56.112       35.498     4484.913     3148.578     1260.132        1.377        0.445      136.203       32.906        0.058      340.240       14.122      862.037
09/09/2013  07:06:00     -119.656      -39.282      -11.163       51.870       39.522       23.011     2690.509     1561.970      529.506        1.038        0.239      125.939       16.186        0.017      340.211       14.076      862.046
09/09/2013  07:07:00      -36.782       -3.023       10.704       39.729       26.052       21.604     1578.411      678.713      466.716        0.210        0.136       36.906       20.528        0.309      340.347       14.304      862.058
09/09/2013  07:08:00      -58.622      -67.786       -6.216       36.957       27.742       27.098     1365.810      769.624      734.296        0.547        0.143       89.619       22.042        0.060      340.354       14.316      862.066
09/09/2013  07:09:00      -91.825      -79.724      -11.408       38.199       29.210       22.390     1459.182      853.214      501.324        0.887        0.141      121.605       18.287        0.023      340.330       14.275      862.061
09/09/2013  07:10:00      -71.760      -67.185       -0.748       46.783       37.400       25.549     2188.612     1398.746      652.748        0.695        0.212       98.302       25.825        0.069      340.386       14.372      862.067
09/09/2013  07:11:00      -41.160      -29.026        5.555       39.758       27.134       20.569     1580.735      736.255      423.082        0.265        0.137       50.365        8.611        0.029      340.425       14.436      862.071
09/09/2013  07:12:00      -24.017      -21.079        7.300       24.540       27.460       21.206      602.225      754.071      449.707        0.144        0.090       31.956       18.735        0.344      340.485       14.539      862.071
09/09/2013  07:13:00      -21.686      -23.919        4.169       24.753       29.420       16.708      612.731      865.518      279.163        0.141        0.088       32.286       15.493        0.230      340.492       14.550      862.083
09/09/2013  07:14:00      -86.717      -62.634      -10.860       39.292       20.996       18.442     1543.827      440.842      340.093        0.694        0.116      106.971       19.416        0.033      340.520       14.598      862.093
09/09/2013  07:15:00      -51.248      -79.938       -3.155       32.256       36.003       21.328     1040.435     1296.209      454.863        0.591        0.140       94.955       19.760        0.043      340.501       14.565      862.093
09/09/2013  07:16:00      -76.839     -113.966      -10.533       33.150       34.691       22.039     1098.916     1203.455      485.709        1.090        0.139      137.450       19.510        0.020      340.455       14.488      862.094
09/09/2013  07:17:00     -107.283     -119.759       -7.965       32.036       39.185       24.930     1026.300     1535.474      621.520        1.455        0.159      160.785       16.972        0.011      340.515       14.587      862.077
09/09/2013  07:18:00     -117.175      -91.989       -8.429       28.294       29.939       18.124      800.542      896.361      328.480        1.214        0.101      148.970       14.672        0.010      340.542       14.634      862.079
09/09/2013  07:19:00      -81.074      -61.672        0.547       41.006       39.108       21.606     1681.466     1529.470      466.839        0.703        0.184      101.865       18.767        0.034      340.608       14.745      862.078
09/09/2013  07:20:00      -91.480      -58.529        5.026       37.363       36.317       22.082     1395.969     1318.930      487.595        0.751        0.160      108.601       23.758        0.048      340.671       14.853      862.076
09/09/2013  07:21:00      -82.501      -86.273       -0.958       26.535       41.804       24.489      704.088     1747.544      599.720        0.865        0.153      119.371       17.476        0.021      340.636       14.794      862.078
09/09/2013  07:22:00      -72.810      -65.485        5.304       47.343       26.296       27.368     2241.391      691.495      749.034        0.665        0.184       97.926       25.491        0.068      340.670       14.851      862.069
09/09/2013  07:23:00     -124.582     -108.351       -5.525       36.118       41.207       21.943     1304.475     1698.013      481.511        1.539        0.174      165.108       19.017        0.013      340.604       14.738      862.067
09/09/2013  07:24:00     -119.317      -80.138        1.395       36.902       39.174       27.212     1361.721     1534.585      740.485        1.215        0.182      143.731       24.404        0.029      340.611       14.751      862.055
09/09/2013  07:25:00     -103.444      -78.211       -3.071       46.842       37.492       22.174     2194.139     1405.624      491.697        1.046        0.205      129.683       24.692        0.036      340.681       14.869      862.070
09/09/2013  07:26:00      -58.237      -62.769        6.469       43.657       31.394       26.559     1905.958      985.558      705.401        0.548        0.180       85.624       27.943        0.107      340.752       14.991      862.075
09/09/2013  07:27:00      -42.365      -59.305       -0.805       36.566       42.461       21.220     1337.068     1802.943      450.284        0.445        0.180       72.883       18.984        0.068      340.801       15.072      862.088
09/09/2013  07:28:00      -52.556      -67.364       -2.243       34.417       34.021       18.614     1184.555     1157.398      346.470        0.500        0.134       85.440       20.315        0.057      340.785       15.045      862.091
09/09/2013  07:29:00      -26.870      -47.938       -0.884       24.098       26.260       16.555      580.732      689.607      274.083        0.228        0.077       54.955       10.796        0.039      340.853       15.160      862.102
09/09/2013  07:30:00      -12.248      -25.043        9.272       33.047       18.726       22.395     1092.131      350.655      501.534        0.140        0.097       27.877       17.998        0.417      340.941       15.310      862.109
09/09/2013  07:31:00      -53.400      -56.264       -0.772       33.401       26.434       16.097     1115.598      698.761      259.117        0.405        0.104       77.571       20.978        0.073      340.920       15.272      862.117
09/09/2013  07:32:00      -71.629      -78.307       -6.897       31.813       22.595       22.264     1012.062      510.530      495.696        0.666        0.101      106.125       21.357        0.040      340.892       15.226      862.119
09/09/2013  07:33:00      -84.875      -69.098       -9.984       27.693       27.655       20.635      766.892      764.774      425.820        0.702        0.098      109.445       15.290        0.020      340.923       15.279      862.117
09/09/2013  07:34:00      -98.497      -97.858       -5.781       33.217       29.300       20.204     1103.402      858.474      408.213        1.084        0.119      138.845       18.105        0.017      340.816       15.099      862.109
09/09/2013  07:35:00      -83.466      -81.762       -3.104       48.031       46.177       19.552     2307.018     2132.341      382.297        0.924        0.241      116.840       18.705        0.026      340.871       15.191      862.098
09/09/2013  07:36:00      -91.325      -97.779       -7.473       27.776       19.890       16.537      771.519      395.615      273.464        0.970        0.072      133.795       15.391        0.013      340.834       15.126      862.102
09/09/2013  07:37:00     -104.408      -80.191       -4.383       34.398       22.582       20.054     1183.216      509.938      402.164        0.972        0.105      131.650       20.288        0.024      340.895       15.232      862.094
09/09/2013  07:38:00      -96.361      -85.717       -2.254       37.436       20.349       22.117     1401.422      414.101      489.175        0.947        0.115      128.968       19.766        0.023      340.929       15.288      862.092
09/09/2013  07:39:00      -68.208      -75.079       -7.129       25.112       31.708       15.006      630.633     1005.417      225.165        0.610        0.093      101.435       16.058        0.025      340.963       15.345      862.094
09/09/2013  07:40:00      -77.824      -27.137       -1.379       18.007       15.219       11.729      324.237      231.616      137.569        0.374        0.035       82.420        9.575        0.013      341.015       15.433      862.099
09/09/2013  07:41:00      -52.988      -46.716       -2.785       30.052       14.053       12.080      903.151      197.484      145.917        0.312        0.062       70.641       11.649        0.027      341.122       15.618      862.100
09/09/2013  07:42:00      -66.418      -78.171       -3.404       37.044       30.020       24.313     1372.264      901.215      591.105        0.670        0.143      102.578       20.660        0.041      341.113       15.600      862.108
09/09/2013  07:43:00      -80.840      -74.390        1.964       29.824       25.954       19.535      889.488      673.587      381.599        0.701        0.097      109.860       14.752        0.018      341.132       15.631      862.115
09/09/2013  07:44:00      -18.746      -36.185       15.942       22.793       27.301       20.210      519.534      745.358      408.452        0.179        0.084       40.752       12.428        0.093      341.271       15.868      862.123
09/09/2013  07:45:00      -71.488      -84.785       -0.305       38.417       34.993       22.814     1475.896     1224.537      520.465        0.776        0.161      110.901       21.970        0.039      341.146       15.656      862.130
09/09/2013  07:46:00      -72.068      -69.947      -10.369       41.003       33.905       27.202     1681.282     1149.559      739.930        0.688        0.179      100.431       24.175        0.058      341.160       15.680      862.136
09/09/2013  07:47:00      -93.229      -69.826        2.047       49.150       49.166       27.763     2415.684     2417.265      770.788        0.959        0.280      116.478       32.334        0.077      341.191       15.733      862.142
09/09/2013  07:48:00      -75.536      -78.383       -7.848       41.395       43.469       24.215     1713.539     1889.549      586.380        0.805        0.209      108.856       23.190        0.045      341.155       15.670      862.148
09/09/2013  07:49:00      -47.927      -19.186       -2.240       33.845       50.192       20.902     1145.480     2519.282      436.902        0.339        0.205       51.625       18.306        0.126      341.239       15.814      862.160
09/09/2013  07:50:00      -81.580      -31.786        6.683       45.247       31.678       22.459     2047.260     1003.468      504.397        0.563        0.178       87.553       19.163        0.048      341.279       15.881      862.174
09/09/2013  07:51:00      -77.197      -51.581       -2.632       31.918       29.303       19.401     1018.760      858.694      376.406        0.544        0.113       92.844       16.711        0.032      341.345       15.993      862.187
09/09/2013  07:52:00      -72.879      -70.955       -1.264       28.101       26.963       16.126      789.640      727.002      260.061        0.606        0.089      101.716       12.282        0.015      341.368       16.031      862.207
09/09/2013  07:53:00      -74.279      -62.235        6.143       38.394       27.016       23.286     1474.132      729.885      542.252        0.609        0.137       96.905       25.569        0.070      341.431       16.138      862.215
09/09/2013  07:54:00      -47.897      -56.118        2.906       36.663       32.753       22.819     1344.182     1072.786      520.713        0.419        0.147       73.779       20.884        0.080      341.450       16.170      862.219
09/09/2013  07:55:00      -55.768      -58.406       -0.076       32.265       29.225       18.676     1041.058      854.073      348.793        0.438        0.112       80.755        6.808        0.007      341.405       16.095      862.214
09/09/2013  07:56:00      -41.063       -7.218       -1.091       33.563       22.702       13.710     1126.487      515.378      187.965        0.178        0.091       41.692       14.176        0.116      341.510       16.274      862.216
09/09/2013  07:57:00      -43.289      -11.536       -6.983       24.204       13.085       20.770      585.828      171.221      431.375        0.162        0.059       44.800       18.618        0.173      341.630       16.477      862.220
09/09/2013  07:58:00      -35.954        6.279        7.119       19.792       19.233       19.041      391.730      369.910      362.554        0.125        0.056       36.498       13.537        0.138      341.689       16.576      862.220
09/09/2013  07:59:00      -34.202       -5.884       10.010       12.420       14.941       16.357      154.258      223.225      267.558        0.097        0.032       34.705        9.890        0.081      341.537       16.318      862.222
09/09/2013  08:00:00      -35.028       -9.220       -6.150       17.411       16.664       10.080      303.140      277.705      101.608        0.102        0.034       36.221        9.501        0.069      341.522       16.293      862.218
09/09/2013  08:01:00      -31.278       28.639       15.812       17.778       14.955       20.085      316.048      223.644      403.419        0.150        0.047       42.408        9.484        0.050      341.714       16.617      862.207
09/09/2013  08:02:00      -17.006        8.557       10.365       18.930       17.931       21.493      358.347      321.537      461.933        0.081        0.057       19.038       17.834        0.878      341.886       16.911      862.207
09/09/2013  08:03:00      -25.375        1.321       10.402       30.632       19.335       16.132      938.338      373.826      260.227        0.116        0.079       25.410       12.689        0.249      341.718       16.623      862.210
09/09/2013  08:04:00      -18.003        3.166        2.592       13.699       11.532       12.409      187.665      132.976      153.976        0.041        0.024       18.279        3.708        0.041      341.884       16.908      862.223
09/09/2013  08:05:00      -30.474        5.224        8.553       20.674       17.511       18.856      427.426      306.628      355.562        0.106        0.054       30.919       14.903        0.232      341.918       16.964      862.234
09/09/2013  08:06:00      -51.290       28.108       24.279       28.724       23.338       29.489      825.076      544.678      869.625        0.312        0.112       58.487       13.997        0.057      341.755       16.688      862.254
09/09/2013  08:07:00      -26.936       14.626       -2.180       16.966       22.009       22.680      287.852      484.403      514.390        0.112        0.064       30.651       14.856        0.235      341.842       16.836      862.258
09/09/2013  08:08:00      -46.560       10.027      -12.393       21.018       15.748       14.028      441.777      248.004      196.778        0.165        0.044       47.627        8.615        0.033      341.694       16.584      862.267
09/09/2013  08:09:00      -36.663        9.153        4.045       22.786       20.922       19.656      519.214      437.710      386.343        0.139        0.067       37.788       10.173        0.072      341.951       17.022      862.273
09/09/2013  08:10:00      -36.425      -13.792      -10.667       38.238       25.694       15.571     1462.168      660.204      242.457        0.200        0.118       38.949       12.589        0.104      341.770       16.714      862.265
09/09/2013  08:11:00      -28.979        2.203        6.016       40.218       17.533       22.665     1617.480      307.422      513.705        0.166        0.122       29.062       15.710        0.292      341.986       17.082      862.266
09/09/2013  08:12:00       -7.689        9.389       -8.848       33.461       21.342       16.771     1119.650      455.486      281.260        0.104        0.093       12.136        4.653        0.147      342.004       17.110      862.265
09/09/2013  08:13:00      -16.527      -11.376        8.849       38.444       18.866       17.408     1477.915      355.914      303.029        0.131        0.107       20.063       19.880        0.982      342.071       17.223      862.261
09/09/2013  08:14:00      -33.316        2.197       12.646       39.712       14.417       21.496     1577.081      207.846      462.080        0.176        0.112       33.388       20.536        0.378      342.204       17.451      862.259
09/09/2013  08:15:00       11.698        2.939       27.048       34.826       30.029       28.944     1212.820      901.714      837.738        0.191        0.148       12.062       26.105        4.684      342.440       17.852      862.252
09/09/2013  08:16:00        3.297        7.334       39.024       18.585       15.059       10.962      345.420      226.788      120.159        0.114        0.035        8.041        7.793        0.939      342.789       18.444      862.244
09/09/2013  08:17:00        6.202      -15.389       -8.933       28.247       20.682       22.123      797.899      427.753      489.447        0.103        0.086       16.592       17.698        1.138      342.004       17.111      862.245
09/09/2013  08:18:00      -20.497       13.693       12.322       19.993       20.627       19.848      399.718      425.475      393.925        0.099        0.061       24.650        9.001        0.133      342.364       17.722      862.237
09/09/2013  08:19:00      -21.196       -9.870        7.667       34.411       38.979       17.895     1184.095     1519.400      320.221        0.181        0.151       23.382       16.552        0.501      342.172       17.395      862.237
09/09/2013  08:20:00      -28.793      -38.525        4.185       33.617       30.702       19.423     1130.119      942.591      377.234        0.239        0.122       48.096       20.086        0.174      342.159       17.375      862.229
09/09/2013  08:21:00      -56.109      -61.318        5.657       28.973       26.348       18.166      839.433      694.239      329.998        0.440        0.093       83.115       18.931        0.052      341.959       17.033      862.235
09/09/2013  08:22:00      -38.146      -55.389        3.618       23.461       21.405       16.936      550.428      458.169      286.821        0.292        0.065       67.254       15.002        0.050      341.994       17.093      862.243
09/09/2013  08:23:00      -38.225      -27.704       -5.474       27.600       30.436       10.375      761.763      926.356      107.643        0.203        0.090       47.209        8.714        0.034      342.116       17.301      862.240
09/09/2013  08:24:00      -19.456      -31.694        1.304       16.498       31.706       11.707      272.192     1005.290      137.051        0.140        0.071       37.189        5.981        0.026      342.162       17.378      862.234
09/09/2013  08:25:00      -36.733      -19.959        2.691       18.728       21.086       14.339      350.721      444.633      205.619        0.138        0.050       41.805       14.203        0.115      342.306       17.624      862.233
09/09/2013  08:26:00      -23.879        3.154        4.468       15.398       12.405       14.366      237.109      153.885      206.374        0.060        0.030       24.086        9.151        0.144      342.538       18.019      862.229
09/09/2013  08:27:00      -41.788        5.813       16.246       24.669       13.730       13.508      608.552      188.526      182.475        0.151        0.049       42.190        6.186        0.021      342.317       17.642      862.242
09/09/2013  08:28:00      -24.778      -10.968       14.275       20.923       14.777       14.260      437.771      218.360      203.356        0.090        0.043       27.097        6.715        0.061      342.372       17.735      862.245
09/09/2013  08:29:00       19.871       -9.678        0.930       41.511       23.038       22.983     1723.172      530.732      528.238        0.164        0.139       22.103       21.937        0.985      342.211       17.462      862.253
09/09/2013  08:30:00       29.821      -24.942       -9.015       30.280       32.880       36.120      916.875     1081.127     1304.669        0.245        0.165       38.876       23.962        0.380      342.158       17.373      862.265
09/09/2013  08:31:00        2.400      -34.870      -12.070       26.687       23.358       19.367      712.171      545.611      375.096        0.150        0.082       34.952       16.464        0.222      341.869       16.880      862.279
09/09/2013  08:32:00       -5.041        2.567        2.346       24.301       14.509       11.488      590.559      210.505      131.983        0.049        0.047        5.656        7.618        1.814      342.459       17.885      862.280
09/09/2013  08:33:00        8.691       14.965       19.756       32.141       26.778       33.192     1033.029      717.036     1101.711        0.177        0.143       17.305       22.879        1.748      342.731       18.346      862.286
09/09/2013  08:34:00        1.549       26.879       48.880       23.570       21.612       13.066      555.558      467.086      170.723        0.215        0.060       26.923        9.305        0.119      343.047       18.884      862.278
09/09/2013  08:35:00        9.366      -27.770       -8.035       22.483       20.431       22.178      505.476      417.435      491.863        0.117        0.071       29.306       11.622        0.157      342.396       17.776      862.273
09/09/2013  08:36:00       24.905      -18.651       -1.833       39.798       18.450       24.233     1583.911      340.416      587.230        0.174        0.126       31.114       20.008        0.414      342.366       17.727      862.265
09/09/2013  08:37:00       -7.443      -10.796       12.918       15.730       12.579       14.671      247.439      158.242      215.231        0.048        0.031       13.113        9.985        0.580      342.597       18.118      862.263
09/09/2013  08:38:00       -5.210      -12.271        7.694        7.669       15.309       11.317       58.807      234.359      128.065        0.033        0.021       13.331       10.369        0.605      342.811       18.481      862.258
09/09/2013  08:39:00      -32.797      -37.556       -3.974       26.655       31.335       16.735      710.485      981.877      280.075        0.224        0.099       49.861       17.916        0.129      342.624       18.163      862.259
09/09/2013  08:40:00      -46.671      -65.367       -4.663       11.126       14.381       10.120      123.788      206.804      102.421        0.345        0.022       80.318        7.464        0.009      342.399       17.782      862.256
09/09/2013  08:41:00      -59.090      -51.518       -4.760       12.368       18.959       12.031      152.974      359.454      144.736        0.341        0.033       78.395        4.634        0.003      342.440       17.850      862.253
09/09/2013  08:42:00      -37.179       24.695       12.206       37.117       23.687       20.209     1377.697      561.052      408.417        0.224        0.117       44.633       11.380        0.065      342.845       18.541      862.251
09/09/2013  08:43:00      -20.888       -3.201       33.461       18.000       31.905       19.867      323.990     1017.917      394.682        0.165        0.087       21.132       18.631        0.777      343.034       18.863      862.248
09/09/2013  08:44:00       13.871       -3.720        6.258       36.361       29.212       24.187     1322.117      853.347      584.992        0.150        0.138       14.361       13.585        0.895      342.531       18.006      862.249
09/09/2013  08:45:00       49.869       -2.630        9.925       44.525       43.238       26.720     1982.498     1869.565      713.956        0.358        0.228       49.938       25.942        0.270      342.557       18.051      862.247
09/09/2013  08:46:00        6.116       -0.690       15.211       26.967       36.583       28.678      727.243     1338.306      822.438        0.158        0.144        6.155       20.161       10.728      342.736       18.355      862.248
09/09/2013  08:47:00       25.978       21.823       16.966       38.478       32.035       40.311     1480.589     1026.244     1624.960        0.278        0.207       33.928       31.017        0.836      342.651       18.211      862.250
09/09/2013  08:48:00        4.873      -20.572       21.650       22.191       33.721       27.793      492.444     1137.086      772.474        0.166        0.120       21.141       11.505        0.296      342.843       18.537      862.253
09/09/2013  08:49:00       20.148      -45.894        1.081       32.294       32.800       29.567     1042.888     1075.868      874.178        0.275        0.150       50.122       19.830        0.157      342.528       18.001      862.248
09/09/2013  08:50:00       24.832       -4.376        3.212       47.571       17.587       21.475     2262.967      309.299      461.197        0.184        0.152       25.214       13.438        0.284      342.695       18.285      862.240
09/09/2013  08:51:00        5.663        8.724       14.367       17.461       19.440       24.921      304.872      377.899      621.043        0.081        0.065       10.401       12.148        1.364      343.438       19.552      862.236
09/09/2013  08:52:00      -23.945       -4.798        8.471       22.317       17.094       12.175      498.061      292.217      148.223        0.080        0.047       24.421       12.009        0.242      343.212       19.164      862.234
09/09/2013  08:53:00       -7.972       11.404       10.206       24.074       23.685       19.941      579.539      560.964      397.629        0.092        0.077       13.915       13.871        0.994      343.268       19.261      862.229
09/09/2013  08:54:00       26.154        4.397        3.335       34.514       23.991       20.589     1191.235      575.555      423.894        0.145        0.110       26.521       12.866        0.235      342.660       18.226      862.224
09/09/2013  08:55:00       20.379        3.187       -7.383       21.881       21.028       13.491      478.762      442.175      181.997        0.079        0.055       20.626        7.343        0.127      342.793       18.452      862.233
09/09/2013  08:56:00        6.315       -4.231        1.811       25.200       18.406       23.267      635.035      338.794      541.367        0.079        0.076        7.601       18.894        6.178      343.437       19.548      862.223
09/09/2013  08:57:00      -17.672       -4.331        8.303       11.666       10.017        9.608      136.099      100.350       92.306        0.036        0.016       18.195        4.786        0.069      343.462       19.592      862.223
09/09/2013  08:58:00      -26.403      -17.087        0.377       19.646       16.908       15.144      385.968      285.884      229.348        0.095        0.045       31.450        7.663        0.059      343.290       19.297      862.221
09/09/2013  08:59:00        6.197       -5.913       17.252       33.570       23.042       22.785     1126.914      530.924      519.148        0.127        0.109        8.565       10.693        1.558      343.434       19.543      862.229
09/09/2013  09:00:00       -2.815       -3.838       18.177       27.592       18.050       21.581      761.322      325.797      465.743        0.095        0.078        4.760       19.324       16.482      343.645       19.904      862.226
09/09/2013  09:01:00       -0.366       -7.453       -0.065       28.594       19.457       22.914      817.612      378.591      525.071        0.089        0.086        7.462       14.452        3.750      343.385       19.460      862.222
09/09/2013  09:02:00       20.831       -8.652        2.022       21.375       32.891       23.893      456.880     1081.812      570.888        0.131        0.105       22.556       14.470        0.412      343.154       19.067      862.214
09/09/2013  09:03:00       12.145      -23.888      -11.862       19.958       29.838       18.862      398.334      890.278      355.792        0.125        0.082       26.798        7.322        0.075      343.179       19.109      862.202
09/09/2013  09:04:00      -18.204      -34.744       -0.692       21.070       16.984       12.019      443.936      288.461      144.448        0.121        0.044       39.224        9.031        0.053      343.446       19.564      862.192
09/09/2013  09:05:00      -14.621      -49.093       12.015       27.990       43.496       17.068      783.427     1891.917      291.323        0.287        0.148       51.224       18.350        0.128      343.693       19.985      862.179
09/09/2013  09:06:00      -70.950      -95.941      -10.455       31.617       21.034       17.008      999.632      442.412      289.259        0.804        0.087      119.326       16.097        0.018      343.404       19.491      862.170
09/09/2013  09:07:00      -32.102      -57.062       -1.874       20.905       24.159       15.247      437.010      583.666      232.463        0.277        0.063       65.472       10.578        0.026      343.456       19.581      862.170
09/09/2013  09:08:00      -17.678      -37.079       -7.257       10.611       17.201       12.877      112.589      295.861      165.816        0.116        0.029       41.078        6.414        0.024      343.505       19.665      862.166
09/09/2013  09:09:00      -14.546      -27.252        0.377       18.551       26.809       17.294      344.148      718.724      299.082        0.116        0.068       30.891       12.972        0.176      343.686       19.972      862.161
09/09/2013  09:10:00       -5.699        0.361       24.106       19.497       23.951       21.158      380.150      573.669      447.653        0.101        0.070        5.710       14.807        6.725      344.447       21.273      862.160
09/09/2013  09:11:00      -12.284       19.555       22.340       30.962       31.302       25.847      958.655      979.826      668.075        0.182        0.130       23.093       17.070        0.546      344.187       20.828      862.160
09/09/2013  09:12:00        8.908       10.241       38.299       31.341       30.473       26.216      982.249      928.625      687.275        0.212        0.130       13.573       11.857        0.763      344.312       21.040      862.156
09/09/2013  09:13:00       22.707       -3.205       23.130       38.925       30.119       31.790     1515.135      907.153     1010.596        0.225        0.172       22.932       11.154        0.237      343.834       20.226      862.163
09/09/2013  09:14:00       37.791       18.831       16.306       28.984       32.170       28.699      840.057     1034.913      823.630        0.237        0.135       42.222       25.666        0.370      343.867       20.282      862.166
09/09/2013  09:15:00        2.936      -17.200       22.773       20.961       17.566       15.337      439.344      308.558      235.222        0.090        0.049       17.449        6.687        0.147      343.847       20.249      862.171
09/09/2013  09:16:00      -27.221        0.208       -4.780       10.967       17.854       14.466      120.272      318.750      209.264        0.071        0.032       27.222       14.114        0.269      343.562       19.760      862.181
09/09/2013  09:17:00      -61.704       -2.106       12.095       27.743       33.323       19.036      769.683     1110.411      362.372        0.310        0.112       61.740       13.565        0.048      343.761       20.102      862.191
09/09/2013  09:18:00      -37.633       25.295        8.145       25.963       17.657       23.240      674.086      311.754      540.107        0.182        0.076       45.344       10.526        0.054      344.036       20.570      862.195
09/09/2013  09:19:00        8.682      -11.762      -16.747       36.053       18.748       17.075     1299.844      351.492      291.543        0.122        0.097       14.619        9.689        0.439      343.696       19.990      862.203
09/09/2013  09:20:00       40.245      -30.843        9.592       46.199       56.100       33.999     2134.326     3147.199     1155.960        0.455        0.322       50.705       27.296        0.290      343.648       19.909      862.210
09/09/2013  09:21:00       27.290        4.990       39.475       36.959       41.650       28.780     1365.938     1734.750      828.280        0.313        0.196       27.742       23.652        0.727      344.403       21.198      862.216
09/09/2013  09:22:00       53.073        2.717       32.903       48.981       35.843       32.984     2399.135     1284.726     1087.945        0.434        0.239       53.142       33.195        0.390      343.894       20.329      862.214
09/09/2013  09:23:00        0.857      -16.528       15.710       38.858       42.672       44.432     1509.939     1820.900     1974.192        0.291        0.265       16.550       23.315        1.985      343.912       20.359      862.212
09/09/2013  09:24:00        6.436       16.128       61.573       27.203       32.438       22.891      739.992     1052.230      524.010        0.320        0.116       17.365       10.299        0.352      344.815       21.902      862.209
09/09/2013  09:25:00       11.764       56.473       57.553       41.496       42.434       36.954     1721.937     1800.648     1365.622        0.576        0.244       57.685       32.970        0.327      343.941       20.409      862.208
09/09/2013  09:26:00       -7.081       31.651       44.761       16.909       30.697       27.020      285.920      942.331      730.089        0.251        0.098       32.434       14.984        0.213      344.274       20.977      862.197
09/09/2013  09:27:00        9.897       10.503       48.105       43.903       22.469       24.531     1927.490      504.835      601.752        0.278        0.152       14.432       16.098        1.244      344.608       21.548      862.187
09/09/2013  09:28:00       39.628       42.960       36.073       41.196       31.021       28.351     1697.105      962.283      803.765        0.409        0.173       58.446       20.836        0.127      344.461       21.296      862.182
09/09/2013  09:29:00       48.472       35.225       28.976       48.045       30.198       20.498     2308.295      911.914      420.179        0.403        0.182       59.919        9.025        0.023      344.526       21.408      862.174
09/09/2013  09:30:00       21.718        4.952       36.507       37.675       38.515       20.075     1419.379     1483.384      403.004        0.257        0.165       22.276       21.757        0.954      344.349       21.105      862.161
09/09/2013  09:31:00       24.829      -60.975       -9.945       38.168       55.191       34.559     1456.763     3046.095     1194.312        0.506        0.285       65.836       25.443        0.149      343.655       19.918      862.146
09/09/2013  09:32:00       46.493      -63.001        3.432       54.794       60.039       38.492     3002.400     3604.704     1481.623        0.711        0.404       78.299       32.427        0.172      344.391       21.177      862.135
09/09/2013  09:33:00        7.320       32.488       57.674       37.884       43.113       24.895     1435.221     1858.755      619.762        0.417        0.196       33.303       22.701        0.465      344.492       21.350      862.137
09/09/2013  09:34:00       -7.734      -27.828       12.928       28.858       43.087       25.821      832.780     1856.495      666.700        0.218        0.168       28.882       21.592        0.559      344.481       21.331      862.121
09/09/2013  09:35:00       16.696        2.583       36.503       24.500       38.122       30.914      600.240     1453.289      955.693        0.231        0.150       16.895       26.536        2.467      344.959       22.150      862.119
09/09/2013  09:36:00      -12.949        9.354       -5.819       35.315       24.443       33.006     1247.147      597.461     1089.379        0.161        0.147       15.974       24.418        2.336      344.381       21.160      862.116
09/09/2013  09:37:00        6.860      -24.524       10.893       35.114       42.216       25.339     1232.969     1782.208      642.055        0.221        0.183       25.465       24.963        0.961      344.271       20.972      862.109
09/09/2013  09:38:00       35.629      -15.475       18.438       40.354       36.035       36.594     1628.472     1298.545     1339.091        0.306        0.213       38.844       30.180        0.604      344.404       21.200      862.117
09/09/2013  09:39:00       21.689       31.542       29.676       32.254       26.957       26.488     1040.300      726.685      701.597        0.241        0.123       38.279       14.459        0.143      344.522       21.399      862.119
09/09/2013  09:40:00       16.158        3.928       45.950       41.882       47.790       36.354     1754.099     2283.928     1321.645        0.387        0.268       16.629       22.056        1.759      344.790       21.859      862.113
09/09/2013  09:41:00       80.153      -94.256       -4.453       55.284       63.452       36.606     3056.349     4026.208     1339.975        1.187        0.421      123.728       29.589        0.057      344.367       21.135      862.114
09/09/2013  09:42:00       17.906        1.563       38.479       58.245       89.049       66.104     3392.446     7929.682     4369.708        0.874        0.785       17.974       72.345       16.201      344.630       21.586      862.120
09/09/2013  09:43:00       27.345       -3.640       47.437       36.039       36.174       30.806     1298.839     1308.593      948.997        0.328        0.178       27.586       25.746        0.871      344.832       21.931      862.132
09/09/2013  09:44:00       11.027        5.180       30.083       35.737       45.892       28.778     1277.119     2106.090      828.188        0.263        0.211       12.184       16.655        1.869      344.692       21.690      862.122
09/09/2013  09:45:00       62.093      -23.727       21.927       58.988       46.829       36.941     3479.569     2192.960     1364.669        0.597        0.352       66.472       34.496        0.269      344.462       21.299      862.114
09/09/2013  09:46:00       53.786      -46.793       12.041       51.579       43.647       44.878     2660.410     1905.072     2014.066        0.590        0.329       71.292       24.147        0.115      344.230       20.901      862.101
09/09/2013  09:47:00       52.733      -23.584       11.646       53.704       48.918       42.516     2884.071     2392.927     1807.581        0.528        0.354       57.767       37.355        0.418      344.233       20.906      862.098
09/09/2013  09:48:00       46.984      -20.289       12.594       44.782       44.507       35.766     2005.394     1980.891     1279.234        0.402        0.263       51.178       27.908        0.297      344.336       21.083      862.098
09/09/2013  09:49:00       16.159       10.519       21.701       29.841       36.292       31.791      890.483     1317.122     1010.651        0.203        0.161       19.281       31.590        2.684      344.489       21.346      862.084
09/09/2013  09:50:00      -13.513       -4.200        7.845       22.112       23.006       19.209      488.960      529.261      368.976        0.082        0.069       14.150       14.354        1.029      344.698       21.702      862.080
09/09/2013  09:51:00       -2.317       -8.830       15.071       39.369       29.496       21.978     1549.898      869.986      483.018        0.161        0.145        9.129       11.345        1.544      344.667       21.650      862.070
09/09/2013  09:52:00       25.534      -27.895       17.335       42.986       39.151       42.387     1847.803     1532.811     1796.646        0.345        0.259       37.817       27.200        0.517      344.585       21.508      862.066
09/09/2013  09:53:00       84.798       79.191       56.404       68.363       51.398       40.750     4673.453     2641.775     1660.544        1.281        0.449      116.026       26.630        0.053      344.572       21.488      862.053
09/09/2013  09:54:00       36.584      -14.389       46.509       55.361       60.777       29.617     3064.800     3693.827      877.158        0.567        0.382       39.312       19.834        0.255      344.615       21.558      862.049
09/09/2013  09:55:00       73.966       57.109       37.355       76.970       46.669       22.668     5924.316     2178.008      513.848        0.937        0.431       93.447       26.941        0.083      344.833       21.932      862.044
09/09/2013  09:56:00       85.650       52.674       23.035       58.795       35.869       33.816     3456.795     1286.566     1143.539        0.826        0.294      100.551       27.939        0.077      344.887       22.023      862.042
09/09/2013  09:57:00       99.652       52.237       11.107       27.807       29.439       33.099      773.214      866.632     1095.575        0.776        0.137      112.514       18.431        0.027      344.808       21.890      862.034
09/09/2013  09:58:00       14.253       19.890       27.889       35.200       56.669       33.536     1239.032     3211.364     1124.648        0.347        0.279       24.470       25.977        1.127      345.117       22.418      862.038
09/09/2013  09:59:00        6.404      -13.232       31.671       19.075       29.829       18.149      363.841      889.776      329.388        0.140        0.079       14.701       16.545        1.267      345.529       23.126      862.022
09/09/2013  10:00:00        4.915       15.555       50.286       22.646       33.080       21.859      512.834     1094.285      477.807        0.244        0.104       16.313       22.389        1.884      345.426       22.948      862.024
09/09/2013  10:01:00       20.956        8.908       34.996       30.508       40.764       30.415      930.734     1661.670      925.094        0.263        0.176       22.771       32.091        1.986      345.058       22.318      862.006
09/09/2013  10:02:00       13.317       27.228       28.901       31.741       27.136       30.055     1007.481      736.378      903.275        0.220        0.132       30.310       20.977        0.479      345.254       22.654      861.995
09/09/2013  10:03:00       33.245        6.977       11.819       28.947       40.862       28.091      837.946     1669.678      789.086        0.229        0.165       33.969       13.832        0.166      345.426       22.949      861.986
09/09/2013  10:04:00       64.091       54.375       -3.549       38.911       36.068       24.765     1514.075     1300.913      613.326        0.525        0.171       84.049        8.500        0.010      345.266       22.673      861.970
09/09/2013  10:05:00       70.814       52.545       13.148       52.274       39.049       26.064     2732.526     1524.846      679.310        0.644        0.247       88.179       15.902        0.033      345.251       22.649      861.959
09/09/2013  10:06:00      105.635       54.873       -1.965       20.665       19.347       24.589      427.025      374.315      604.621        0.779        0.070      119.037        4.768        0.002      344.737       21.769      861.946
09/09/2013  10:07:00      107.119       44.745       -6.244       52.578       31.372       35.896     2764.435      984.175     1288.499        0.928        0.252      116.089       12.121        0.011      345.061       22.322      861.941
09/09/2013  10:08:00      119.327       71.936       -0.396       35.692       25.066       26.077     1273.950      628.317      680.002        1.100        0.129      139.333       10.908        0.006      344.927       22.093      861.923
09/09/2013  10:09:00       85.907       62.134        1.215       48.271       28.874       25.145     2330.120      833.717      632.271        0.752        0.190      106.022        8.604        0.007      345.136       22.453      861.918
09/09/2013  10:10:00       80.554       76.442       -6.841       26.184       25.850       26.111      685.576      668.220      681.781        0.721        0.102      111.051       14.375        0.017      345.021       22.253      861.909
09/09/2013  10:11:00       48.741       47.040       12.540       28.083       25.583       31.883      788.637      654.514     1016.532        0.360        0.123       67.738       19.612        0.084      345.056       22.313      861.897
09/09/2013  10:12:00       -1.523       20.194       18.279       22.933       35.849       20.893      525.907     1285.171      436.509        0.150        0.112       20.252       17.702        0.764      345.526       23.119      861.887
09/09/2013  10:13:00       -8.386        6.191       26.169       26.241       20.320       16.006      688.615      412.901      256.181        0.108        0.068       10.423       11.096        1.133      345.742       23.491      861.871
09/09/2013  10:14:00        5.580       30.517       33.051       46.595       30.301       33.531     2171.138      918.143     1124.339        0.313        0.211       31.023       19.500        0.395      345.416       22.931      861.862
09/09/2013  10:15:00       45.361       45.873       39.258       59.654       60.069       38.918     3558.640     3608.278     1514.587        0.719        0.434       64.513       33.677        0.273      345.549       23.158      861.854
09/09/2013  10:16:00       75.880       89.782       70.526       42.867       51.036       32.889     1837.612     2604.679     1081.703        1.216        0.276      117.553       19.161        0.027      345.402       22.906      861.853
09/09/2013  10:17:00       33.514       67.657       18.342       29.009       28.090       26.136      841.527      789.047      683.068        0.417        0.116       75.503       19.559        0.067      345.201       22.561      861.856
09/09/2013  10:18:00      -11.341        1.791        4.723       22.853       18.223       27.726      522.255      332.076      768.710        0.089        0.081       11.482       16.277        2.010      345.486       23.052      861.858
09/09/2013  10:19:00        2.225      -24.859      -18.523       15.392       14.342       12.919      236.922      205.707      166.898        0.079        0.030       24.958        9.062        0.132      345.269       22.679      861.852
09/09/2013  10:20:00       -7.551      -47.046      -12.944       20.917       21.057       22.305      437.531      443.402      497.501        0.191        0.069       47.648       19.725        0.171      345.145       22.467      861.858
09/09/2013  10:21:00      -25.817      -27.897        8.786       16.658       20.230       18.078      277.482      409.264      326.807        0.127        0.051       38.010       12.324        0.105      345.362       22.838      861.859
09/09/2013  10:22:00       52.494       51.965       60.700       37.350       33.806       26.938     1394.994     1142.861      725.649        0.620        0.163       73.865       15.154        0.042      345.751       23.506      861.861
09/09/2013  10:23:00        5.535       65.598       86.283       34.237       44.941       44.141     1172.180     2019.700     1948.413        0.846        0.257       65.831       37.438        0.323      345.722       23.456      861.850
09/09/2013  10:24:00       70.247       34.411       63.103       45.352       32.605       39.796     2056.820     1063.110     1583.710        0.740        0.235       78.223       27.253        0.121      345.376       22.861      861.862
09/09/2013  10:25:00       64.530      -10.963       30.916       34.816       48.310       41.324     1212.141     2333.844     1707.656        0.525        0.263       65.455       38.343        0.343      345.306       22.743      861.850
09/09/2013  10:26:00       34.031       48.783       31.513       46.577       48.386       41.731     2169.435     2341.248     1741.465        0.539        0.313       59.480       17.302        0.085      345.765       23.530      861.830
09/09/2013  10:27:00       46.157      -37.053       11.650       46.419       53.703       42.282     2154.757     2883.972     1787.795        0.523        0.341       59.189       37.781        0.407      346.046       24.012      861.820
09/09/2013  10:28:00       26.626      -56.187        8.384       39.195       56.920       32.138     1536.210     3239.896     1032.879        0.487        0.290       62.177       34.360        0.305      345.967       23.876      861.821
09/09/2013  10:29:00       20.695      -37.215       10.185       32.803       39.073       32.104     1076.056     1526.678     1030.673        0.277        0.182       42.582       26.554        0.389      345.917       23.791      861.808
09/09/2013  10:30:00       -6.120      -88.786        1.633       38.982       42.634       30.867     1519.621     1817.616      952.782        0.611        0.215       88.996       20.809        0.055      345.762       23.524      861.793
09/09/2013  10:31:00       15.763       30.299       81.637       37.766       45.522       31.229     1426.238     2072.294      975.246        0.615        0.224       34.155       31.010        0.824      346.188       24.255      861.785
09/09/2013  10:32:00       72.381       66.615       97.061       72.443       83.066       57.314     5247.946     6899.968     3284.888        1.726        0.772       98.370       60.151        0.374      345.778       23.552      861.776
09/09/2013  10:33:00       67.156       43.197       71.931       75.604       56.162       40.428     5716.035     3154.190     1634.387        1.103        0.525       79.849       40.449        0.257      345.699       23.417      861.769
09/09/2013  10:34:00       12.250       84.955      107.447       50.225       63.315       52.686     2522.540     4008.798     2775.859        1.411        0.465       85.833       43.754        0.260      345.927       23.807      861.752
09/09/2013  10:35:00      133.745       83.895       26.982       68.270       47.654       43.175     4660.789     2270.941     1864.069        1.722        0.440      157.880       27.920        0.031      345.424       22.943      861.756
09/09/2013  10:36:00       45.012       33.751       51.079       53.605       59.507       37.422     2873.462     3541.060     1400.384        0.679        0.391       56.260       21.559        0.147      345.814       23.614      861.746
09/09/2013  10:37:00       54.005       48.791       47.497       61.586       44.031       34.114     3792.861     1938.725     1163.740        0.722        0.345       72.781       30.513        0.176      345.947       23.842      861.749
09/09/2013  10:38:00       71.123       64.144       37.255       50.133       30.294       39.958     2513.358      917.707     1596.646        0.779        0.251       95.775       19.442        0.041      345.838       23.655      861.741
09/09/2013  10:39:00       56.666      -21.692       18.646       44.591       61.997       38.451     1988.391     3843.612     1478.497        0.567        0.366       60.676       39.486        0.423      346.011       23.953      861.748
09/09/2013  10:40:00       19.786      -34.452        5.559       32.256       33.489       29.774     1040.480     1121.531      886.498        0.233        0.152       39.729       23.127        0.339      345.927       23.808      861.737
09/09/2013  10:41:00       -4.392       -8.478       11.008       29.113       34.596       40.197      847.538     1196.871     1615.775        0.194        0.183        9.548       32.207       11.378      346.246       24.355      861.733
09/09/2013  10:42:00       61.927       28.124       48.429       71.209       38.834       37.331     5070.687     1508.102     1393.623        0.747        0.399       68.014       21.629        0.101      346.215       24.303      861.718
09/09/2013  10:43:00       65.186       94.440      106.915       66.886       63.652       51.721     4473.674     4051.563     2675.063        1.790        0.560      114.752       45.999        0.161      345.685       23.392      861.720
09/09/2013  10:44:00       32.551       48.023       81.186       54.908       77.283       45.691     3014.856     5972.615     2087.688        1.051        0.554       58.015       57.691        0.989      345.979       23.896      861.716
09/09/2013  10:45:00       16.375        4.369       50.093       31.699       37.427       22.437     1004.811     1400.749      503.418        0.285        0.145       16.948       17.395        1.053      346.514       24.817      861.710
09/09/2013  10:46:00       85.120       68.545       33.305       57.210       31.378       39.755     3272.973      984.589     1580.489        0.944        0.292      109.288       32.423        0.088      346.058       24.032      861.710
09/09/2013  10:47:00       45.210       38.372       49.414       32.614       28.612       36.323     1063.701      818.623     1319.370        0.458        0.160       59.299       23.083        0.152      346.214       24.302      861.695
09/09/2013  10:48:00       82.909       85.775       24.482       75.910       65.326       40.627     5762.329     4267.534     1650.546        1.325        0.584      119.294       37.109        0.097      346.195       24.266      861.695
09/09/2013  10:49:00      111.004       74.423       12.506       31.824       47.492       54.020     1012.759     2255.533     2918.173        1.210        0.309      133.644       31.606        0.056      345.705       23.427      861.690
09/09/2013  10:50:00      108.197       78.206       63.199       71.536       56.127       64.815     5117.407     3150.242     4201.010        1.714        0.623      133.502       46.259        0.120      345.828       23.636      861.678
09/09/2013  10:51:00       93.909       86.187       42.386       47.929       31.384       50.115     2297.160      984.927     2511.543        1.192        0.290      127.464       33.154        0.068      345.712       23.438      861.683
09/09/2013  10:52:00       30.912       13.903        2.481       32.378       50.282       24.242     1048.325     2528.283      587.679        0.266        0.208       33.894       17.950        0.280      345.966       23.875      861.673
09/09/2013  10:53:00       -1.841        3.710       38.549       46.261       60.937       49.606     2140.070     3713.273     2460.798        0.491        0.416        4.142       49.672      143.813      346.222       24.314      861.672
09/09/2013  10:54:00       98.497       33.115       70.848       65.748       69.015       57.873     4322.843     4763.098     3349.235        1.412        0.622      103.915       55.143        0.282      346.024       23.974      861.659
09/09/2013  10:55:00       56.919      -36.758       37.969       54.261       83.960       50.735     2944.261     7049.350     2574.000        0.930        0.628       67.756       58.572        0.747      346.186       24.252      861.659
09/09/2013  10:56:00       63.392      -47.285       27.247       44.952       83.577       46.322     2020.709     6985.062     2145.725        0.907        0.558       79.085       50.585        0.409      346.255       24.371      861.650
09/09/2013  10:57:00       46.212      -72.366       20.016       53.051       90.169       42.378     2814.371     8130.448     1795.930        1.025        0.637       85.863       57.312        0.446      346.004       23.940      861.644
09/09/2013  10:58:00        5.462     -100.308       -0.536       38.572       51.645       30.787     1487.794     2667.256      947.809        0.760        0.255      100.456       31.143        0.096      346.339       24.515      861.635
09/09/2013  10:59:00       34.934       55.697       79.362       67.959       66.831       51.627     4618.415     4466.373     2665.341        1.118        0.588       65.746       52.736        0.643      346.488       24.772      861.622
09/09/2013  11:00:00      146.778       84.568       47.488       67.687       52.028       50.012     4581.540     2706.953     2501.153        2.037        0.489      169.398       45.510        0.072      345.881       23.727      861.612
09/09/2013  11:01:00       35.960       22.745        2.215       42.755       35.493       26.751     1827.955     1259.778      715.625        0.281        0.190       42.549       19.198        0.204      346.431       24.674      861.590
09/09/2013  11:02:00       47.741       31.580       30.738       44.354       26.198       35.734     1967.281      686.328     1276.898        0.408        0.197       57.241       10.874        0.036      346.825       25.352      861.580
09/09/2013  11:03:00       52.116       34.325       32.511       49.173       31.459       35.776     2417.939      989.692     1279.914        0.482        0.234       62.404       28.603        0.210      346.727       25.184      861.562
09/09/2013  11:04:00       26.353        4.114        6.987       50.627       44.660       26.401     2563.095     1994.483      697.001        0.301        0.263       26.672       18.741        0.494      346.655       25.058      861.544
09/09/2013  11:05:00       41.069       29.443       40.203       62.094       62.479       49.278     3855.639     3903.644     2428.360        0.718        0.509       50.533       50.400        0.995      346.606       24.977      861.541
09/09/2013  11:06:00       67.385       60.650       30.760       36.529       29.270       33.062     1334.391      856.739     1093.082        0.622        0.164       90.659       14.130        0.024      346.264       24.386      861.526
09/09/2013  11:07:00       64.777       57.330        6.020       19.944       26.991       25.333      397.767      728.507      641.765        0.464        0.088       86.503       13.613        0.025      346.269       24.395      861.512
09/09/2013  11:08:00       17.115       71.228        8.065       31.353       55.291       32.365      983.009     3057.116     1047.520        0.526        0.254       73.255       32.691        0.199      346.502       24.796      861.494
09/09/2013  11:09:00       42.230       41.180        3.305       26.074       22.141       22.034      679.850      490.216      485.484        0.257        0.083       58.985       12.630        0.046      346.311       24.469      861.487
09/09/2013  11:10:00        9.845      -62.585        6.186       36.237       50.120       25.011     1313.091     2511.979      625.528        0.425        0.223       63.354       15.891        0.063      346.426       24.665      861.481
09/09/2013  11:11:00       45.697       71.843       83.032       71.283       84.512       58.429     5081.313     7142.336     3413.982        1.489        0.782       85.145       60.101        0.498      346.465       24.732      861.459
09/09/2013  11:12:00       34.000       17.041       42.360       37.400       29.448       35.495     1398.782      867.185     1259.926        0.338        0.176       38.031       20.410        0.288      346.699       25.134      861.458
09/09/2013  11:13:00       95.570       85.062       32.895       46.722       36.971       42.291     2182.942     1366.875     1788.543        1.139        0.267      127.942       15.485        0.015      346.262       24.384      861.441
09/09/2013  11:14:00       55.763       27.884       21.466       47.837       71.816       43.943     2288.398     5157.549     1931.022        0.686        0.469       62.346       17.574        0.079      346.432       24.675      861.429
09/09/2013  11:15:00       22.287     -107.549       -4.101       47.749       42.579       26.250     2279.955     1812.949      689.040        0.843        0.239      109.834        5.658        0.003      346.115       24.131      861.423
09/09/2013  11:16:00       39.622       44.743       -5.776       72.090       54.537       27.563     5197.038     2974.338      759.709        0.627        0.447       59.765       16.550        0.077      346.625       25.007      861.403
09/09/2013  11:17:00      160.235      101.503        8.366       65.241       43.944       46.895     4256.396     1931.051     2199.103        2.222        0.419      189.679       28.595        0.023      346.506       24.801      861.395
09/09/2013  11:18:00       94.848       56.586       17.211       55.794       46.564       36.833     3112.973     2168.248     1356.699        0.956        0.332      110.445       15.642        0.020      346.464       24.731      861.376
09/09/2013  11:19:00       23.134       47.896      -13.273       52.717       36.660       24.629     2779.094     1343.967      606.610        0.387        0.236       53.190        7.682        0.021      346.493       24.780      861.367
09/09/2013  11:20:00      132.283      101.666       52.266       72.325       64.923       51.033     5230.869     4215.022     2604.356        2.131        0.603      166.838       32.301        0.037      346.481       24.757      861.344
09/09/2013  11:21:00       91.647      104.819       -2.749       49.035       46.114       38.062     2404.388     2126.545     1448.700        1.269        0.299      139.234       18.063        0.017      346.259       24.378      861.326
09/09/2013  11:22:00       50.089       27.224       15.881       39.339       60.103       37.237     1547.539     3612.386     1386.566        0.502        0.327       57.009       21.034        0.136      346.812       25.330      861.321
09/09/2013  11:23:00       33.730       11.734       62.603       48.217       64.801       55.494     2324.878     4199.194     3079.547        0.740        0.480       35.713       45.945        1.655      346.952       25.571      861.308
09/09/2013  11:24:00      -17.180       -9.632       22.818       34.917       51.954       43.489     1219.191     2699.235     1891.259        0.336        0.290       19.696       36.829        3.497      346.933       25.537      861.314
09/09/2013  11:25:00       19.290       54.832       20.581       82.572       52.730       35.538     6818.079     2780.436     1262.929        0.733        0.543       58.126       32.208        0.307      346.634       25.023      861.300
09/09/2013  11:26:00       32.842       74.734       82.133       51.944       43.358       31.385     2698.157     1879.886      985.046        0.949        0.278       81.632       32.029        0.154      346.840       25.377      861.306
09/09/2013  11:27:00       54.057       69.878       49.472       59.466       42.372       42.135     3536.166     1795.349     1775.374        0.868        0.355       88.347       42.307        0.229      346.651       25.051      861.293
09/09/2013  11:28:00       25.897       10.602       10.500       36.182       33.754       24.253     1309.114     1139.332      588.230        0.196        0.152       27.983       24.838        0.788      347.279       26.133      861.295
09/09/2013  11:29:00       41.750       56.186       41.801       48.543       42.612       36.260     2356.443     1815.777     1314.772        0.607        0.274       70.000       22.206        0.101      347.121       25.861      861.280
09/09/2013  11:30:00      180.271      129.587       46.539       80.579       51.035       47.307     6492.981     2604.553     2237.909        3.139        0.567      222.015       33.250        0.022      346.637       25.025      861.270
09/09/2013  11:31:00      177.693      119.359       36.628       92.109       76.844       72.487     8484.158     5905.001     5254.408        3.340        0.982      214.059       50.584        0.056      346.546       24.869      861.249
09/09/2013  11:32:00      130.281       86.631       56.765       59.039       58.553       50.851     3485.599     3428.468     2585.855        1.860        0.475      156.455       41.433        0.070      346.586       24.940      861.254
09/09/2013  11:33:00       84.628       51.531       27.293       37.480       34.403       45.498     1404.760     1183.585     2070.097        0.761        0.233       99.083       28.305        0.082      346.754       25.229      861.249
09/09/2013  11:34:00      122.121      100.586       67.995       54.499       47.034       46.522     2970.177     2212.206     2164.284        1.850        0.367      158.212       33.579        0.045      346.887       25.458      861.229
09/09/2013  11:35:00       94.564       84.871       47.114       66.982       57.364       58.662     4486.591     3290.580     3441.260        1.479        0.561      127.065       43.278        0.116      346.974       25.607      861.230
09/09/2013  11:36:00      131.353       76.062       57.591       76.057       65.694       43.363     5784.697     4315.690     1880.360        1.917        0.599      151.786       32.661        0.046      346.738       25.201      861.222
09/09/2013  11:37:00       66.594       52.338       15.466       46.001       50.765       47.670     2116.049     2577.081     2272.382        0.719        0.348       84.699       24.269        0.082      346.679       25.101      861.214
09/09/2013  11:38:00       25.849       29.707       -7.575       33.086       27.412       23.995     1094.680      751.439      575.775        0.201        0.121       39.379       17.165        0.190      346.828       25.356      861.210
09/09/2013  11:39:00       65.287       88.299       -2.711       59.762       55.509       42.454     3571.546     3081.263     1802.341        1.026        0.423      109.814       27.430        0.062      346.763       25.245      861.195
09/09/2013  11:40:00      113.180      101.568       -2.676       72.853       60.066       46.004     5307.589     3607.961     2116.324        1.708        0.552      152.071       34.630        0.052      346.705       25.143      861.187
09/09/2013  11:41:00      123.366       93.655       25.003       53.622       49.913       45.179     2875.317     2491.269     2041.124        1.601        0.370      154.888       29.146        0.035      346.799       25.306      861.176
09/09/2013  11:42:00      135.522       56.238       13.745       83.277       52.148       42.226     6935.140     2719.378     1783.040        1.658        0.572      146.727       33.739        0.053      347.092       25.809      861.165
09/09/2013  11:43:00      143.889       94.216       32.830       82.512       50.182       60.102     6808.281     2518.273     3612.260        2.180        0.647      171.990       21.038        0.015      347.150       25.909      861.162
09/09/2013  11:44:00      129.775       77.554       37.817      118.085       62.170       61.663    13943.954     3865.141     3802.329        2.294        1.081      151.183       49.579        0.108      347.050       25.736      861.158
09/09/2013  11:45:00       50.853       67.259       46.522       49.756       46.293       38.191     2475.630     2143.031     1458.557        0.767        0.304       84.319       30.088        0.127      347.292       26.155      861.142
09/09/2013  11:46:00       70.728       24.524       21.189       97.881       78.566       44.935     9580.632     6172.620     2019.152        1.191        0.889       74.859       28.967        0.150      347.457       26.439      861.146
09/09/2013  11:47:00       81.548      137.083      147.238       98.087       79.092       57.408     9621.056     6255.564     3295.647        3.314        0.959      159.505       51.044        0.102      346.773       25.258      861.123
09/09/2013  11:48:00      195.235      146.153      128.116       99.241       73.517       83.205     9848.851     5404.679     6923.092        4.903        1.109      243.880       61.610        0.064      346.553       24.879      861.120
09/09/2013  11:49:00      142.561      101.546       69.521       90.988       59.006       47.141     8278.877     3481.740     2222.299        2.472        0.699      175.030       41.283        0.056      346.816       25.333      861.126
09/09/2013  11:50:00       86.995       89.259       96.108       72.464       67.199       48.719     5251.020     4515.698     2373.503        1.845        0.607      124.641       29.701        0.057      346.995       25.644      861.124
09/09/2013  11:51:00       79.627       23.776       40.524       62.287       56.953       36.221     3879.712     3243.700     1311.952        0.849        0.422       83.101       34.148        0.169      346.935       25.541      861.127
09/09/2013  11:52:00       56.649       39.129       27.920       55.115       43.112       34.976     3037.701     1858.612     1223.330        0.582        0.306       68.849       21.057        0.094      347.365       26.281      861.120
09/09/2013  11:53:00       90.795       82.773       41.331       66.255       52.676       45.151     4389.693     2774.755     2038.624        1.300        0.460      122.862       27.522        0.050      347.335       26.229      861.106
09/09/2013  11:54:00       85.275       79.155       18.780       53.292       38.327       32.489     2840.078     1468.936     1055.538        0.963        0.268      116.350       19.889        0.029      347.187       25.975      861.101
09/09/2013  11:55:00       23.226       39.969       19.871       37.326       46.270       26.353     1393.212     2140.881      694.459        0.338        0.211       46.227       22.341        0.234      347.618       26.718      861.090
09/09/2013  11:56:00       21.447       -1.806       -2.214       24.094       18.437       16.736      580.511      339.938      280.079        0.083        0.060       21.522        8.144        0.143      347.263       26.105      861.079
09/09/2013  11:57:00      -39.555      -11.423       -1.330       36.571       30.377       22.723     1337.411      922.733      516.328        0.224        0.139       41.171       17.167        0.174      347.270       26.117      861.051
09/09/2013  11:58:00      -44.435      -40.529       -1.839       37.689       33.992       19.498     1420.454     1155.441      380.161        0.329        0.148       60.143       16.116        0.072      347.114       25.848      861.040
09/09/2013  11:59:00      -10.214      -55.428        9.476       37.102       32.043       38.612     1376.569     1026.781     1490.881        0.358        0.195       56.361       23.728        0.177      347.056       25.750      861.036
09/09/2013  12:00:00       23.413      -19.598       40.766       22.510       35.079       15.403      506.707     1230.512      237.245        0.228        0.099       30.533       10.290        0.114      347.402       26.345      861.022
09/09/2013  12:01:00       86.986       67.754       11.408       34.523       44.080       30.881     1191.819     1943.005      953.625        0.819        0.204      110.260       20.402        0.034      347.164       25.934      861.016
09/09/2013  12:02:00      120.968       72.297       18.315       56.045       38.057       40.325     3141.040     1448.372     1626.111        1.320        0.311      140.926       20.405        0.021      347.037       25.716      861.006
09/09/2013  12:03:00      173.722      129.964       22.159       70.407       56.138       49.626     4957.195     3151.506     2462.708        2.906        0.529      216.956       33.091        0.023      347.026       25.695      860.980
09/09/2013  12:04:00        8.519        9.440      -20.831       43.341       63.401       33.791     1878.443     4019.652     1141.820        0.382        0.352       12.715       17.858        1.972      347.031       25.705      860.962
09/09/2013  12:05:00       95.041       84.826       23.294       86.871       62.040       45.281     7546.647     3848.914     2050.363        1.511        0.672      127.390       36.108        0.080      347.337       26.233      860.957
09/09/2013  12:06:00      203.720      142.350        5.949       64.398       47.605       47.769     4147.061     2266.232     2281.882        3.525        0.435      248.526       30.152        0.015      346.975       25.606      860.939
09/09/2013  12:07:00      149.855      122.546       20.194       65.736       48.829       47.483     4321.277     2384.318     2254.600        2.342        0.448      193.582       24.965        0.017      346.938       25.543      860.930
09/09/2013  12:08:00       86.227       85.227       14.103       72.378       49.441       40.211     5238.604     2444.440     1616.904        1.210        0.465      121.239       24.953        0.042      347.194       25.986      860.926
09/09/2013  12:09:00       82.855       85.120       12.409       48.096       44.391       44.585     2313.192     1970.544     1987.834        1.027        0.314      118.787       31.223        0.069      347.175       25.954      860.913
09/09/2013  12:10:00      -16.427       53.714       -9.301       65.186       29.904       29.537     4249.179      894.255      872.407        0.463        0.301       56.170       24.285        0.187      347.100       25.826      860.891
09/09/2013  12:11:00       75.174       72.189       18.412       91.088       45.255       40.589     8296.996     2047.993     1647.498        1.159        0.600      104.223       25.954        0.062      347.287       26.147      860.881
09/09/2013  12:12:00       82.402       74.399        6.248       46.621       47.570       45.729     2173.513     2262.942     2091.151        0.944        0.326      111.019       29.921        0.073      347.017       25.683      860.865
09/09/2013  12:13:00       92.037       75.439       29.415       39.406       29.206       34.635     1552.828      852.993     1199.575        0.932        0.180      119.003       10.337        0.008      346.935       25.540      860.849
09/09/2013  12:14:00       64.953       55.659       38.400       49.758       40.260       28.644     2475.853     1620.864      820.476        0.685        0.246       85.539       26.650        0.097      347.075       25.783      860.844
09/09/2013  12:15:00       15.376       69.884        7.327       35.223       58.846       34.597     1240.685     3462.888     1196.947        0.554        0.295       71.556       27.449        0.147      347.628       26.735      860.830
09/09/2013  12:16:00       30.667       28.218       21.189       37.536       29.481       31.287     1408.921      869.130      978.869        0.272        0.163       41.674       23.884        0.328      347.679       26.822      860.837
09/09/2013  12:17:00       44.127       15.693       17.152       30.838       28.307       24.594      950.974      801.263      604.883        0.242        0.118       46.834       10.404        0.049      347.477       26.475      860.840
09/09/2013  12:18:00       -2.079       43.055       -7.424       57.200       25.136       31.322     3271.837      631.823      981.052        0.340        0.244       43.106       29.851        0.480      347.198       25.994      860.819
09/09/2013  12:19:00      -18.984       15.342        3.862       32.216       24.820       22.594     1037.852      616.021      510.472        0.139        0.108       24.408       18.389        0.568      347.497       26.510      860.804
09/09/2013  12:20:00       59.908       72.561       18.255       49.491       51.670       49.040     2449.351     2669.765     2404.908        0.835        0.376       94.096       35.915        0.146      347.600       26.687      860.790
09/09/2013  12:21:00       10.062       61.416       18.899       38.652       82.425       40.123     1493.988     6793.932     1609.864        0.706        0.495       62.234       44.450        0.510      347.647       26.767      860.782
09/09/2013  12:22:00      160.075       80.992       14.377       81.381       59.053       46.867     6622.924     3487.276     2196.547        2.235        0.615      179.398       40.626        0.051      347.211       26.013      860.778
09/09/2013  12:23:00      184.988      140.136       70.646      125.573       80.854       69.057    15768.691     6537.292     4768.809        4.296        1.354      232.074       62.825        0.073      347.250       26.081      860.758
09/09/2013  12:24:00      114.557      116.082       27.488       70.338       53.712       49.660     4947.446     2884.983     2466.160        1.882        0.515      163.090       39.667        0.059      347.440       26.411      860.779
09/09/2013  12:25:00      116.160       75.385        6.340       55.888       39.313       34.995     3123.438     1545.534     1224.658        1.255        0.295      138.478       26.383        0.036      347.175       25.954      860.769
09/09/2013  12:26:00       21.255       36.971       17.707       45.580       37.306       35.318     2077.530     1391.762     1247.368        0.342        0.236       42.646       24.588        0.332      347.609       26.704      860.758
09/09/2013  12:27:00        8.009       49.960       10.469       23.010       38.082       26.898      529.449     1450.249      723.503        0.269        0.135       50.598       26.143        0.267      347.759       26.961      860.751
09/09/2013  12:28:00        4.449       75.390       11.028       40.964       55.590       42.017     1678.084     3090.240     1765.412        0.618        0.327       75.521       37.338        0.244      347.747       26.940      860.738
09/09/2013  12:29:00       56.638       51.672       -8.879       53.649       85.013       41.120     2878.265     7227.141     1690.832        0.887        0.590       76.667       38.622        0.254      347.112       25.846      860.746
09/09/2013  12:30:00        3.134      -22.952      -12.400       25.380       26.310       16.756      644.134      692.191      280.752        0.115        0.081       23.165       12.927        0.311      346.995       25.644      860.740
09/09/2013  12:31:00       29.942      -47.743       -4.494       29.790       39.728       34.855      887.424     1578.303     1214.871        0.344        0.184       56.356       34.752        0.380      347.161       25.931      860.714
09/09/2013  12:32:00       18.758      -26.847       30.107       41.576       83.117       47.573     1728.551     6908.393     2263.164        0.644        0.545       32.751       56.384        2.964      347.357       26.267      860.695
09/09/2013  12:33:00       12.278       -8.761       34.224       34.596       39.837       35.921     1196.891     1587.015     1290.345        0.274        0.204       15.083       27.365        3.292      347.626       26.731      860.693
09/09/2013  12:34:00      -10.550      -57.521       -1.489       40.490       50.239       32.126     1639.474     2523.945     1032.075        0.431        0.260       58.481       37.113        0.403      346.990       25.634      860.668
09/09/2013  12:35:00      -69.684       -9.392       -8.255       24.704       23.779       20.103      610.300      565.443      404.149        0.330        0.079       70.314       19.903        0.080      347.012       25.673      860.654
09/09/2013  12:36:00     -123.170      -38.687      -22.894       42.037       39.368       25.288     1767.116     1549.800      639.494        1.057        0.198      129.103       24.350        0.036      347.010       25.671      860.636
09/09/2013  12:37:00     -100.522      -19.283      -19.989       46.415       34.882       20.075     2154.378     1216.732      403.019        0.732        0.189      102.355       11.410        0.012      347.197       25.992      860.626
09/09/2013  12:38:00      -66.796       -6.223       -8.774       25.905       25.081       22.649      671.095      629.058      512.968        0.319        0.091       67.085       17.894        0.071      347.208       26.011      860.626
09/09/2013  12:39:00      -47.863        7.788       -3.602       33.879       29.966       20.660     1147.790      897.960      426.854        0.242        0.124       48.492       11.763        0.059      347.424       26.384      860.600
09/09/2013  12:40:00     -107.798      -25.190        0.821       53.978       49.818       27.644     2913.587     2481.807      764.217        0.921        0.308      110.702       26.496        0.057      347.556       26.613      860.574
09/09/2013  12:41:00     -100.385      -43.363       16.351       87.729       73.715       42.750     7696.327     5433.938     1827.556        1.359        0.748      109.350       51.097        0.218      347.730       26.910      860.553
09/09/2013  12:42:00       -6.608      -49.013        3.497       61.641       58.403       38.424     3799.625     3410.895     1476.436        0.557        0.434       49.457       34.593        0.489      347.566       26.630      860.531
09/09/2013  12:43:00        0.326      -37.772        3.850       32.512       31.587       23.510     1057.024      997.725      552.735        0.202        0.130       37.773       17.322        0.210      347.602       26.689      860.532
09/09/2013  12:44:00       13.350       10.728       22.827       35.465       18.543       23.799     1257.735      343.850      566.392        0.149        0.108       17.126       20.480        1.430      348.164       27.661      860.522
09/09/2013  12:45:00      123.340       95.923       23.086       72.861       50.036       40.120     5308.724     2503.608     1609.590        1.718        0.471      156.250       20.945        0.018      347.661       26.791      860.516
09/09/2013  12:46:00       57.665       87.750       74.001       97.750       68.623       76.816     9555.048     4709.175     5900.661        1.833        1.008      105.001       76.817        0.535      348.075       27.505      860.501
09/09/2013  12:47:00      113.029       98.377       62.630       92.477       53.704       53.872     8552.034     2884.102     2902.237        2.035        0.717      149.845       48.536        0.105      347.808       27.044      860.489
09/09/2013  12:48:00      156.451       84.624       28.524      104.964       73.614       65.658    11017.465     5418.966     4310.998        2.660        1.037      177.871       53.585        0.091      347.579       26.649      860.488
09/09/2013  12:49:00       43.480       63.966       38.088       47.971       53.156       36.193     2301.257     2825.607     1309.906        0.693        0.322       77.345       31.607        0.167      347.810       27.048      860.465
09/09/2013  12:50:00      146.910      105.686       27.543       65.998       44.400       42.918     4355.765     1971.386     1841.961        2.084        0.408      180.975       24.317        0.018      347.444       26.416      860.449
09/09/2013  12:51:00      239.087      141.121       31.169       89.517       72.946       59.934     8013.308     5321.072     3592.080        4.748        0.846      277.629       38.778        0.020      347.520       26.545      860.425
09/09/2013  12:52:00      169.970      116.109       58.872       88.482       65.389       71.994     7829.101     4275.676     5183.187        3.156        0.864      205.843       43.446        0.045      347.380       26.305      860.435
09/09/2013  12:53:00       24.696       -4.776       20.751       57.860       62.408       43.586     3347.831     3894.755     1899.782        0.510        0.457       25.153       27.049        1.156      347.738       26.926      860.420
09/09/2013  12:54:00       37.394       35.088       28.963       49.402       39.400       29.104     2440.581     1552.364      847.015        0.415        0.242       51.278       15.168        0.087      347.952       27.294      860.422
09/09/2013  12:55:00       58.615       50.934       28.184       60.395       45.504       34.939     3647.524     2070.574     1220.742        0.688        0.347       77.653       35.552        0.210      348.050       27.463      860.410
09/09/2013  12:56:00      110.806       56.501       40.662       77.909       52.482       42.587     6069.864     2754.336     1813.626        1.388        0.532      124.379       30.768        0.061      347.726       26.905      860.390
09/09/2013  12:57:00      148.118       49.202       30.925       82.052      107.677       62.714     6732.575    11594.398     3932.996        2.378        1.113      156.076       43.679        0.078      347.977       27.335      860.389
09/09/2013  12:58:00      100.686       91.485       93.572      117.455      101.370       80.487    13795.643    10275.803     6478.114        2.890        1.527      136.041       58.674        0.186      347.798       27.028      860.364
09/09/2013  12:59:00       30.615       -4.723       55.922       49.906      105.247       61.297     2490.583    11076.885     3757.314        1.070        0.866       30.977       51.990        2.817      348.140       27.620      860.371
09/09/2013  13:00:00      168.846      104.157       60.223       86.785       46.879       55.375     7531.609     2197.605     3066.395        2.789        0.640      198.388       50.434        0.065      347.922       27.237      860.396
09/09/2013  13:01:00      132.511       97.171       25.042       68.678       58.532       43.997     4716.688     3425.998     1935.695        1.885        0.504      164.322       27.025        0.027      347.679       26.822      860.383
09/09/2013  13:02:00      108.989       97.895       46.235       62.869       59.614       50.939     3952.496     3553.802     2594.737        1.685        0.505      146.500       23.666        0.026      347.927       27.251      860.367
09/09/2013  13:03:00      131.738      107.992       63.481       65.417       54.649       50.356     4279.320     2986.500     2535.763        2.142        0.490      170.344       39.335        0.053      347.624       26.727      860.352
09/09/2013  13:04:00       55.893       79.469       78.581       91.783       83.036       54.579     8424.036     6895.053     2978.852        1.695        0.915       97.156       42.512        0.191      347.693       26.845      860.342
09/09/2013  13:05:00       54.186       -5.913       47.219       38.174       78.824       51.216     1457.251     6213.261     2623.099        0.775        0.515       54.508       42.016        0.594      347.440       26.411      860.334
09/09/2013  13:06:00       95.028      -45.548       15.258       55.170       46.396       38.849     3043.720     2152.566     1509.229        0.902        0.335      105.381       32.387        0.094      347.464       26.452      860.329
09/09/2013  13:07:00       32.743     -104.977       27.794       38.887       86.736       33.278     1512.196     7523.172     1107.444        1.150        0.507      109.965       43.324        0.155      347.791       27.016      860.306
09/09/2013  13:08:00      116.971      110.148       21.640       70.736       40.053       48.102     5003.513     1604.262     2313.827        1.760        0.446      160.670       14.154        0.008      347.928       27.252      860.295
09/09/2013  13:09:00       34.144       34.438       22.738       55.542       50.966       36.078     3084.959     2597.502     1301.596        0.493        0.349       48.495       19.526        0.162      348.189       27.705      860.284
09/09/2013  13:10:00       67.551       34.692       59.139       68.713       65.926       48.029     4721.477     4346.185     2306.827        1.032        0.569       75.939       34.113        0.202      347.669       26.805      860.278
09/09/2013  13:11:00       32.834        0.572       23.741       50.613       57.715       47.321     2561.703     3331.023     2239.237        0.489        0.407       32.839       46.831        2.034      347.726       26.906      860.276
09/09/2013  13:12:00       34.061       20.535        1.497       27.470       41.358       26.796      754.596     1710.518      718.012        0.238        0.159       39.772       15.748        0.157      347.650       26.773      860.276
09/09/2013  13:13:00       10.294       16.758       21.042       21.690       28.987       17.778      470.476      840.231      316.054        0.123        0.081       19.667       16.258        0.683      348.131       27.603      860.259
09/09/2013  13:14:00      -18.447       22.787       -9.571       29.724       40.520       30.489      883.512     1641.891      929.584        0.220        0.173       29.318       25.526        0.758      347.805       27.041      860.239
09/09/2013  13:15:00      -24.248       -1.544      -17.134       22.676       18.610       23.050      514.188      346.333      531.325        0.114        0.070       24.297       11.640        0.230      348.073       27.504      860.221
09/09/2013  13:16:00      -38.839       -4.684        7.587       43.458       31.120       29.044     1888.586      968.459      843.566        0.264        0.185       39.120       21.193        0.293      348.342       27.969      860.191
09/09/2013  13:17:00      -62.943      -15.393       -3.093       19.406       28.564       13.813      376.574      815.910      190.786        0.280        0.069       64.798        9.363        0.021      347.648       26.770      860.176
09/09/2013  13:18:00      -42.056       -1.608       -1.061       40.971       27.453       14.813     1678.600      753.667      219.423        0.221        0.133       42.087       10.110        0.058      347.912       27.225      860.152
09/09/2013  13:19:00       -9.626     -100.519        1.303       45.561       68.311       37.155     2075.823     4666.369     1380.469        0.916        0.406      100.979       23.927        0.056      348.241       27.793      860.137
09/09/2013  13:20:00       -7.830      -57.048        7.166       30.842       41.298       33.417      951.237     1705.508     1116.672        0.357        0.189       57.583       20.784        0.130      348.241       27.794      860.132
09/09/2013  13:21:00        2.853      -45.771       22.841       39.530       56.661       38.455     1562.603     3210.505     1478.792        0.444        0.313       45.860       26.130        0.325      348.378       28.031      860.119
09/09/2013  13:22:00       35.104      -29.445       47.632       42.071       96.012       53.007     1770.011     9218.310     2809.747        0.908        0.690       45.818       56.775        1.535      348.327       27.943      860.099
09/09/2013  13:23:00       52.498       53.530       27.493       34.114       36.858       33.627     1163.742     1358.526     1130.790        0.501        0.183       74.977       19.315        0.066      348.321       27.931      860.092
09/09/2013  13:24:00       70.599       -7.126       32.226       62.884       68.496       51.222     3954.398     4691.686     2623.719        0.867        0.563       70.958       52.464        0.547      347.738       26.925      860.078
09/09/2013  13:25:00       15.134       -5.581       30.666       61.707       92.863       50.550     3807.810     8623.503     2555.351        0.809        0.749       16.130       53.722       11.092      347.783       27.002      860.056
09/09/2013  13:26:00      -28.855      -16.220        2.770       63.578       44.204       41.980     4042.166     1953.978     1762.344        0.443        0.388       33.101       36.170        1.194      348.305       27.903      860.025
09/09/2013  13:27:00      -39.048      -18.364       17.295       87.924       55.498       42.359     7730.609     3080.050     1794.263        0.738        0.630       43.151       40.952        0.901      348.096       27.543      859.995
09/09/2013  13:28:00        4.665      -44.907       21.680       75.294       57.797       38.077     5669.128     3340.541     1449.868        0.648        0.523       45.149       37.284        0.682      348.404       28.076      859.981
09/09/2013  13:29:00       68.385       97.806      120.212       79.739       97.802       65.737     6358.350     9565.216     4321.396        2.447        1.012      119.342       77.331        0.420      348.117       27.578      859.951
09/09/2013  13:30:00      127.259      -30.094       31.758       82.782       95.619       59.227     6852.854     9142.909     3507.852        1.880        0.975      130.769       69.177        0.280      347.890       27.186      859.958
09/09/2013  13:31:00      -15.207      -15.724       -5.739       43.866       75.798       29.920     1924.228     5745.283      895.234        0.454        0.428       21.874       27.214        1.548      347.725       26.903      859.951
09/09/2013  13:32:00      -55.327       47.515        9.287       59.407       43.618       33.751     3529.248     1902.518     1139.132        0.599        0.329       72.930       23.139        0.101      348.291       27.881      859.934
09/09/2013  13:33:00      -45.118      -41.613       -3.581       43.742       60.272       19.764     1913.361     3632.740      390.615        0.486        0.297       61.378       14.211        0.054      347.912       27.226      859.923
09/09/2013  13:34:00      -20.090      -94.565       -6.843       45.517       41.173       26.056     2071.807     1695.200      678.904        0.692        0.222       96.675       19.131        0.039      347.710       26.876      859.924
09/09/2013  13:35:00      -89.411      -36.334       -2.855       33.304       62.458       24.854     1109.171     3901.040      617.719        0.747        0.281       96.512       22.184        0.053      347.999       27.374      859.904
09/09/2013  13:36:00      -48.888        2.419        3.161       42.476       33.500       24.985     1804.189     1122.219      624.246        0.298        0.178       48.948       21.315        0.190      348.500       28.241      859.885
09/09/2013  13:37:00      -17.709       16.208        4.304       30.297       27.912       20.449      917.909      779.056      418.153        0.135        0.106       24.007       15.982        0.443      348.261       27.828      859.885
09/09/2013  13:38:00      -30.996        5.973       14.899       38.548       21.923       23.799     1485.981      480.628      566.372        0.188        0.127       31.566       21.877        0.480      348.717       28.617      859.886
09/09/2013  13:39:00       -6.405       43.056        7.190       45.694       41.036       27.860     2087.949     1683.928      776.177        0.325        0.227       43.529       24.041        0.305      348.361       28.002      859.873
09/09/2013  13:40:00      -35.401       75.910        1.860       52.812       44.581       30.574     2789.056     1987.423      934.749        0.636        0.286       83.759       35.641        0.181      348.606       28.425      859.864
09/09/2013  13:41:00       22.275       97.870       -3.330       52.780       70.959       40.148     2785.687     5035.173     1611.825        0.976        0.472      100.373       46.051        0.211      348.415       28.094      859.851
09/09/2013  13:42:00      130.264      116.705       17.713       60.463       40.837       44.114     3655.735     1667.679     1946.009        1.908        0.363      174.896       28.246        0.026      348.085       27.522      859.842
09/09/2013  13:43:00       77.418      111.779       -4.296       43.776       58.360       45.752     1916.329     3405.855     2093.255        1.296        0.371      135.971       31.398        0.053      348.144       27.624      859.854
09/09/2013  13:44:00       38.281      168.471      -12.047       47.368       73.504       35.068     2243.718     5402.872     1229.781        1.943        0.444      172.765       36.354        0.044      348.236       27.784      859.837
09/09/2013  13:45:00       39.533       30.975        2.473       45.171       53.916       28.123     2040.385     2906.895      790.901        0.413        0.287       50.223       15.501        0.095      348.598       28.411      859.817
09/09/2013  13:46:00       -3.985       59.416       15.101       88.135       57.870       41.553     7767.769     3348.964     1726.623        0.831        0.642       59.549       46.643        0.614      348.792       28.746      859.798
09/09/2013  13:47:00     -136.213      118.796      -26.285       76.400       64.561       37.507     5836.963     4168.074     1406.765        2.238        0.571      180.739       31.777        0.031      348.396       28.059      859.790
09/09/2013  13:48:00     -187.010      188.130      -44.270       68.470      107.470       44.182     4688.202    11549.725     1952.041        4.525        0.909      265.265       52.501        0.039      348.086       27.523      859.798
09/09/2013  13:49:00      -42.885      134.112       -4.609       55.747       73.091       40.237     3107.781     5342.366     1618.978        1.496        0.503      140.801       36.100        0.066      348.333       27.951      859.780
09/09/2013  13:50:00     -111.869       68.502      -18.482       67.821       88.137       43.290     4599.743     7768.090     1874.054        1.589        0.712      131.176       46.496        0.126      348.472       28.193      859.771
09/09/2013  13:51:00      -26.867      160.251      -12.471       57.312       77.655       42.935     3284.674     6030.345     1843.425        1.886        0.558      162.488       38.856        0.057      348.174       27.677      859.776
09/09/2013  13:52:00     -188.815       64.652      -17.270       84.649       48.201       27.825     7165.478     2323.367      774.237        2.519        0.513      199.577       25.885        0.017      348.105       27.556      859.760
09/09/2013  13:53:00     -142.131       39.652      -21.547       57.337       36.043       27.594     3287.565     1299.098      761.453        1.379        0.267      147.558       17.169        0.014      348.120       27.584      859.736
09/09/2013  13:54:00      -92.046      -43.493       -8.696       78.297       58.472       38.628     6130.388     3419.013     1492.127        1.074        0.552      101.804       33.139        0.106      348.192       27.709      859.723
09/09/2013  13:55:00      -25.794        4.336       47.965       65.841       98.230       53.187     4335.079     9649.087     2828.839        0.990        0.841       26.156       60.248        5.306      348.127       27.597      859.705
09/09/2013  13:56:00      -25.293       -8.905       -4.799       61.211       21.641       24.008     3746.824      468.348      576.396        0.277        0.240       26.815       28.766        1.151      348.173       27.676      859.704
09/09/2013  13:57:00       37.886        4.001       30.804       60.153       52.867       33.605     3618.431     2794.914     1129.302        0.497        0.377       38.096       27.117        0.507      348.286       27.871      859.690
09/09/2013  13:58:00      -92.551      -56.459      -24.185       67.860       52.542       31.429     4604.921     2760.713      987.791        1.034        0.418      108.412       15.810        0.021      348.150       27.636      859.696
09/09/2013  13:59:00        6.653      -28.076        1.160       57.965       36.131       40.558     3359.953     1305.421     1644.938        0.357        0.316       28.853       28.287        0.961      348.046       27.458      859.678
09/09/2013  14:00:00      -11.623        4.251        0.518       26.573       70.834       36.673      706.128     5017.397     1344.907        0.361        0.353       12.376       18.218        2.167      348.121       27.587      859.656
09/09/2013  14:01:00       25.774       12.372       15.281       37.241       25.628       24.166     1386.874      656.788      583.982        0.184        0.131       28.589       23.111        0.653      348.230       27.775      859.638
09/09/2013  14:02:00       43.920       22.992      -14.299       27.836       28.304       18.950      774.833      801.118      359.087        0.230        0.097       49.574        9.064        0.033      347.725       26.903      859.598
09/09/2013  14:03:00       24.019       75.684      -11.416       27.784       36.883       21.189      771.942     1360.365      448.985        0.451        0.129       79.404       18.591        0.055      348.121       27.586      859.568
09/09/2013  14:04:00      -20.475       25.479       -5.671       29.205       32.254       17.131      852.912     1040.298      293.485        0.164        0.109       32.687        9.252        0.080      348.617       28.444      859.564
09/09/2013  14:05:00     -128.993       14.479       -5.566       47.652       33.475       29.014     2270.728     1120.575      841.811        1.056        0.212      129.803       25.819        0.040      348.196       27.715      859.549
09/09/2013  14:06:00     -109.094      -40.084        2.340       60.559       61.248       26.826     3667.361     3751.287      719.609        1.082        0.407      116.225       23.086        0.039      348.385       28.042      859.537
09/09/2013  14:07:00      -66.016       87.537      -14.026       60.249       89.497       31.596     3629.911     8009.641      998.278        1.243        0.632      109.639       22.081        0.041      348.454       28.161      859.534
09/09/2013  14:08:00      -38.970      137.367       -1.201       60.073       70.646       39.890     3608.717     4990.881     1591.175        1.529        0.510      142.788       39.035        0.075      348.500       28.240      859.526
09/09/2013  14:09:00       -3.805      150.630       -1.179      130.341      122.764       63.644    16988.796    15070.972     4050.599        2.940        1.806      150.679       63.553        0.178      348.531       28.292      859.492
09/09/2013  14:10:00     -133.896      265.985      -31.408       87.054       94.634       50.579     7578.340     8955.529     2558.286        5.437        0.955      297.786       49.209        0.027      348.242       27.791      859.488
09/09/2013  14:11:00     -106.463      222.903      -16.383       63.542      113.299       40.861     4037.552    12836.598     1669.592        3.991        0.927      247.023       27.550        0.012      348.274       27.848      859.479
09/09/2013  14:12:00     -103.130       74.066       -0.017       57.968       55.229       40.362     3360.333     3050.193     1629.089        1.208        0.402      126.971       24.984        0.039      348.587       28.391      859.457
09/09/2013  14:13:00      -24.730       37.507      -12.084      116.936       72.179       36.818    13673.917     5209.739     1355.529        1.120        1.012       44.926       52.794        1.381      348.099       27.547      859.453
09/09/2013  14:14:00      -43.317      106.715        3.780      113.924       58.177       51.377    12978.775     3384.525     2639.574        1.614        0.950      115.172       61.757        0.288      348.260       27.823      859.433
09/09/2013  14:15:00     -134.710       20.378      -17.507       59.999       88.230       32.062     3599.925     7784.538     1027.990        1.564        0.621      136.243       32.225        0.056      348.392       28.054      859.433
09/09/2013  14:16:00      -27.667       -8.594        8.315       48.911       28.177       35.420     2392.244      793.923     1254.569        0.267        0.222       28.971       23.430        0.654      348.610       28.431      859.410
09/09/2013  14:17:00        1.505      -57.899        1.229       57.080       36.408       25.619     3258.172     1325.555      656.325        0.430        0.262       57.919       16.614        0.082      348.374       28.024      859.399
09/09/2013  14:18:00        6.490      -29.460       23.446       44.533       38.346       24.098     1983.172     1470.431      580.729        0.275        0.202       30.166       20.253        0.451      348.494       28.232      859.386
09/09/2013  14:19:00      -20.948      -63.625        9.427       31.035       36.477       23.442      963.170     1330.578      549.541        0.371        0.142       66.984       15.611        0.054      348.244       27.797      859.373
09/09/2013  14:20:00       24.907       17.915       35.808       30.709       30.089       23.566      943.051      905.320      555.336        0.231        0.120       30.681       19.153        0.390      348.549       28.325      859.362
09/09/2013  14:21:00       22.097      103.531        1.613       55.563       91.483       41.314     3087.280     8369.226     1706.823        1.218        0.658      105.863       45.644        0.186      348.306       27.904      859.360
09/09/2013  14:22:00      186.371      123.942       14.354      101.175       84.732       58.349    10236.390     7179.573     3404.613        3.556        1.041      223.821       53.522        0.057      348.454       28.158      859.337
09/09/2013  14:23:00       77.512      106.275        3.741       96.255       88.309       48.102     9264.953     7798.402     2313.784        1.834        0.969      131.539       43.527        0.110      348.504       28.247      859.318
09/09/2013  14:24:00       63.300      165.337      -12.073       63.177      115.351       50.214     3991.318    13305.945     2521.481        2.565        0.991      177.040       59.735        0.114      348.521       28.275      859.291
09/09/2013  14:25:00      100.269      168.643       -7.446      118.419      101.472       72.311    14023.046    10296.474     5228.932        3.404        1.477      196.200       64.792        0.109      348.737       28.649      859.301
09/09/2013  14:26:00       10.242      306.277      -24.128      107.459      135.413       80.155    11547.365    18336.752     6424.812        6.539        1.815      306.448       86.011        0.079      348.584       28.383      859.325
09/09/2013  14:27:00      -33.067      355.561      -30.797       86.858      127.865       67.007     7544.266    16349.548     4489.980        7.842        1.419      357.095       75.164        0.044      348.430       28.117      859.310
09/09/2013  14:28:00      -61.607      336.924      -54.468       75.396      153.702       38.029     5684.588    23624.221     1446.223        7.551        1.538      342.510       33.189        0.009      348.323       27.932      859.317
09/09/2013  14:29:00     -112.565      185.110      -28.706       77.056       59.225       46.418     5937.702     3507.651     2154.594        2.968        0.580      216.648       40.464        0.035      348.422       28.104      859.311
09/09/2013  14:30:00      -29.813      152.074       -6.549       42.386       94.945       41.193     1796.612     9014.527     1696.861        1.828        0.625      154.969       51.871        0.112      348.658       28.513      859.317
09/09/2013  14:31:00       25.462       90.565        8.158       49.975       76.364       44.845     2497.512     5831.535     2011.085        0.963        0.517       94.076       50.294        0.286      348.825       28.805      859.301
09/09/2013  14:32:00       49.563      155.053       -5.235       64.486       96.619       60.197     4158.492     9335.162     3623.687        2.182        0.856      162.782       58.707        0.130      348.513       28.260      859.284
09/09/2013  14:33:00      201.586      133.463       12.703       84.374       58.107       56.990     7118.965     3376.466     3247.883        3.617        0.687      241.763       37.889        0.025      348.251       27.807      859.265
09/09/2013  14:34:00       88.676      124.081      108.296      132.798       61.681       63.610    17635.214     3804.598     4046.234        3.023        1.274      152.511       79.284        0.270      348.174       27.677      859.243
09/09/2013  14:35:00       16.242        0.266       33.586       42.835       88.799       44.119     1834.834     7885.200     1946.480        0.653        0.583       16.244       35.840        4.868      348.319       27.927      859.241
09/09/2013  14:36:00       20.884       80.776        6.996       34.957       59.922       39.655     1221.964     3590.653     1572.506        0.670        0.319       83.432       41.711        0.250      348.572       28.365      859.243
09/09/2013  14:37:00       33.325       67.643      -19.553       31.730       77.098       43.761     1006.783     5944.111     1915.045        0.747        0.443       75.406       23.715        0.099      348.305       27.905      859.228
09/09/2013  14:38:00       32.278       91.058        8.656       45.108       53.331       38.725     2034.736     2844.172     1499.662        0.789        0.319       96.609       37.833        0.153      348.461       28.175      859.204
09/09/2013  14:39:00       -8.373       71.498       15.187       47.645       62.059       44.749     2270.067     3851.285     2002.476        0.677        0.406       71.987       28.343        0.155      348.791       28.745      859.200
09/09/2013  14:40:00      124.173       80.494       58.678       85.651       85.373       74.129     7336.106     7288.564     5495.123        2.273        1.006      147.980       53.149        0.129      348.619       28.446      859.186
09/09/2013  14:41:00      217.321      121.732       73.341      101.024       97.841       74.426    10205.893     9572.829     5539.156        4.637        1.266      249.093       54.149        0.047      348.356       27.989      859.158
09/09/2013  14:42:00      175.589       96.991       39.836      108.978       65.331       55.890    11876.211     4268.090     3123.639        3.054        0.963      200.596       33.961        0.029      348.524       28.279      859.148
09/09/2013  14:43:00       89.311      116.239       89.409      102.894       73.769       71.465    10587.136     5441.819     5107.237        2.530        1.057      146.588       54.962        0.141      348.430       28.117      859.145
09/09/2013  14:44:00      163.378      110.169       17.104       58.501       43.931       56.545     3422.396     1929.931     3197.296        2.383        0.427      197.052       26.181        0.018      348.162       27.654      859.147
09/09/2013  14:45:00       77.860       86.448       32.449       71.080       39.660       43.156     5052.303     1572.934     1862.483        1.154        0.424      116.342       32.365        0.077      348.346       27.973      859.103
09/09/2013  14:46:00       51.710      166.631       -4.056       76.016      101.441       57.494     5778.392    10290.280     3305.508        2.491        0.969      174.470       54.872        0.099      348.743       28.661      859.105
09/09/2013  14:47:00      114.349      155.230        4.093       96.384      119.767       79.324     9289.794    14344.218     6292.236        3.355        1.496      192.800       76.975        0.159      348.733       28.640      859.080
09/09/2013  14:48:00      143.098       86.066       24.655      124.652       77.007       50.700    15538.091     5930.054     2570.469        2.626        1.202      166.986       20.529        0.015      348.895       28.924      859.071
09/09/2013  14:49:00      155.960       66.249       30.384      107.001      100.907       50.275    11449.115    10182.174     2527.559        2.689        1.208      169.448       34.249        0.041      348.751       28.673      859.068
09/09/2013  14:50:00      129.691      100.468       22.747      106.082       68.233       53.670    11253.453     4655.709     2880.477        2.311        0.939      164.054       44.959        0.075      348.882       28.900      859.071
09/09/2013  14:51:00       18.085      312.213      -21.594      138.933      119.583       58.894    19302.413    14300.164     3468.450        6.766        1.854      312.736       75.507        0.058      348.474       28.191      859.080
09/09/2013  14:52:00      -74.986      185.006        3.626      100.549      114.053       56.433    10110.156    13007.987     3184.675        3.308        1.315      199.625       74.092        0.138      348.551       28.326      859.086
09/09/2013  14:53:00       87.827       68.479       24.602       42.108       38.649       35.400     1773.071     1493.720     1253.175        0.876        0.226      111.369       21.434        0.037      348.496       28.234      859.052
09/09/2013  14:54:00       82.751       77.468       14.917       79.785       56.693       47.902     6365.665     3214.067     2294.627        1.247        0.594      113.353       42.257        0.139      348.890       28.917      859.020
09/09/2013  14:55:00       54.597        3.331       16.562       57.414       63.681       41.266     3296.316     4055.291     1702.908        0.616        0.453       54.698       23.229        0.180      348.776       28.719      859.000
09/09/2013  14:56:00       99.660       67.963       55.311       90.650       59.583       52.837     8217.333     3550.175     2791.782        1.608        0.728      120.628       44.668        0.137      348.625       28.457      858.973
09/09/2013  14:57:00      171.519      110.743       27.879      100.772       84.506       54.389    10154.939     7141.236     2958.184        3.135        1.013      204.163       32.302        0.025      348.694       28.574      858.957
09/09/2013  14:58:00      202.227       71.355       42.968      120.050       83.740       63.458    14411.883     7012.308     4026.963        3.664        1.273      214.447       50.381        0.055      348.647       28.494      858.940
09/09/2013  14:59:00      217.824      134.435        9.297       74.357       72.428       57.744     5528.964     5245.880     3334.355        3.986        0.705      255.969       39.231        0.023      348.220       27.754      858.951
09/09/2013  15:00:00       24.084      -24.408      -15.845       33.653       43.967       17.063     1132.548     1933.092      291.132        0.239        0.168       34.289       17.184        0.251      347.986       27.353      858.927
09/09/2013  15:01:00       33.133       28.072       30.922       27.000       42.651       18.943      728.985     1819.071      358.847        0.287        0.145       43.426       10.250        0.056      348.386       28.045      858.895
09/09/2013  15:02:00       71.884       46.984       13.107       27.222       31.953       30.997      741.020     1020.971      960.837        0.513        0.136       85.877       25.315        0.087      347.823       27.074      858.894
09/09/2013  15:03:00      105.346      101.478       60.411       75.126       47.960       46.913     5643.918     2300.129     2200.792        1.759        0.507      146.272       31.248        0.046      348.045       27.453      858.880
09/09/2013  15:04:00      196.874      142.463       26.704      119.467       99.312       76.463    14272.265     9862.951     5846.549        4.487        1.499      243.012       48.774        0.040      348.757       28.683      858.883
09/09/2013  15:05:00      250.678      184.224       15.813      122.742      102.709       88.694    15065.602    10549.134     7866.573        6.525        1.674      311.092       61.457        0.039      348.587       28.388      858.888
09/09/2013  15:06:00      257.017      175.156       11.653      129.497       92.232       67.689    16769.601     8506.703     4581.784        6.336        1.493      311.026       60.987        0.038      348.584       28.382      858.888
09/09/2013  15:07:00      277.881      162.300       41.426      122.726      102.433       91.338    15061.598    10492.567     8342.563        6.958        1.695      321.807       71.967        0.050      348.569       28.358      858.867
09/09/2013  15:08:00      233.222      195.647       20.112      100.609       93.155       65.067    10122.175     8677.880     4233.724        5.805        1.152      304.418       16.074        0.003      348.428       28.114      858.862
09/09/2013  15:09:00      166.962       94.133       32.008       96.624       81.839       55.639     9336.176     6697.653     3095.670        2.844        0.956      191.670       27.763        0.021      348.707       28.597      858.837
09/09/2013  15:10:00      106.742       72.572       88.757      146.762      123.893       88.795    21538.974    15349.584     7884.520        3.465        2.239      129.076       81.948        0.403      348.447       28.148      858.794
09/09/2013  15:11:00        1.615      114.795       16.226       73.087      120.113       55.773     5341.768    14427.095     3110.590        1.816        1.144      114.806       67.543        0.346      348.503       28.246      858.798
09/09/2013  15:12:00      -14.063      298.851      -35.302       71.792       89.914       47.796     5154.144     8084.542     2284.431        5.314        0.776      299.182       49.483        0.027      348.559       28.339      858.823
09/09/2013  15:13:00      -54.239      193.086      -28.226       59.068       75.075       37.781     3489.022     5636.293     1427.415        2.578        0.528      200.559       47.512        0.056      348.459       28.167      858.822
09/09/2013  15:14:00       -7.519        7.198       25.527       47.312       48.679       25.101     2238.402     2369.604      630.042        0.300        0.262       10.409       11.648        1.252      348.538       28.307      858.778
09/09/2013  15:15:00      -36.721       96.709      -10.034       61.977       55.956       33.606     3841.197     3131.082     1129.342        0.945        0.405      103.446       41.927        0.164      348.461       28.174      858.767
09/09/2013  15:16:00      -20.636      238.154      -26.148       64.669      107.023       51.636     4182.021    11453.954     2666.307        3.806        0.915      239.046       42.273        0.031      348.877       28.891      858.769
09/09/2013  15:17:00       41.736      414.375      -68.754       59.828       69.731       37.649     3579.340     4862.435     1417.480        9.402        0.493      416.472       18.630        0.002      348.554       28.331      858.761
09/09/2013  15:18:00       -4.613      260.973      -41.047       36.949       54.435       26.319     1365.256     2963.203      692.703        3.742        0.251      261.014       24.135        0.009      348.375       28.020      858.761
09/09/2013  15:19:00      -36.231      221.519      -30.187       32.641       44.922       19.566     1065.414     2018.013      382.837        2.738        0.173      224.463       19.196        0.007      348.294       27.881      858.732
09/09/2013  15:20:00      -40.428      138.335      -10.239       55.462       55.368       30.769     3076.020     3065.590      946.718        1.398        0.354      144.121       31.684        0.048      348.622       28.452      858.714
09/09/2013  15:21:00        2.892       27.560      -13.141       39.205       38.994       17.819     1537.052     1520.527      317.530        0.216        0.169       27.712       11.282        0.166      348.631       28.468      858.683
09/09/2013  15:22:00       76.734       44.914        9.323       41.974       26.437       28.244     1761.841      698.912      797.708        0.562        0.163       88.912       19.819        0.050      348.615       28.441      858.670
09/09/2013  15:23:00      107.762       70.096       28.275       57.086       40.683       32.099     3258.755     1655.122     1030.317        1.163        0.297      128.554       19.384        0.023      348.733       28.644      858.657
09/09/2013  15:24:00       68.042       85.465       35.863       67.567       62.452       53.558     4565.341     3900.270     2868.451        1.227        0.567      109.243       19.685        0.032      348.713       28.609      858.645
09/09/2013  15:25:00        3.139       16.569       29.834       26.002       25.126       26.324      676.127      631.321      692.936        0.159        0.100       16.864        7.402        0.193      348.777       28.720      858.632
09/09/2013  15:26:00       75.804       31.707       46.854      102.074       80.828       66.517    10419.126     6533.235     4424.558        1.516        1.069       82.168       58.416        0.505      348.708       28.600      858.624
09/09/2013  15:27:00        5.357       74.880       34.913       69.048       57.347       46.987     4767.672     3288.633     2207.762        0.856        0.513       75.071       33.573        0.200      348.905       28.942      858.615
09/09/2013  15:28:00      144.516       98.923       51.544      101.338       74.280       67.284    10269.491     5517.577     4527.089        2.682        1.016      175.131       46.490        0.070      348.812       28.779      858.590
09/09/2013  15:29:00      164.305      104.567       60.712       98.333       72.707       65.181     9669.452     5286.297     4248.564        3.041        0.960      194.757       51.685        0.070      348.852       28.847      858.577
09/09/2013  15:30:00      167.768      133.053       92.930      117.770       90.483       65.120    13869.704     8187.170     4240.633        4.039        1.315      214.124       59.280        0.077      348.802       28.762      858.566
09/09/2013  15:31:00      148.471       66.276       49.356      119.021       97.652       56.100    14166.116     9535.835     3147.263        2.786        1.342      162.592       42.997        0.070      348.738       28.650      858.566
09/09/2013  15:32:00      116.590       76.432       59.721      105.274      108.656       49.137    11082.558    11806.141     2414.442        2.415        1.265      139.409       23.837        0.029      348.635       28.474      858.551
09/09/2013  15:33:00       79.933       45.045       58.822       74.430       82.339       53.110     5539.865     6779.775     2820.695        1.351        0.757       91.752       43.815        0.228      348.554       28.333      858.548
09/09/2013  15:34:00       91.260      113.260       81.719       75.377       77.259       75.697     5681.748     5969.015     5730.027        2.260        0.869      145.452       52.031        0.128      348.917       28.962      858.541
09/09/2013  15:35:00      131.941      114.029       72.347       86.895       57.143       55.384     7550.718     3265.286     3067.354        2.476        0.694      174.388       46.196        0.070      348.854       28.852      858.540
09/09/2013  15:36:00       47.674      -28.426       51.248       66.883       65.618       56.173     4473.402     4305.667     3155.451        0.882        0.597       55.505       57.472        1.072      348.803       28.765      858.517
09/09/2013  15:37:00       27.511       22.913       55.502       47.767       46.186       44.902     2281.640     2133.122     2016.155        0.540        0.322       35.803       37.213        1.080      348.720       28.622      858.502
09/09/2013  15:38:00       54.273      -10.931       24.310       63.670       67.314       42.694     4053.877     4531.209     1822.739        0.703        0.520       55.363       25.240        0.208      348.781       28.727      858.487
09/09/2013  15:39:00       12.097        6.972       41.029       36.791       47.161       25.834     1353.596     2224.141      667.418        0.306        0.212       13.962       15.755        1.273      349.182       29.422      858.495
09/09/2013  15:40:00      135.680       68.986       51.792      114.507       66.595       75.931    13111.805     4434.909     5765.474        2.458        1.166      152.211       47.726        0.098      349.005       29.113      858.500
09/09/2013  15:41:00       18.829      144.395        5.335       54.801      103.607       41.406     3003.183    10734.416     1714.473        1.834        0.773      145.618       47.070        0.104      349.064       29.216      858.516
09/09/2013  15:42:00      122.059      131.079        0.800      106.496       99.150       46.527    11341.478     9830.703     2164.748        2.770        1.167      179.109       41.517        0.054      348.928       28.981      858.502
09/09/2013  15:43:00      143.253       77.358       19.167      108.499       79.539       59.990    11772.007     6326.423     3598.833        2.428        1.085      162.806       29.297        0.032      349.039       29.172      858.498
09/09/2013  15:44:00      102.523      230.401      -22.794       77.644      150.551       66.103     6028.641    22665.679     4369.618        4.858        1.653      252.182       77.333        0.094      348.855       28.853      858.509
09/09/2013  15:45:00      184.671      111.256       14.259      116.602       88.437       67.825    13596.085     7821.095     4600.257        3.635        1.301      215.595       41.032        0.036      348.792       28.743      858.510
09/09/2013  15:46:00      171.188      133.747        2.174      141.439       81.581       64.365    20004.875     6655.434     4142.817        3.899        1.540      217.240       52.488        0.058      348.760       28.689      858.515
09/09/2013  15:47:00      121.128      142.245       -9.014      108.953       74.877       40.522    11870.754     5606.604     1642.001        2.705        0.956      186.831       36.020        0.037      348.857       28.856      858.520
09/09/2013  15:48:00       66.238      116.689        1.372       95.190       94.300       40.932     9061.161     8892.403     1675.403        1.881        0.981      134.178       49.324        0.135      348.927       28.978      858.499
09/09/2013  15:49:00      187.287      103.958       48.679       90.410       67.097       88.954     8174.039     4501.955     7912.887        3.442        1.029      214.205       25.766        0.014      348.770       28.706      858.509
09/09/2013  15:50:00      111.518      108.280        8.158       93.981       65.621       53.820     8832.459     4306.088     2896.554        2.013        0.802      155.437       40.609        0.068      348.651       28.502      858.516
09/09/2013  15:51:00        1.879      135.483      -14.354      111.117       67.620       56.151    12346.887     4572.528     3152.973        1.931        1.004      135.496       57.651        0.181      348.653       28.504      858.507
09/09/2013  15:52:00       -2.674      203.660      -23.027       62.366       63.764       44.151     3889.547     4065.831     1949.315        2.596        0.495      203.678       38.887        0.036      348.718       28.616      858.494
09/09/2013  15:53:00      107.873       73.583       16.603       87.901       70.555       48.011     7726.541     4978.013     2305.026        1.617        0.750      130.580       34.706        0.071      348.683       28.558      858.480
09/09/2013  15:54:00      141.732       94.644       -2.926       66.195       52.607       45.139     4381.795     2767.534     2037.524        1.912        0.459      170.427       33.811        0.039      348.539       28.308      858.468
09/09/2013  15:55:00      106.459       92.615       34.953      104.651       64.606       50.851    10951.730     4173.963     2585.790        1.942        0.886      141.107       41.732        0.087      348.669       28.531      858.451
09/09/2013  15:56:00      231.364      106.859       37.629      131.179      103.169       74.705    17207.919    10643.925     5580.903        4.989        1.672      254.849       55.255        0.047      348.985       29.078      858.421
09/09/2013  15:57:00      121.778       91.161       50.293       95.418       70.350       67.059     9104.639     4949.062     4496.963        2.211        0.928      152.119       43.736        0.083      349.182       29.420      858.429
09/09/2013  15:58:00      134.693       82.529       43.637       79.809       64.831       60.754     6369.471     4203.036     3691.028        2.056        0.713      157.966       47.909        0.092      349.113       29.301      858.410
09/09/2013  15:59:00      136.523      117.903       82.625      131.016      102.028       84.537    17165.103    10409.712     7146.437        3.704        1.736      180.388       74.877        0.172      348.795       28.749      858.391
09/09/2013  16:00:00       48.481      182.465      -12.044       84.495      101.383       58.626     7139.352    10278.608     3437.046        2.832        1.043      188.796       58.358        0.096      348.988       29.084      858.432
09/09/2013  16:01:00       63.330      136.694       -2.339       88.040      109.140       47.320     7750.992    11911.630     2239.167        2.230        1.095      150.652       46.984        0.097      348.886       28.908      858.436
09/09/2013  16:02:00       36.553      239.715      -22.682      102.425      137.073       67.782    10490.811    18788.871     4594.400        4.659        1.694      242.486       72.675        0.090      348.791       28.743      858.424
09/09/2013  16:03:00      -39.435      119.312       -5.840       50.606       92.177       37.500     2560.947     8496.637     1406.246        1.414        0.623      125.660       52.481        0.174      348.820       28.795      858.411
09/09/2013  16:04:00      -87.004      124.373      -17.489       68.322       96.460       37.512     4667.912     9304.587     1407.176        1.936        0.769      151.784       26.873        0.031      348.872       28.883      858.393
09/09/2013  16:05:00       -1.531      124.195        2.817       60.072       79.728       39.626     3608.616     6356.479     1570.202        1.348        0.577      124.205       39.805        0.103      349.072       29.232      858.386
09/09/2013  16:06:00      126.231      103.119       52.118      118.792       68.316       71.280    14111.463     4667.018     5080.778        2.657        1.193      162.996       14.015        0.007      349.038       29.170      858.389
09/09/2013  16:07:00       27.412       67.120       59.184       54.571       61.472       75.853     2977.982     3778.771     5753.634        1.063        0.626       72.502       57.328        0.625      348.638       28.480      858.406
09/09/2013  16:08:00       48.846       18.386       31.827       52.713       50.475       41.815     2778.647     2547.677     1748.457        0.540        0.354       52.192       38.014        0.530      348.736       28.649      858.401
09/09/2013  16:09:00      136.180       89.573       64.620      100.563       85.882       54.742    10112.942     7375.736     2996.645        2.561        1.024      162.998       58.898        0.131      349.018       29.134      858.401
09/09/2013  16:10:00      137.345       88.270       41.983       95.605       56.370       53.103     9140.404     3177.606     2819.887        2.177        0.757      163.264       55.098        0.114      349.240       29.520      858.419
09/09/2013  16:11:00      231.057      183.349       71.198      147.655       85.668       80.958    21801.881     7338.998     6554.235        6.388        1.785      294.965       64.750        0.048      348.974       29.059      858.405
09/09/2013  16:12:00      179.045      158.542        6.175      102.970       79.077       79.196    10602.806     6253.225     6272.057        4.017        1.156      239.150       44.853        0.035      349.030       29.157      858.436
09/09/2013  16:13:00       32.772       88.792        0.577       54.350       69.592       47.645     2953.921     4843.037     2270.016        0.951        0.503       94.647       33.631        0.126      349.035       29.167      858.435
09/09/2013  16:14:00        5.750      185.161      -27.078       75.653       83.030       41.210     5723.343     6893.978     1698.281        2.468        0.716      185.251       37.851        0.042      348.927       28.978      858.410
09/09/2013  16:15:00      196.393       89.992       35.574      124.809       87.244       69.097    15577.341     7611.436     4774.392        3.794        1.398      216.030       46.995        0.047      348.947       29.013      858.391
09/09/2013  16:16:00       72.260      199.440      -25.426       67.243      119.927       64.822     4521.645    14382.582     4201.879        3.437        1.155      212.127       66.854        0.099      348.871       28.880      858.401
09/09/2013  16:17:00      299.894      202.376       47.595      130.760      101.244       79.431    17098.206    10250.248     6309.221        8.340        1.683      361.790       49.881        0.019      348.795       28.747      858.389
09/09/2013  16:18:00      134.825       98.999       63.479      106.607       61.671       62.097    11365.032     3803.276     3856.011        2.551        0.951      167.268       55.292        0.109      348.570       28.360      858.410
09/09/2013  16:19:00       37.505       25.407       28.155       37.117       51.671       35.594     1377.676     2669.936     1266.946        0.408        0.266       45.300       27.226        0.361      348.715       28.614      858.400
09/09/2013  16:20:00       27.117      -27.337       11.582       33.142       27.276       25.152     1098.377      743.989      632.610        0.205        0.124       38.505       16.891        0.192      348.639       28.481      858.364
09/09/2013  16:21:00       -5.105       26.694       34.473       19.122       32.359       21.196      365.644     1047.082      449.269        0.189        0.093       27.178       13.732        0.255      348.603       28.420      858.362
09/09/2013  16:22:00       40.288       -0.282       13.018       48.749       34.343       29.817     2376.493     1179.427      889.040        0.312        0.222       40.289       20.450        0.258      348.760       28.691      858.366
09/09/2013  16:23:00        1.513       31.022       -1.413       38.295       36.936       18.992     1466.501     1364.292      360.697        0.208        0.160       31.059       19.781        0.406      348.807       28.773      858.363
09/09/2013  16:24:00       39.627       -2.694       18.056       43.695       27.705       22.452     1909.214      767.546      504.078        0.254        0.159       39.718       18.147        0.209      348.137       27.613      858.358
09/09/2013  16:25:00       97.412       83.525       44.216       90.957       61.066       56.047     8273.141     3729.052     3141.212        1.678        0.757      128.319       47.547        0.137      348.456       28.163      858.351
09/09/2013  16:26:00      174.857      109.792       50.994       79.720       61.331       53.939     6355.228     3761.472     2909.391        2.913        0.651      206.469       36.223        0.031      348.642       28.483      858.359
09/09/2013  16:27:00      127.010       86.772       30.364       76.323       47.551       41.636     5825.232     2261.100     1733.535        1.720        0.491      153.821       12.393        0.006      348.796       28.752      858.354
09/09/2013  16:28:00      133.288       87.937        6.247       70.408       52.379       37.015     4957.252     2743.565     1370.113        1.730        0.454      159.683       17.030        0.011      348.775       28.717      858.337
09/09/2013  16:29:00       26.482      155.936       -9.592       72.037       96.190       56.036     5189.367     9252.444     3139.983        2.134        0.879      158.169       59.768        0.143      348.911       28.950      858.342
09/09/2013  16:30:00      141.096      154.233        0.558       96.611       85.276       73.822     9333.719     7271.966     5449.664        3.287        1.103      209.036       57.780        0.076      348.963       29.039      858.319
09/09/2013  16:31:00      103.290      199.008       -7.691       82.711      121.710       77.163     6841.047    14813.422     5954.122        3.896        1.380      224.216       64.390        0.082      348.845       28.838      858.299
09/09/2013  16:32:00       37.869      163.044      -10.306       78.100       94.678       39.375     6099.654     8963.874     1550.410        2.237        0.831      167.384       50.677        0.092      349.050       29.191      858.300
09/09/2013  16:33:00       45.690       78.426       11.890       82.200       73.134       61.934     6756.921     5348.630     3835.874        1.216        0.797       90.765       49.392        0.296      349.123       29.319      858.311
09/09/2013  16:34:00       40.588       58.533       15.883      100.127       83.794       59.330    10025.350     7021.426     3520.102        1.294        1.028       71.228       56.987        0.640      349.053       29.198      858.303
09/09/2013  16:35:00      108.838       67.815       35.808       80.597       76.975       50.240     6495.951     5925.227     2524.019        1.633        0.747      128.237       27.688        0.047      348.996       29.098      858.291
09/09/2013  16:36:00      143.453      119.676       32.273      131.921      100.679       76.210    17403.103    10136.245     5807.893        3.464        1.667      186.818       57.334        0.094      349.057       29.203      858.273
09/09/2013  16:37:00      203.684      170.663       33.930      147.260       93.559       77.479    21685.549     8753.263     6002.977        5.410        1.822      265.731       53.491        0.041      349.008       29.119      858.268
09/09/2013  16:38:00      208.414      162.215       16.983      115.517      114.903       84.784    13344.287    13202.743     7188.344        5.188        1.687      264.102       81.356        0.095      349.014       29.129      858.275
09/09/2013  16:39:00      279.405      189.701       31.594      131.966      122.593       82.176    17415.080    15029.067     6752.964        7.712        1.960      337.718       69.290        0.042      348.738       28.649      858.283
09/09/2013  16:40:00      215.246      134.758       31.499      117.262       81.208       76.266    13750.396     6594.757     5816.477        4.582        1.308      253.950       41.132        0.026      348.789       28.739      858.281
09/09/2013  16:41:00      146.287       66.832       12.666       79.555       63.937       54.640     6328.919     4087.990     2985.539        1.971        0.670      160.830       27.763        0.030      348.875       28.888      858.298
09/09/2013  16:42:00       74.232       45.461       12.433       65.732       62.179       50.797     4320.676     3866.233     2580.355        0.925        0.538       87.047       28.494        0.107      348.976       29.066      858.302
09/09/2013  16:43:00       82.846       72.441       67.998      116.289       81.268       64.589    13523.235     6604.409     4171.762        2.051        1.215      110.051       56.375        0.262      348.711       28.606      858.290
09/09/2013  16:44:00       79.948       39.274       71.853       95.131       84.626       64.939     9049.973     7161.494     4217.014        1.676        1.021       89.074       56.654        0.405      348.556       28.338      858.275
09/09/2013  16:45:00       89.454       36.968       52.488       63.538       65.026       42.670     4037.084     4228.325     1820.702        1.110        0.504       96.792       39.227        0.164      348.564       28.352      858.292
09/09/2013  16:46:00      200.842      115.886       52.813      108.337       73.559       66.920    11736.804     5410.973     4478.327        3.909        1.081      231.877       37.105        0.026      348.738       28.651      858.292
09/09/2013  16:47:00      188.708      106.841       50.088      136.818       88.862       67.545    18719.131     7896.417     4562.276        4.035        1.559      216.854       55.973        0.067      348.896       28.924      858.296
09/09/2013  16:48:00       82.282      119.166       13.613      104.833       77.416       49.990    10990.009     5993.285     2499.001        2.032        0.974      144.813       57.088        0.155      349.040       29.175      858.314
09/09/2013  16:49:00       63.014      112.015       12.090      103.346       85.375       58.053    10680.443     7288.822     3370.125        1.900        1.067      128.523       48.419        0.142      349.174       29.406      858.348
09/09/2013  16:50:00       53.393      265.417       -6.745       89.698      182.696       87.468     8045.726    33377.672     7650.573        6.120        2.454      270.734      104.800        0.150      348.932       28.987      858.351
09/09/2013  16:51:00       42.602      246.970      -12.194       86.230      149.841       77.254     7435.572    22452.451     5968.176        4.940        1.793      250.618       91.017        0.132      348.951       29.019      858.350
09/09/2013  16:52:00      103.422      172.750      -19.568       87.966      143.465       72.891     7737.948    20582.211     5313.054        3.727        1.682      201.342       74.655        0.137      348.940       28.999      858.346
09/09/2013  16:53:00       91.750      146.554        4.991       99.441      101.499       73.257     9888.474    10302.100     5366.651        2.773        1.278      172.905       52.596        0.093      348.860       28.864      858.346
09/09/2013  16:54:00       83.821      194.846      -18.200       87.379      129.565       79.282     7635.069    16786.998     6285.665        3.801        1.535      212.110       79.801        0.142      348.775       28.715      858.354
09/09/2013  16:55:00      126.282      144.298        2.678      127.510       92.599       53.101    16258.741     8574.622     2819.681        3.221        1.383      191.752       49.993        0.068      348.766       28.699      858.335
09/09/2013  16:56:00      184.966      139.457       39.418      107.326       82.888       73.779    11518.779     6870.375     5443.379        3.952        1.192      231.648       51.206        0.049      348.819       28.789      858.318
09/09/2013  16:57:00      108.615      178.357        2.828      101.143      137.390       67.836    10229.873    18876.004     4601.663        3.866        1.685      208.826       74.926        0.129      348.966       29.044      858.319
09/09/2013  16:58:00      205.917      137.079       37.366       94.510       69.354       68.557     8932.048     4809.961     4700.022        4.051        0.922      247.371       47.056        0.036      348.830       28.809      858.337
09/09/2013  16:59:00      101.458       97.363       11.594       71.386       61.783       49.503     5095.914     3817.085     2450.559        1.563        0.568      140.617       37.560        0.071      348.774       28.714      858.325
09/09/2013  17:00:00      108.036      156.511        1.762       81.224      103.443       53.858     6597.258    10700.476     2900.658        2.818        1.010      190.177       54.568        0.082      348.723       28.625      858.320
09/09/2013  17:01:00       19.266      204.117      -21.842       65.078      104.735       55.879     4235.168    10969.367     3122.449        3.042        0.916      205.025       55.072        0.072      348.807       28.770      858.322
09/09/2013  17:02:00       81.879      140.881       -9.212       89.027       80.649       62.964     7925.829     6504.301     3964.466        2.251        0.920      162.947       56.641        0.121      348.881       28.899      858.323
09/09/2013  17:03:00      110.809      167.248       -7.434       99.848      114.372       71.737     9969.560    13080.941     5146.194        3.425        1.410      200.625       68.674        0.117      348.773       28.711      858.328
09/09/2013  17:04:00       97.574      144.565        1.675      101.002       81.364       55.017    10201.498     6620.097     3026.825        2.513        0.992      174.413       45.569        0.068      348.789       28.738      858.330
09/09/2013  17:05:00       63.289      224.745      -21.719       60.789      102.766       57.244     3695.307    10560.938     3276.919        3.626        0.877      233.487       56.980        0.060      348.794       28.747      858.327
09/09/2013  17:06:00       86.117      132.494      -12.629      132.420      103.676       77.154    17535.167    10748.737     5952.763        2.968        1.712      158.021       60.590        0.147      348.666       28.526      858.327
09/09/2013  17:07:00       53.547       37.905       13.599       33.758       46.480       26.532     1139.636     2160.371      703.936        0.425        0.200       65.606       11.533        0.031      348.586       28.390      858.312
09/09/2013  17:08:00      197.231      170.766       -1.607      106.487      100.547       80.617    11339.553    10109.775     6499.092        4.800        1.397      260.885       59.006        0.051      348.719       28.618      858.311
09/09/2013  17:09:00      115.077       84.934       15.144       50.246       57.404       42.498     2524.613     3295.163     1806.106        1.415        0.381      143.027       18.073        0.016      348.821       28.796      858.291
09/09/2013  17:10:00      150.363      140.198       10.419       99.413       91.717       62.909     9882.928     8411.962     3957.577        3.231        1.113      205.583       40.539        0.039      348.855       28.852      858.285
09/09/2013  17:11:00      114.184      174.832       -1.039      125.486       95.442       86.021    15746.723     9109.244     7399.552        3.792        1.613      208.816       63.210        0.092      348.803       28.762      858.271
09/09/2013  17:12:00      142.880      130.033       16.982       91.706       91.997       74.112     8410.052     8463.379     5492.526        2.998        1.118      193.192       57.196        0.088      348.844       28.835      858.286
09/09/2013  17:13:00      146.982      141.829        8.885      101.015       84.550       65.522    10204.000     7148.781     4293.159        3.172        1.082      204.252       44.210        0.047      348.837       28.821      858.287
09/09/2013  17:14:00       95.326      179.008       -4.457       74.710      113.776       68.550     5581.545    12945.091     4699.132        3.218        1.161      202.807       62.884        0.096      348.807       28.770      858.287
09/09/2013  17:15:00      158.631      114.906       12.661       68.930       60.777       47.790     4751.390     3693.813     2283.853        2.463        0.536      195.875       29.523        0.023      348.712       28.606      858.277
09/09/2013  17:16:00       48.735       56.211       -1.315       57.417       41.793       27.310     3296.684     1746.682      745.832        0.566        0.289       74.396       11.772        0.025      348.772       28.711      858.258
09/09/2013  17:17:00       84.593       74.005        3.238       80.025       56.259       32.508     6403.996     3165.131     1056.760        1.163        0.531      112.395       29.804        0.070      348.825       28.802      858.254
09/09/2013  17:18:00      249.580      180.382       48.062      138.318      111.752       79.913    19131.758    12488.440     6386.012        6.756        1.900      307.941       52.333        0.029      348.854       28.851      858.254
09/09/2013  17:19:00      205.264      181.312       -2.375      121.550       97.329       73.874    14774.463     9473.014     5457.370        5.235        1.485      273.875       59.041        0.046      348.820       28.792      858.253
09/09/2013  17:20:00      321.676      214.672       56.741      162.190      108.764       84.566    26305.633    11829.653     7151.421        9.902        2.264      386.730       59.514        0.024      348.792       28.743      858.234
09/09/2013  17:21:00      304.942      185.771       47.417      160.725       93.025       75.063    25832.490     8653.704     5634.462        8.493        2.006      357.072       48.025        0.018      348.731       28.638      858.223
09/09/2013  17:22:00      132.278       90.560       15.510       75.807       57.952       53.329     5746.674     3358.437     2843.971        1.894        0.597      160.308       33.294        0.043      348.872       28.882      858.244
09/09/2013  17:23:00       88.942       91.830       13.084      103.897       64.612       44.129    10794.679     4174.730     1947.383        1.671        0.846      127.842       37.171        0.085      348.872       28.884      858.248
09/09/2013  17:24:00      102.133      168.789       -1.940       91.119      114.903       81.996     8302.650    13202.681     6723.381        3.357        1.411      197.284       79.750        0.163      348.820       28.793      858.254
09/09/2013  17:25:00       85.414      189.715      -10.678      101.634      145.863       90.627    10329.458    21275.971     8213.165        4.160        1.991      208.056       84.386        0.165      348.680       28.550      858.245
09/09/2013  17:26:00       77.229      107.647        8.100       93.886       81.512       61.478     8814.492     6644.197     3779.515        1.842        0.962      132.485       49.570        0.140      348.688       28.566      858.230
09/09/2013  17:27:00       30.476      139.456       -7.143       64.052       62.955       45.781     4102.652     3963.356     2095.912        1.529        0.508      142.747       37.371        0.069      348.777       28.719      858.220
09/09/2013  17:28:00       84.551      225.517      -12.522       86.500      119.477       73.273     7482.238    14274.662     5368.939        4.264        1.356      240.846       71.190        0.087      348.797       28.752      858.217
09/09/2013  17:29:00      127.012      184.051       -2.078      114.495       87.428       62.762    13109.105     7643.608     3939.014        3.735        1.235      223.622       61.808        0.076      348.765       28.697      858.201
09/09/2013  17:30:00       59.635      116.030        7.047       67.567      106.062       50.790     4565.298    11249.075     2579.602        1.773        0.920      130.458       57.368        0.193      348.717       28.614      858.173
09/09/2013  17:31:00       95.920       72.090       65.010      141.356       84.632       64.451    19981.495     7162.565     4153.993        2.495        1.565      119.990       73.097        0.371      348.486       28.215      858.131
09/09/2013  17:32:00      187.235      181.665        2.091      159.048      112.119       82.458    25296.416    12570.581     6799.399        5.636        2.233      260.881       62.037        0.057      348.747       28.665      858.128
09/09/2013  17:33:00      208.937      207.343        2.139      139.052      110.549       77.579    19335.362    12221.074     6018.452        6.211        1.879      294.357       67.887        0.053      348.709       28.601      858.110
09/09/2013  17:34:00      206.721      158.052       23.752       98.722       84.976       85.779     9746.027     7220.999     7357.979        4.630        1.216      260.219       63.618        0.060      348.741       28.656      858.107
09/09/2013  17:35:00       25.380      167.461      -14.867       60.717      135.461       42.793     3686.581    18349.712     1831.226        2.638        1.193      169.373       60.640        0.128      348.766       28.702      858.136
09/09/2013  17:36:00      -13.346      339.929      -41.392       78.593      145.648       47.568     6176.928    21213.366     2262.750        7.354        1.483      340.191       57.930        0.029      348.690       28.567      858.136
09/09/2013  17:37:00       47.720      202.690      -10.090      103.096      101.164       54.638    10628.686    10234.143     2985.260        3.365        1.192      208.231       62.919        0.091      348.675       28.541      858.123
09/09/2013  17:38:00      194.552       95.240       17.794       78.753       63.876       40.923     6202.110     4080.109     1674.689        2.959        0.598      216.613       28.283        0.017      348.773       28.712      858.125
09/09/2013  17:39:00      156.036      109.732       21.705      126.355       71.067       49.838    15965.571     5050.491     2483.820        3.017        1.175      190.757       41.021        0.046      348.726       28.630      858.118
09/09/2013  17:40:00      214.960      157.427       12.879       81.773       75.446       65.039     6686.782     5692.174     4230.016        4.388        0.830      266.441       40.610        0.023      348.660       28.514      858.125
09/09/2013  17:41:00       47.173      219.782      -21.627       87.379      130.762       59.594     7635.020    17098.616     3551.483        3.964        1.414      224.787       55.549        0.061      348.669       28.531      858.122
09/09/2013  17:42:00       33.787      177.184       -9.438       73.476      130.864       72.068     5398.793    17125.408     5193.740        3.017        1.386      180.376       75.889        0.177      348.636       28.473      858.133
09/09/2013  17:43:00       44.149      288.551      -40.581       79.611      105.802       57.920     6337.974    11194.093     3354.760        5.387        1.044      291.909       53.303        0.033      348.654       28.504      858.122
09/09/2013  17:44:00       83.217       77.865       14.833       82.430       71.525       47.641     6794.633     5115.754     2269.669        1.369        0.709      113.965       33.774        0.088      348.765       28.698      858.139
09/09/2013  17:45:00      110.356      274.137       -3.571      138.570      130.239       83.168    19201.699    16962.276     6916.925        6.520        2.154      295.516       79.923        0.073      348.654       28.504      858.149
09/09/2013  17:46:00       58.984      199.462      -12.680       94.446      126.906       66.319     8920.063    16105.259     4398.150        3.642        1.471      208.001       66.145        0.101      348.631       28.467      858.167
09/09/2013  17:47:00      139.004      105.581       18.895       91.113       73.406       54.653     8301.666     5388.418     2986.948        2.375        0.834      174.555       38.749        0.049      348.612       28.432      858.144
09/09/2013  17:48:00      171.358      146.748        9.706       91.120       69.092       71.480     8302.774     4773.670     5109.432        3.459        0.909      225.607       47.906        0.045      348.558       28.338      858.139
09/09/2013  17:49:00      210.645      154.178       16.388      101.332       75.512       62.718    10268.243     5702.088     3933.600        4.415        0.995      261.040       45.232        0.030      348.604       28.416      858.121
09/09/2013  17:50:00      151.968      106.064       31.584       97.965       80.285       55.636     9597.121     6445.753     3095.379        2.724        0.957      185.321       32.374        0.031      348.664       28.523      858.135
09/09/2013  17:51:00      185.472      141.316       21.643      121.370       76.136       53.491    14730.602     5796.734     2861.245        3.911        1.169      233.174       36.398        0.024      348.672       28.537      858.153
09/09/2013  17:52:00      158.636       89.511       37.055      116.094       72.288       58.232    13477.730     5225.496     3390.913        2.832        1.105      182.147       45.603        0.063      348.636       28.473      858.146
09/09/2013  17:53:00      118.237       77.087       21.612       77.643       69.929       47.187     6028.482     4890.055     2226.600        1.676        0.657      141.147       28.527        0.041      348.552       28.329      858.132
09/09/2013  17:54:00      122.368      160.748       -2.407      114.255       91.037       59.708    13054.120     8287.809     3565.075        3.286        1.245      202.025       58.537        0.084      348.630       28.463      858.138
09/09/2013  17:55:00      114.223      141.677       -3.008       67.904       80.468       60.299     4610.998     6475.021     3635.929        2.392        0.736      181.987       51.176        0.079      348.583       28.384      858.127
09/09/2013  17:56:00      178.395      121.157       20.009       99.049       67.683       60.525     9810.750     4581.030     3663.280        3.248        0.903      215.647       42.841        0.039      348.608       28.426      858.120
09/09/2013  17:57:00      217.896      141.043       40.483      133.115       78.621       69.509    17719.735     6181.214     4831.443        4.887        1.437      259.561       38.715        0.022      348.584       28.384      858.124
09/09/2013  17:58:00      154.143       90.145       22.288      114.559       77.111       71.825    13123.778     5946.082     5158.812        2.830        1.211      178.567       48.775        0.075      348.555       28.334      858.144
09/09/2013  17:59:00      124.577      166.909       12.017      130.161       98.029       75.814    16941.798     9609.619     5747.813        3.790        1.615      208.273       59.371        0.081      348.581       28.379      858.160
09/09/2013  18:00:00      153.043      182.780       -3.243      115.598      129.316       77.725    13362.783    16722.703     6041.108        4.648        1.806      238.392       76.576        0.103      348.533       28.295      858.163
09/09/2013  18:01:00      160.490      173.854        4.426      124.171       86.156       68.806    15418.410     7422.900     4734.328        4.178        1.379      236.605       61.070        0.067      348.513       28.260      858.160
09/09/2013  18:02:00       88.661       65.805        8.185       75.998       53.953       39.384     5775.649     2910.895     1551.110        1.125        0.512      110.413       18.845        0.029      348.493       28.230      858.156
09/09/2013  18:03:00       34.112      123.810      -16.008       55.825       78.154       42.360     3116.409     6108.074     1794.376        1.388        0.551      128.424       40.950        0.102      348.564       28.352      858.153
09/09/2013  18:04:00       46.595      143.596        3.004       63.605      107.840       57.150     4045.574    11629.509     3266.114        2.087        0.947      150.967       58.539        0.150      348.571       28.363      858.169
09/09/2013  18:05:00       45.543      171.974      -17.061       69.074       81.386       56.356     4771.247     6623.688     3176.016        2.325        0.729      177.902       51.183        0.083      348.489       28.221      858.173
09/09/2013  18:06:00       65.274       97.984        0.596       73.979       73.671       62.811     5472.960     5427.457     3945.269        1.435        0.742      117.735       47.847        0.165      348.493       28.229      858.168
09/09/2013  18:07:00      118.082      120.145        6.954       96.301       71.869       47.060     9273.888     5165.181     2214.678        2.254        0.833      168.458       46.062        0.075      348.474       28.195      858.150
09/09/2013  18:08:00       19.660      109.699       -0.852       87.746       62.674       39.174     7699.385     3928.085     1534.619        1.279        0.658      111.447       39.737        0.127      348.492       28.228      858.138
09/09/2013  18:09:00       43.963      234.877      -34.547       69.882      110.923       45.325     4883.448    12304.015     2054.334        3.876        0.962      238.956       50.075        0.044      348.499       28.236      858.140
09/09/2013  18:10:00       37.312      259.661      -26.317       70.424      144.926       67.755     4959.544    21003.494     4590.791        5.003        1.528      262.328       82.004        0.098      348.480       28.204      858.148
09/09/2013  18:11:00       62.794      275.615      -44.319       80.319      132.720       68.540     6451.155    17614.675     4697.663        5.531        1.438      282.678       72.479        0.066      348.479       28.203      858.151
09/09/2013  18:12:00       51.621      182.789       -3.188       72.623       85.306       67.498     5274.078     7277.101     4555.945        2.659        0.855      189.938       55.587        0.086      348.489       28.220      858.151
09/09/2013  18:13:00        5.421      193.992      -17.468       53.839       61.989       38.136     2898.682     3842.634     1454.340        2.308        0.410      194.068       30.306        0.024      348.477       28.199      858.155
09/09/2013  18:14:00       53.777      161.679       -8.078       67.390      112.771       63.980     4541.414    12717.251     4093.449        2.522        1.068      170.388       67.639        0.158      348.508       28.252      858.153
09/09/2013  18:15:00       36.399      231.637      -39.002       42.785       98.982       34.549     1830.521     9797.406     1193.657        3.466        0.641      234.479       43.058        0.034      348.523       28.279      858.157
09/09/2013  18:16:00      -59.904      228.744      -31.836       72.566       74.522       39.741     5265.774     5553.596     1579.347        3.466        0.620      236.458       36.997        0.024      348.449       28.150      858.163
09/09/2013  18:17:00       29.976      279.406      -37.622      112.135      124.396       56.699    12574.340    15474.430     3214.823        5.582        1.563      281.009       54.259        0.037      348.458       28.165      858.159
09/09/2013  18:18:00       29.815      245.993      -27.203       81.398      108.477       67.775     6625.710    11767.290     4593.405        4.256        1.149      247.793       62.000        0.063      348.433       28.125      858.152
09/09/2013  18:19:00       25.506      269.012      -28.945       71.831      116.982       57.350     5159.683    13684.768     3289.041        4.799        1.107      270.218       60.428        0.050      348.413       28.089      858.140
09/09/2013  18:20:00      -11.354      207.055      -25.962       56.364       48.243       33.092     3176.929     2327.404     1095.065        2.514        0.330      207.366       27.259        0.017      348.408       28.080      858.131
09/09/2013  18:21:00       34.804      139.715      -10.203       46.018       68.697       43.358     2117.638     4719.333     1879.927        1.477        0.436      143.984       42.656        0.088      348.376       28.026      858.121
09/09/2013  18:22:00       48.188      142.662        7.364       73.302       85.296       59.703     5373.237     7275.484     3564.507        1.947        0.811      150.581       48.331        0.103      348.406       28.078      858.125
09/09/2013  18:23:00       24.266      136.784       -5.020       57.412       67.894       40.413     3296.130     4609.538     1633.247        1.443        0.477      138.919       40.539        0.085      348.383       28.039      858.138
09/09/2013  18:24:00       42.851      164.941       -0.888       68.630      103.208       60.231     4710.076    10651.858     3627.749        2.401        0.949      170.416       62.362        0.134      348.378       28.030      858.123
09/09/2013  18:25:00       83.656      225.999        1.864      119.360      151.074       82.418    14246.755    22823.386     6792.765        5.096        2.193      240.985       95.332        0.156      348.374       28.020      858.115
09/09/2013  18:26:00       18.369      274.108      -31.699       73.634      103.365       46.389     5422.031    10684.241     2151.925        4.736        0.913      274.723       52.515        0.037      348.371       28.014      858.115
09/09/2013  18:27:00       12.971      329.710      -43.467       68.305      131.440       55.870     4665.588    17276.385     3121.419        6.791        1.253      329.965       60.799        0.034      348.332       27.947      858.124
09/09/2013  18:28:00       73.375      161.515       -0.966       80.739      106.152       69.070     6518.846    11268.183     4770.699        2.701        1.128      177.401       62.971        0.126      348.312       27.913      858.121
09/09/2013  18:29:00       37.873       85.335       14.488       62.348       72.761       47.825     3887.233     5294.217     2287.192        1.020        0.573       93.362       41.045        0.193      348.297       27.889      858.124
09/09/2013  18:30:00       64.470      139.387       -9.099       72.164      102.245       56.760     5207.603    10454.040     3221.747        2.127        0.944      153.575       53.558        0.122      348.291       27.879      858.121
09/09/2013  18:31:00       40.709       79.900        2.485       59.742       69.991       47.073     3569.087     4898.754     2215.858        0.936        0.534       89.673       38.897        0.188      348.278       27.857      858.108
09/09/2013  18:32:00       68.784      146.722       -3.776       80.715      123.971       75.678     6514.833    15368.811     5727.103        2.694        1.381      162.046       74.341        0.210      348.292       27.879      858.117
09/09/2013  18:33:00       65.950      188.553      -13.412       91.522      116.142       68.770     8376.280    13489.036     4729.300        3.333        1.330      199.754       68.567        0.118      348.268       27.837      858.121
09/09/2013  18:34:00       61.557      215.464      -22.851       84.606      124.287       64.787     7158.190    15447.152     4197.372        3.876        1.340      224.085       63.221        0.080      348.256       27.817      858.139
09/09/2013  18:35:00      102.965      111.700       19.186       84.437      104.321       71.106     7129.642    10882.828     5056.011        2.325        1.153      151.916       67.400        0.197      348.251       27.808      858.128
09/09/2013  18:36:00      -14.492      162.762      -11.906       73.582       92.161       43.169     5414.347     8493.575     1863.600        2.130        0.789      163.406       55.867        0.117      348.223       27.761      858.119
09/09/2013  18:37:00       30.032      100.707      -12.464       79.721       64.476       39.984     6355.449     4157.186     1598.699        1.165        0.606      105.089       39.110        0.139      348.157       27.647      858.133
09/09/2013  18:38:00       14.483      214.846      -31.444       78.589       82.467       61.147     6176.245     6800.820     3739.001        3.203        0.836      215.334       51.511        0.057      348.208       27.733      858.138
09/09/2013  18:39:00       33.654      146.423       -2.868       69.657      107.959       67.963     4852.155    11655.088     4619.013        2.185        1.056      150.241       61.120        0.165      348.165       27.660      858.131
09/09/2013  18:40:00       36.770      181.992       -8.791       69.856       92.459       64.431     4879.841     8548.655     4151.349        2.606        0.879      185.669       59.585        0.103      348.185       27.697      858.129
09/09/2013  18:41:00       21.256      273.374      -23.588       70.525      156.695       59.872     4973.768    24553.408     3584.708        5.442        1.656      274.199       82.958        0.092      348.173       27.672      858.136
09/09/2013  18:42:00       18.350      121.920        4.835       56.822       80.334       55.518     3228.744     6453.598     3082.222        1.399        0.638      123.293       50.757        0.169      348.117       27.578      858.148
09/09/2013  18:43:00       36.007      105.691       11.273       87.188       80.962       61.887     7601.831     6554.915     3830.044        1.529        0.899      111.656       62.548        0.314      348.141       27.619      858.160
09/09/2013  18:44:00       24.229      179.929      -19.725       45.499       91.472       41.042     2070.172     8367.173     1684.469        2.273        0.606      181.553       41.712        0.053      348.135       27.609      858.160
09/09/2013  18:45:00       61.376      151.509        9.473       72.485      115.932       66.801     5254.020    13440.295     4462.410        2.498        1.158      163.469       67.225        0.169      348.146       27.627      858.162
09/09/2013  18:46:00       56.947      100.851      -13.462       68.425       72.654       41.341     4681.963     5278.577     1709.097        1.263        0.583      115.819       43.764        0.143      348.133       27.606      858.165
09/09/2013  18:47:00      118.664      155.870       13.403       86.673       76.091       70.640     7512.247     5789.894     4989.985        2.842        0.915      195.900       58.654        0.090      348.127       27.594      858.163
09/09/2013  18:48:00       53.378      190.865      -18.273       58.460       88.825       41.719     3417.524     7889.869     1740.462        2.633        0.652      198.189       43.527        0.048      348.098       27.543      858.173
09/09/2013  18:49:00       41.396      173.654       -5.847       53.984      106.979       57.208     2914.255    11444.530     3272.810        2.476        0.882      178.520       66.953        0.141      348.084       27.519      858.177
09/09/2013  18:50:00       23.540      166.779      -16.968       71.012      132.967       58.817     5042.654    17680.103     3459.434        2.741        1.309      168.432       63.431        0.142      348.066       27.488      858.183
09/09/2013  18:51:00       78.346      173.054        0.446       94.185      115.029       73.358     8870.723    13231.654     5381.414        3.178        1.374      189.963       65.669        0.120      348.038       27.441      858.189
09/09/2013  18:52:00       67.317      242.696      -23.214       79.086      132.203       70.317     6254.535    17477.605     4944.417        4.632        1.434      251.859       76.363        0.092      348.062       27.480      858.194
09/09/2013  18:53:00        8.960      178.678      -11.296       64.668      106.610       52.091     4182.000    11365.587     2713.501        2.519        0.913      178.902       54.959        0.094      348.003       27.380      858.201
09/09/2013  18:54:00        1.513      298.882      -37.705       61.466       64.068       36.340     3778.009     4104.729     1320.596        4.998        0.460      298.886       37.862        0.016      348.029       27.421      858.206
09/09/2013  18:55:00       46.290      262.034      -43.514       57.229       72.067       38.372     3275.133     5193.706     1472.449        4.132        0.497      266.092       30.830        0.013      347.994       27.360      858.215
09/09/2013  18:56:00       65.089      173.149      -18.369       69.813       80.071       63.975     4873.844     6411.336     4092.853        2.496        0.769      184.979       53.723        0.084      347.922       27.240      858.222
09/09/2013  18:57:00      104.374      150.288        9.164      115.467      105.167       75.663    13332.571    11060.056     5724.817        3.183        1.506      182.977       65.128        0.127      347.991       27.359      858.219
09/09/2013  18:58:00       66.640      114.978        7.467       84.321       95.500       53.641     7110.091     9120.325     2877.351        1.841        0.955      132.894       55.365        0.174      347.903       27.207      858.219
09/09/2013  18:59:00       41.876      158.154       -7.091       62.531       69.868       49.194     3910.124     4881.575     2420.028        1.901        0.561      163.604       48.952        0.090      347.853       27.122      858.223
09/09/2013  19:00:00       83.375      159.321       -9.824       82.077       77.821       52.786     6736.575     6056.095     2786.369        2.400        0.779      179.818       51.219        0.081      347.856       27.126      858.217
09/09/2013  19:01:00        6.943      245.840      -30.579       64.406       92.419       51.042     4148.120     8541.248     2605.325        3.835        0.765      245.938       54.421        0.049      347.857       27.128      858.211
09/09/2013  19:02:00       37.566      242.965      -13.725       87.864      144.219       84.947     7720.091    20799.120     7216.071        4.818        1.787      245.852       88.362        0.129      347.867       27.144      858.195
09/09/2013  19:03:00       25.394      244.158      -33.260       62.478      114.808       42.538     3903.527    13180.983     1809.502        4.013        0.945      245.475       54.470        0.049      347.853       27.121      858.208
09/09/2013  19:04:00       34.779      167.611       -2.284       80.738      105.763       55.325     6518.662    11185.716     3060.851        2.503        1.038      171.181       55.007        0.103      347.800       27.029      858.205
09/09/2013  19:05:00       12.985      155.189      -16.315       40.720       59.029       32.627     1658.128     3484.399     1064.546        1.536        0.310      155.731       24.288        0.024      347.785       27.003      858.201
09/09/2013  19:06:00       17.408      137.758        5.305       54.468       77.363       55.829     2966.732     5984.986     3116.890        1.569        0.603      138.853       56.776        0.167      347.753       26.951      858.213
09/09/2013  19:07:00       42.220      162.097       -0.002       73.829      118.967       64.885     5450.758    14153.033     4210.035        2.593        1.191      167.505       70.670        0.178      347.774       26.985      858.222
09/09/2013  19:08:00       40.454      204.411      -12.057       73.938      102.577       63.804     5466.853    10522.097     4070.953        3.181        1.003      208.376       66.223        0.101      347.757       26.954      858.217
09/09/2013  19:09:00       29.696      164.010      -11.473       61.236      124.910       60.286     3749.885    15602.518     3634.412        2.545        1.149      166.677       66.043        0.157      347.722       26.895      858.229
09/09/2013  19:10:00       25.719      188.226      -34.438       50.096       68.955       32.886     2509.622     4754.821     1081.483        2.281        0.417      189.975       34.932        0.034      347.730       26.909      858.243
09/09/2013  19:11:00       26.207      170.929      -20.581       56.541       78.370       37.846     3196.906     6141.905     1432.349        2.055        0.539      172.927       36.282        0.044      347.707       26.870      858.238
09/09/2013  19:12:00       19.721      158.419      -17.890       41.642       56.551       32.101     1734.093     3198.022     1030.462        1.588        0.298      159.641       31.018        0.038      347.680       26.824      858.245
09/09/2013  19:13:00       14.110      210.336      -30.711       54.217       88.306       32.482     2939.485     7797.997     1055.071        2.859        0.590      210.809       36.607        0.030      347.678       26.818      858.258
09/09/2013  19:14:00       13.443      274.111      -44.998       62.645       94.600       37.413     3924.364     8949.125     1399.711        4.580        0.714      274.440       44.496        0.026      347.717       26.883      858.262
09/09/2013  19:15:00       15.540      203.936      -25.044       51.086       49.001       40.516     2609.799     2401.062     1641.515        2.455        0.333      204.528       31.014        0.023      347.615       26.710      858.271
09/09/2013  19:16:00       27.458      212.433      -29.913       53.149       57.829       30.373     2824.790     3344.242      922.527        2.693        0.355      214.201       21.217        0.010      347.656       26.779      858.282
09/09/2013  19:17:00        4.529      238.642      -35.620       65.595       63.636       30.682     4302.769     4049.583      941.361        3.376        0.465      238.685       32.852        0.019      347.666       26.797      858.290
09/09/2013  19:18:00      -13.236      259.351      -31.038       82.208       76.289       47.024     6758.075     5820.000     2211.279        4.159        0.739      259.689       48.705        0.035      347.602       26.686      858.293
09/09/2013  19:19:00       -6.796      225.780      -29.365       53.188       77.056       31.668     2828.982     5937.670     1002.888        3.083        0.488      225.882       35.613        0.025      347.635       26.744      858.300
09/09/2013  19:20:00        3.914      199.944      -23.392       54.552       60.191       35.453     2975.951     3623.015     1256.928        2.420        0.393      199.983       35.136        0.031      347.540       26.582      858.299
09/09/2013  19:21:00       -5.186      325.792      -39.502       62.035      107.130       44.741     3848.347    11476.931     2001.738        6.252        0.866      325.834       52.256        0.026      347.636       26.744      858.314
09/09/2013  19:22:00       -1.573      264.998      -36.978       61.001       61.531       37.571     3721.146     3786.018     1411.548        4.025        0.446      265.002       29.707        0.013      347.570       26.630      858.306
09/09/2013  19:23:00        0.451      274.975      -40.237       64.480       77.980       36.517     4157.688     6080.949     1333.503        4.440        0.579      274.975       30.439        0.012      347.575       26.641      858.321
09/09/2013  19:24:00       20.023      276.034      -43.174       57.549      111.343       49.363     3311.854    12397.267     2436.668        4.830        0.907      276.759       62.845        0.052      347.591       26.668      858.319
09/09/2013  19:25:00        0.759      198.844      -22.536       52.172       63.976       40.968     2721.896     4092.960     1678.371        2.427        0.425      198.845       37.378        0.035      347.536       26.574      858.333
09/09/2013  19:26:00       -4.969      227.618      -26.426       70.022       86.808       36.917     4903.065     7535.565     1362.872        3.316        0.690      227.673       29.850        0.017      347.453       26.431      858.336
09/09/2013  19:27:00       28.538      252.954      -30.535       59.829       79.659       52.261     3579.479     6345.504     2731.165        3.919        0.633      254.559       46.769        0.034      347.497       26.505      858.358
09/09/2013  19:28:00      -17.967      206.091      -23.000       58.062      111.281       50.873     3371.193    12383.569     2588.095        3.083        0.917      206.873       56.554        0.075      347.434       26.398      858.360
09/09/2013  19:29:00        3.426      169.080       -5.658       74.274       85.583       63.801     5516.614     7324.403     4070.598        2.277        0.846      169.115       54.772        0.105      347.453       26.430      858.366
09/09/2013  19:30:00       16.478      317.651      -42.204       80.291      116.942       49.546     6446.701    13675.429     2454.829        6.276        1.129      318.078       50.638        0.025      347.517       26.540      858.365
09/09/2013  19:31:00      -32.931      348.300      -45.687       77.313       90.661       48.424     5977.274     8219.361     2344.854        7.051        0.827      349.853       41.999        0.014      347.544       26.585      858.366
09/09/2013  19:32:00      -26.659      290.262      -16.517       91.571      107.537       64.878     8385.274    11564.299     4209.167        5.469        1.208      291.484       68.648        0.055      347.519       26.546      858.370
09/09/2013  19:33:00       13.588      209.458      -14.469       66.939       94.642       49.517     4480.816     8957.199     2451.958        3.008        0.794      209.899       50.653        0.058      347.448       26.421      858.372
09/09/2013  19:34:00      -13.051      363.725      -53.453       73.060       88.068       35.981     5337.758     7755.888     1294.638        7.485        0.719      363.959       33.230        0.008      347.512       26.531      858.377
09/09/2013  19:35:00      -44.642      322.770      -44.250       68.516       99.723       46.561     4694.494     9944.582     2167.941        6.247        0.840      325.842       54.710        0.028      347.496       26.503      858.374
09/09/2013  19:36:00       -3.796      269.911      -33.058       74.798       83.882       53.931     5594.789     7036.265     2908.513        4.475        0.777      269.937       44.825        0.028      347.437       26.402      858.370
09/09/2013  19:37:00      -20.700      292.771      -42.917       62.585       98.080       47.642     3916.832     9619.600     2269.733        5.189        0.790      293.502       48.953        0.028      347.439       26.405      858.384
09/09/2013  19:38:00      -47.685      261.221      -33.216       46.479      104.352       36.860     2160.301    10889.443     1358.656        4.301        0.720      265.538       45.620        0.030      347.383       26.310      858.386
09/09/2013  19:39:00      -31.086      281.821      -37.486       56.989       79.027       44.091     3247.787     6245.238     1944.049        4.661        0.572      283.530       43.686        0.024      347.415       26.364      858.401
09/09/2013  19:40:00       -6.357      234.417      -25.278       49.160      121.584       46.468     2416.671    14782.652     2159.287        3.749        0.968      234.503       59.080        0.063      347.400       26.337      858.412
09/09/2013  19:41:00      -23.406      278.473      -22.677       71.546       91.907       46.588     5118.866     8446.884     2170.455        4.717        0.787      279.455       51.541        0.034      347.379       26.301      858.417
09/09/2013  19:42:00      -28.885      234.160      -23.147       67.592      136.721       54.999     4568.729    18692.556     3024.931        4.124        1.314      235.935       66.871        0.080      347.338       26.231      858.434
09/09/2013  19:43:00      -14.009      230.774      -24.239       64.931      104.281       45.111     4216.028    10874.597     2035.016        3.558        0.856      231.199       45.353        0.038      347.346       26.244      858.447
09/09/2013  19:44:00       23.276      263.465      -17.047       93.414      154.375       78.694     8726.252    23831.641     6192.822        5.449        1.938      264.491       87.269        0.109      347.366       26.280      858.460
09/09/2013  19:45:00      -38.145      284.267      -33.738       71.769       63.368       39.605     5150.805     4015.533     1568.587        4.707        0.537      286.815       25.082        0.008      347.395       26.327      858.477
09/09/2013  19:46:00       16.762      334.545      -40.958       78.256      146.817       69.513     6124.004    21555.325     4832.125        7.319        1.626      334.964       79.523        0.056      347.378       26.300      858.480
09/09/2013  19:47:00        7.647      272.947      -43.114       68.196       75.225       38.770     4650.676     5658.811     1503.078        4.411        0.591      273.054       32.840        0.014      347.344       26.241      858.502
09/09/2013  19:48:00        0.838      311.957      -39.227       54.734       79.854       36.741     2995.802     6376.709     1349.927        5.479        0.536      311.958       36.899        0.014      347.335       26.225      858.512
09/09/2013  19:49:00      -46.522      347.089      -41.653       72.123       86.498       43.125     5201.668     7481.967     1859.728        6.945        0.727      350.192       40.087        0.013      347.354       26.258      858.526
09/09/2013  19:50:00      -36.391      351.524      -52.277       81.921       72.745       37.911     6711.011     5291.762     1437.207        7.053        0.672      353.402       32.275        0.008      347.385       26.311      858.536
09/09/2013  19:51:00       -0.370      194.849      -28.268       60.511       89.695       49.730     3661.590     8045.261     2473.063        2.647        0.709      194.849       51.105        0.069      347.252       26.084      858.552
09/09/2013  19:52:00       -0.762      197.362      -13.225       68.450       79.499       50.840     4685.423     6320.046     2584.735        2.636        0.680      197.364       49.221        0.062      347.266       26.108      858.566
09/09/2013  19:53:00      -22.127      270.463      -40.715       62.013       85.296       41.730     3845.602     7275.352     1741.420        4.408        0.643      271.366       45.956        0.029      347.316       26.193      858.570
09/09/2013  19:54:00        6.991      210.512      -29.242       65.199       77.612       40.605     4250.888     6023.637     1648.805        2.857        0.596      210.628       39.560        0.035      347.238       26.060      858.582
09/09/2013  19:55:00      -18.062      277.761      -36.848       66.609       80.367       48.948     4436.708     6458.796     2395.952        4.606        0.665      278.347       37.957        0.019      347.271       26.114      858.590
09/09/2013  19:56:00       20.658      314.592      -31.495       80.765      100.780       58.654     6523.016    10156.620     3440.243        6.025        1.006      315.270       55.211        0.031      347.273       26.119      858.585
09/09/2013  19:57:00      -38.862      326.444      -44.983       79.458       99.932       49.051     6313.627     9986.389     2405.989        6.440        0.935      328.750       44.053        0.018      347.255       26.087      858.600
09/09/2013  19:58:00        5.577      220.548      -24.815       79.290       97.825       47.801     6286.879     9569.697     2284.928        3.371        0.907      220.619       47.184        0.046      347.255       26.090      858.607
09/09/2013  19:59:00       20.438      323.213      -46.004       71.612       98.500       45.455     5128.301     9702.273     2066.161        6.195        0.845      323.859       45.929        0.020      347.277       26.127      858.630
09/09/2013  20:00:00       18.407      265.764      -32.713       48.554       66.360       32.270     2357.510     4403.647     1041.359        3.992        0.390      266.401       25.362        0.009      347.202       25.996      858.628
09/09/2013  20:01:00       18.748      287.166      -32.677       63.270      100.274       45.727     4003.036    10054.817     2090.999        5.001        0.807      287.778       52.125        0.033      347.195       25.986      858.641
09/09/2013  20:02:00        0.485      315.370      -45.644       54.368       99.170       38.751     2955.865     9834.787     1501.624        5.791        0.715      315.370       39.085        0.015      347.215       26.019      858.656
09/09/2013  20:03:00       -1.626      299.913      -39.979       54.505      110.707       60.496     2970.789    12255.995     3659.825        5.521        0.944      299.917       64.714        0.047      347.187       25.971      858.668
09/09/2013  20:04:00      -18.135      208.375      -21.019       60.551      115.714       49.300     3666.433    13389.827     2430.489        3.183        0.974      209.163       59.997        0.082      347.134       25.881      858.683
09/09/2013  20:05:00      -21.291      246.879      -18.318       58.801      104.319       51.654     3457.573    10882.537     2668.181        3.937        0.850      247.796       55.605        0.050      347.147       25.902      858.692
09/09/2013  20:06:00       21.286      286.045      -32.409       75.715      153.922       66.247     5732.731    23692.055     4388.727        5.856        1.691      286.836       89.506        0.097      347.192       25.979      858.708
09/09/2013  20:07:00      -55.055      296.385      -41.798       58.538      109.318       35.234     3426.658    11950.328     1241.467        5.462        0.831      301.455       35.473        0.014      347.193       25.981      858.713
09/09/2013  20:08:00      -29.011      345.682      -44.633       78.974       70.565       43.095     6236.864     4979.486     1857.156        6.770        0.654      346.897       37.733        0.012      347.210       26.012      858.720
09/09/2013  20:09:00       -4.764      237.596      -11.540       72.314       89.230       56.545     5229.288     7962.049     3197.344        3.649        0.819      237.644       49.623        0.044      347.128       25.870      858.735
09/09/2013  20:10:00        0.892      319.186      -47.052       62.695       87.758       38.225     3930.641     7701.391     1461.186        5.859        0.655      319.187       40.893        0.016      347.196       25.985      858.747
09/09/2013  20:11:00       -9.625      290.524      -40.910       61.191      110.079       46.184     3744.383    12117.360     2132.989        5.208        0.900      290.684       47.861        0.027      347.183       25.964      858.763
09/09/2013  20:12:00      -20.399      325.594      -37.880       66.709       97.179       49.602     4450.028     9443.813     2460.385        6.210        0.818      326.232       52.915        0.026      347.199       25.993      858.775
09/09/2013  20:13:00      -21.723      154.275      -13.598       49.873       86.607       41.940     2487.362     7500.811     1758.975        1.810        0.587      155.797       50.253        0.104      347.063       25.758      858.798
09/09/2013  20:14:00        1.017      245.091      -24.474       62.504       90.982       53.286     3906.711     8277.647     2839.420        3.784        0.751      245.093       51.569        0.044      347.118       25.852      858.807
09/09/2013  20:15:00      -32.654      286.703      -31.472       90.033      109.977       51.801     8105.996    12094.918     2683.311        5.357        1.144      288.557       53.979        0.035      347.133       25.877      858.830
09/09/2013  20:16:00        3.381      290.881      -35.642       61.534      106.892       40.947     3786.414    11425.929     1676.649        5.139        0.844      290.901       40.742        0.020      347.161       25.925      858.829
09/09/2013  20:17:00      -12.069      270.596      -28.661       80.879       74.465       54.612     6541.457     5544.971     2982.431        4.463        0.753      270.865       48.045        0.031      347.097       25.813      858.848
09/09/2013  20:18:00       10.550      285.890      -37.325       71.725      105.485       37.493     5144.429    11127.051     1405.723        5.045        0.884      286.085       42.509        0.022      347.189       25.976      858.855
09/09/2013  20:19:00      -10.536      235.825      -17.279       63.579      106.531       50.484     4042.301    11348.800     2548.622        3.698        0.897      236.060       55.386        0.055      347.095       25.813      858.852
09/09/2013  20:20:00      -49.393      212.085      -16.558       76.878      106.884       45.182     5910.226    11424.168     2041.444        3.353        0.969      217.761       49.469        0.052      347.084       25.796      858.855
09/09/2013  20:21:00      -48.507      189.731      -12.094       63.362      112.867       45.247     4014.730    12738.951     2047.257        2.865        0.940      195.834       48.108        0.060      347.045       25.728      858.869
09/09/2013  20:22:00      -32.483      320.865      -37.208       62.149       74.431       40.071     3862.549     5540.030     1605.675        5.820        0.550      322.505       37.765        0.014      347.158       25.919      858.879
09/09/2013  20:23:00      -29.387      245.863      -29.164       74.802      102.225       48.042     5595.399    10449.873     2308.024        4.025        0.918      247.613       54.347        0.048      347.130       25.871      858.882
09/09/2013  20:24:00      -73.041      186.877      -33.032       64.727       56.113       28.413     4189.648     3148.635      807.280        2.475        0.407      200.644       25.422        0.016      347.061       25.756      858.891
09/09/2013  20:25:00      -85.243      228.437      -32.391       51.184       83.524       34.701     2619.824     6976.294     1204.145        3.565        0.540      243.823       35.546        0.021      347.130       25.873      858.896
09/09/2013  20:26:00      -80.615      271.111      -35.608       73.871       67.468       40.829     5456.887     4551.880     1667.007        4.647        0.584      282.842       34.552        0.015      347.149       25.903      858.905
09/09/2013  20:27:00     -101.737      242.971      -44.369      104.444       88.022       52.024    10908.470     7747.930     2706.497        4.635        1.068      263.411       43.925        0.028      347.145       25.898      858.910
09/09/2013  20:28:00      -74.741      226.206      -24.937       53.313       75.650       34.415     2842.302     5722.955     1184.364        3.356        0.487      238.234       39.155        0.027      347.042       25.720      858.917
09/09/2013  20:29:00      -98.174      276.795      -35.973       84.584      101.131       48.492     7154.397    10227.526     2351.512        5.364        0.987      293.689       40.774        0.019      347.085       25.795      858.930
09/09/2013  20:30:00      -55.063      125.335      -12.299       59.321       95.647       41.054     3518.953     9148.273     1685.443        1.662        0.718      136.897       46.678        0.116      346.962       25.586      858.931
09/09/2013  20:31:00      -54.049      176.583      -29.986       46.041       85.397       24.944     2119.805     7292.714      622.209        2.252        0.502      184.669       20.860        0.013      346.969       25.596      858.943
09/09/2013  20:32:00     -113.387       56.179      -14.680       48.560       47.834       22.794     2358.050     2288.062      519.578        1.070        0.258      126.541       19.072        0.023      346.758       25.237      858.958
09/09/2013  20:33:00     -124.534       77.243      -27.715       33.282       38.634       22.250     1107.687     1492.568      495.058        1.267        0.155      146.544       15.291        0.011      346.567       24.907      858.962
09/09/2013  20:34:00     -133.296       94.435      -27.442       38.317       41.051       25.051     1468.205     1685.193      627.547        1.561        0.189      163.358       19.627        0.014      346.443       24.694      858.971
09/09/2013  20:35:00     -111.355       84.938      -16.532       40.918       46.401       23.890     1674.270     2153.015      570.738        1.214        0.220      140.052       20.181        0.021      346.365       24.561      858.987
09/09/2013  20:36:00     -132.496      123.700      -31.030       34.802       40.272       20.459     1211.148     1621.865      418.574        1.853        0.163      181.265       12.576        0.005      346.472       24.742      858.994
09/09/2013  20:37:00     -102.954      112.109      -17.262       51.917       60.278       35.344     2695.391     3633.468     1249.178        1.552        0.379      152.210       38.423        0.064      346.446       24.698      859.007
09/09/2013  20:38:00     -124.273      133.351      -23.550       57.227       58.498       37.875     3274.920     3422.049     1434.500        2.095        0.407      182.281       37.666        0.043      346.428       24.666      859.011
09/09/2013  20:39:00     -145.469      132.668      -29.491       42.842       54.693       31.439     1835.429     2991.306      988.419        2.272        0.291      196.881       26.219        0.018      346.452       24.708      859.014
09/09/2013  20:40:00      -79.532      134.655      -14.689       42.470       72.015       34.439     1803.674     5186.088     1186.068        1.642        0.409      156.388       23.585        0.023      346.440       24.688      859.025
09/09/2013  20:41:00     -135.727      152.154      -27.712       68.320       57.160       43.045     4667.682     3267.253     1852.842        2.606        0.489      203.893       40.676        0.040      346.466       24.732      859.029
09/09/2013  20:42:00     -143.736      121.238      -26.015       51.635       74.441       44.706     2666.165     5541.531     1998.664        2.312        0.510      188.039       39.798        0.045      346.479       24.754      859.033
09/09/2013  20:43:00     -117.238       97.779       -9.717       76.833       72.022       34.546     5903.257     5187.111     1193.420        1.784        0.614      152.661       28.823        0.036      346.401       24.622      859.036
09/09/2013  20:44:00     -150.305      136.725      -40.090       56.810       60.480       37.356     3227.343     3657.774     1395.463        2.558        0.414      203.188       31.323        0.024      346.491       24.774      859.042
09/09/2013  20:45:00     -118.415      184.535      -22.743       61.415       64.790       45.704     3771.774     4197.702     2088.833        2.932        0.503      219.261       42.716        0.038      346.475       24.747      859.048
09/09/2013  20:46:00     -149.079      125.137      -17.428       61.727       74.370       42.454     3810.183     5530.827     1802.368        2.466        0.557      194.638       37.853        0.038      346.443       24.692      859.054
09/09/2013  20:47:00     -118.840      176.989      -29.487       65.347       69.717       44.052     4270.196     4860.426     1940.537        2.869        0.554      213.186       41.939        0.039      346.530       24.840      859.060
09/09/2013  20:48:00      -89.016      141.344      -10.640       46.982       67.792       33.953     2207.285     4595.741     1152.829        1.798        0.398      167.039       35.744        0.046      346.410       24.636      859.059
09/09/2013  20:49:00      -91.115      122.072      -17.680       47.704       43.380       33.947     2275.698     1881.799     1152.399        1.441        0.265      152.327       30.861        0.041      346.448       24.703      859.071
09/09/2013  20:50:00     -123.616      111.143      -23.439       54.299       69.510       35.258     2948.417     4831.623     1243.120        1.860        0.451      166.234       35.228        0.045      346.505       24.798      859.081
09/09/2013  20:51:00     -108.464      172.738      -35.109       75.744       73.984       43.783     5737.132     5473.591     1916.952        2.798        0.656      203.968       48.030        0.055      346.522       24.829      859.080
09/09/2013  20:52:00      -70.170       94.410      -15.231       55.809       50.585       35.006     3114.626     2558.828     1225.386        1.048        0.345      117.631       32.658        0.077      346.444       24.696      859.091
09/09/2013  20:53:00      -90.301      125.848      -22.120       54.622       67.494       35.050     2983.600     4555.401     1228.496        1.662        0.438      154.894       23.745        0.023      346.498       24.787      859.096
09/09/2013  20:54:00      -90.918      120.540      -27.418       47.204       57.004       31.022     2228.248     3249.483      962.388        1.499        0.322      150.984       30.566        0.041      346.487       24.769      859.099
09/09/2013  20:55:00      -92.041      120.334      -15.724       74.267       70.891       41.721     5515.523     5025.473     1740.625        1.774        0.614      151.498       43.722        0.083      346.451       24.708      859.110
09/09/2013  20:56:00      -54.976       72.967       -7.134       34.871       40.985       34.923     1216.014     1679.779     1219.588        0.626        0.206       91.360       27.861        0.093      346.414       24.644      859.112
09/09/2013  20:57:00      -43.071       80.331       -5.707       33.231       38.695       31.424     1104.272     1497.313      987.492        0.596        0.179       91.149        8.317        0.008      346.384       24.591      859.115
09/09/2013  20:58:00      -20.491       63.443       -4.236       25.203       33.181       16.953      635.204     1100.961      287.418        0.324        0.101       66.670       13.523        0.041      346.277       24.409      859.126
09/09/2013  20:59:00      -29.671       95.498      -20.840       50.632       36.719       28.391     2563.582     1348.291      806.065        0.758        0.236      100.001       20.867        0.044      346.366       24.561      859.134
09/09/2013  21:00:00      -28.865       84.493        0.498       39.520       52.014       29.529     1561.831     2705.409      871.981        0.655        0.257       89.288       24.486        0.075      346.326       24.493      859.145
09/09/2013  21:01:00      -39.020       86.889      -16.124       37.009       40.827       21.953     1369.681     1666.841      481.940        0.642        0.176       95.249       14.588        0.023      346.333       24.505      859.139
09/09/2013  21:02:00      -26.401       14.451        1.059       17.340       23.597       12.942      300.666      556.837      167.483        0.097        0.051       30.098       10.803        0.129      346.241       24.346      859.139
09/09/2013  21:03:00      -33.252        8.596       -1.491       20.786       16.500       15.530      432.042      272.240      241.168        0.106        0.047       34.345       15.583        0.206      346.222       24.314      859.154
09/09/2013  21:04:00      -68.068       39.232       -7.933       30.130       27.496       18.528      907.825      756.022      343.274        0.412        0.100       78.564       12.495        0.025      346.345       24.526      859.144
09/09/2013  21:05:00      -63.173       27.265       -9.490       41.162       28.368       14.581     1694.273      804.753      212.593        0.377        0.136       68.806        7.209        0.011      346.315       24.475      859.133
09/09/2013  21:06:00      -75.575       28.556       -7.241       37.223       52.843       23.072     1385.581     2792.345      532.299        0.564        0.236       80.790       20.582        0.065      346.294       24.439      859.144
09/09/2013  21:07:00     -113.418       48.567      -13.252       34.640       29.434       23.343     1199.955      866.383      544.903        0.900        0.131      123.379       15.385        0.016      346.333       24.504      859.142
09/09/2013  21:08:00     -144.603       54.664      -15.806       51.748       40.095       31.284     2677.900     1607.627      978.684        1.471        0.263      154.590       16.066        0.011      346.428       24.667      859.134
09/09/2013  21:09:00      -79.401       -0.088        6.316       37.847       34.748       24.561     1432.384     1207.413      603.222        0.479        0.162       79.401       17.597        0.049      346.270       24.397      859.135
09/09/2013  21:10:00      -62.532       21.436      -15.689       31.502       26.417       21.943      992.348      697.861      481.512        0.339        0.109       66.104       14.418        0.048      346.268       24.393      859.144
09/09/2013  21:11:00      -59.686        4.029       -4.028       30.499       32.074       19.307      930.186     1028.732      372.769        0.296        0.117       59.822       13.630        0.052      346.234       24.336      859.137
09/09/2013  21:12:00      -82.236        8.938       -4.516       36.302       36.874       20.835     1317.842     1359.706      434.096        0.499        0.156       82.720       21.503        0.068      346.218       24.307      859.138
09/09/2013  21:13:00      -65.364        2.381       -1.346       25.603       28.247       14.205      655.489      797.874      201.774        0.297        0.083       65.408       11.602        0.031      346.210       24.292      859.157
09/09/2013  21:14:00     -114.719       29.591      -15.304       28.970       29.956       17.041      839.277      897.378      290.408        0.815        0.101      118.473        7.162        0.004      346.235       24.336      859.173
09/09/2013  21:15:00      -77.743       -7.317        2.177       38.380       36.114       19.775     1473.049     1304.246      391.057        0.463        0.158       78.086        9.345        0.014      346.139       24.171      859.175
09/09/2013  21:16:00      -64.162       20.693       -5.072       24.895       26.199       13.722      619.776      686.380      188.289        0.303        0.075       67.416        7.404        0.012      346.034       23.992      859.176
09/09/2013  21:17:00      -50.679       -4.056        1.333       21.370       24.585       13.003      456.685      604.418      169.065        0.191        0.062       50.841        4.740        0.009      345.929       23.812      859.184
09/09/2013  21:18:00      -67.493       -4.203        4.758       35.472       54.758       21.490     1258.258     2998.483      461.832        0.466        0.236       67.623       14.889        0.048      345.917       23.790      859.193
09/09/2013  21:19:00     -115.550       29.415      -16.427       64.695       52.360       30.879     4185.380     2741.587      953.542        1.118        0.394      119.235       20.580        0.030      345.885       23.735      859.189
09/09/2013  21:20:00      -45.901      -24.017       -5.734       52.182       40.674       28.798     2722.973     1654.393      829.327        0.396        0.260       51.805       28.945        0.312      345.834       23.647      859.189
09/09/2013  21:21:00      -55.188       11.848        2.686       36.373       24.562       18.291     1322.994      603.310      334.572        0.273        0.113       56.446       22.436        0.158      345.763       23.526      859.204
09/09/2013  21:22:00      -49.421      -19.849       13.662       39.940       54.753       25.950     1595.217     2997.888      673.378        0.414        0.263       53.258       32.424        0.371      345.225       22.604      859.197
09/09/2013  21:23:00      -58.612      -25.283        3.882       37.609       27.973       17.145     1414.421      782.484      293.956        0.329        0.125       63.832       22.934        0.129      345.398       22.899      859.201
09/09/2013  21:24:00      -46.980      -12.000        3.542       35.445       33.832       19.602     1256.361     1144.615      384.256        0.257        0.139       48.488       24.649        0.258      345.088       22.370      859.221
09/09/2013  21:25:00      -43.273        6.888        0.529       27.504       19.925       14.458      756.491      396.994      209.020        0.164        0.068       43.817        7.579        0.030      345.301       22.733      859.228
09/09/2013  21:26:00      -80.105      -39.091       -3.858       39.143       29.640       19.821     1532.159      878.557      392.872        0.538        0.140       89.134       21.250        0.057      345.513       23.096      859.227
09/09/2013  21:27:00      -88.904       -7.011      -13.512       29.774       29.153       15.117      886.488      849.919      228.529        0.505        0.098       89.180        8.944        0.010      345.414       22.927      859.230
09/09/2013  21:28:00      -97.233      -32.559       -2.708       23.632       21.409       14.914      558.462      458.339      222.418        0.588        0.062      102.539       12.021        0.014      345.329       22.781      859.233
09/09/2013  21:29:00      -28.192      -10.625        3.511       46.379       23.178       19.655     2151.001      537.236      386.301        0.200        0.154       30.128       22.757        0.571      345.295       22.722      859.226
09/09/2013  21:30:00      -89.510      -28.693       -5.905       28.144       24.790       15.312      792.104      614.566      234.464        0.526        0.082       93.997       12.704        0.018      345.361       22.835      859.230
09/09/2013  21:31:00      -59.384      -48.115        1.036       29.042       24.852       20.596      843.457      617.619      424.186        0.386        0.094       76.430        9.108        0.014      345.335       22.790      859.230
09/09/2013  21:32:00      -50.923      -34.260        0.241       23.859       23.181       16.164      569.246      537.356      261.277        0.257        0.068       61.375       12.038        0.038      345.278       22.694      859.220
09/09/2013  21:33:00      -39.297      -38.784        4.540       27.666       23.009       16.758      765.430      529.422      280.840        0.232        0.079       55.213       15.069        0.074      345.211       22.580      859.221
09/09/2013  21:34:00      -30.313      -20.672       -1.193       30.948       26.270       14.452      957.806      690.133      208.870        0.160        0.093       36.690       18.590        0.257      345.204       22.566      859.218
09/09/2013  21:35:00      -29.111      -32.459        1.812       31.606       19.763       18.662      998.949      390.571      348.287        0.182        0.087       43.601        9.001        0.043      345.354       22.824      859.217
09/09/2013  21:36:00      -24.371      -32.274        6.856       38.805       24.985       16.179     1505.803      624.240      261.750        0.204        0.120       40.442       20.050        0.246      345.200       22.561      859.221
09/09/2013  21:37:00      -71.999      -50.035       -3.677       44.828       21.713       14.263     2009.541      471.450      203.422        0.519        0.134       87.677       13.684        0.024      345.102       22.392      859.222
09/09/2013  21:38:00      -72.407      -51.125        0.274       39.755       33.770       22.245     1580.455     1140.399      494.833        0.554        0.161       88.637       24.611        0.077      345.022       22.258      859.220
09/09/2013  21:39:00      -82.144      -74.251       -4.407       32.317       30.435       18.549     1044.376      926.268      344.055        0.730        0.116      110.728       16.848        0.023      344.996       22.211      859.233
09/09/2013  21:40:00      -42.320      -48.055       -6.259       50.071       39.482       20.151     2507.112     1558.810      406.049        0.430        0.224       64.033       26.879        0.176      344.940       22.115      859.234
09/09/2013  21:41:00      -21.052      -34.695       18.156       51.606       35.370       24.374     2663.184     1251.017      594.109        0.324        0.225       40.582       25.861        0.406      344.893       22.035      859.244
09/09/2013  21:42:00      -66.716      -66.917       10.964       57.596       38.349       26.489     3317.256     1470.618      701.682        0.727        0.274       94.493       24.342        0.066      344.945       22.125      859.246
09/09/2013  21:43:00      -56.584      -68.471        9.756       46.162       44.125       27.334     2130.962     1947.019      747.147        0.640        0.241       88.826       29.211        0.108      344.899       22.044      859.268
09/09/2013  21:44:00      -59.263      -72.168       -2.255       37.859       34.507       20.598     1433.285     1190.761      424.296        0.589        0.152       93.383       21.338        0.052      344.896       22.040      859.271
09/09/2013  21:45:00      -72.823     -100.837       -1.276       37.855       38.652       20.195     1433.028     1493.975      407.824        0.940        0.167      124.384       13.755        0.012      344.932       22.100      859.280
09/09/2013  21:46:00      -60.230      -62.675        2.789       62.974       35.493       25.428     3965.779     1259.747      646.564        0.672        0.294       86.924       24.300        0.078      344.971       22.169      859.290
09/09/2013  21:47:00      -13.850      -24.582       15.716       52.287       42.170       31.653     2733.933     1778.309     1001.923        0.328        0.276       28.215       25.872        0.841      344.874       22.003      859.300
09/09/2013  21:48:00      -29.402     -124.328        8.333       49.986       51.782       25.806     2498.598     2681.363      665.945        1.112        0.292      127.757       18.874        0.022      345.177       22.520      859.318
09/09/2013  21:49:00      -42.602     -164.501        4.713       30.143       37.144       21.386      908.583     1379.688      457.362        1.582        0.137      169.928       15.221        0.008      345.265       22.670      859.324
09/09/2013  21:50:00      -57.739     -125.449       -4.783       44.232       68.233       33.239     1956.495     4655.762     1104.849        1.340        0.386      138.098       23.977        0.030      345.311       22.752      859.324
09/09/2013  21:51:00      -52.802      -86.213        5.925       46.431       39.744       21.310     2155.794     1579.611      454.125        0.722        0.209      101.098       18.811        0.035      345.230       22.612      859.330
09/09/2013  21:52:00      -96.761      -78.385       -4.306       35.129       35.740       28.205     1234.068     1277.338      795.534        0.942        0.165      124.527       16.713        0.018      345.119       22.422      859.325
09/09/2013  21:53:00      -84.466     -108.310       -5.810       35.243       55.145       24.660     1242.042     3040.949      608.120        1.189        0.245      137.352       21.647        0.025      345.268       22.676      859.336
09/09/2013  21:54:00      -67.674      -78.884        2.334       44.400       46.781       28.058     1971.326     2188.450      787.267        0.788        0.247      103.934       27.046        0.068      345.167       22.506      859.337
09/09/2013  21:55:00      -75.180     -119.570       -3.843       36.151       51.313       22.026     1306.895     2632.980      485.125        1.219        0.221      141.241       21.477        0.023      345.223       22.599      859.348
09/09/2013  21:56:00     -104.870      -91.741        0.214       62.818       52.469       35.836     3946.120     2752.973     1284.236        1.370        0.399      139.334       34.904        0.063      345.202       22.564      859.342
09/09/2013  21:57:00        1.522      -13.803       31.014       33.483       57.125       24.896     1121.085     3263.305      619.816        0.308        0.250       13.886       20.363        2.150      345.206       22.571      859.337
09/09/2013  21:58:00      -88.508      -60.080       -1.079       54.651       43.468       29.025     2986.726     1889.446      842.479        0.858        0.286      106.973       30.866        0.083      345.181       22.529      859.353
09/09/2013  21:59:00      -89.718      -49.190       -5.993       28.119       23.729       15.265      790.655      563.050      233.011        0.605        0.079      102.318       10.840        0.011      345.128       22.437      859.357
09/09/2013  22:00:00      -45.054      -19.236        4.453       19.103       23.481       13.433      364.941      551.359      180.448        0.176        0.055       48.988       12.017        0.060      345.019       22.251      859.370
09/09/2013  22:01:00        1.419        5.698       28.707       23.633       16.242        9.541      558.503      263.791       91.036        0.089        0.046        5.872        6.251        1.133      344.151       20.767      859.374
09/09/2013  22:02:00       -0.842      -17.588       15.790       23.266       21.523       15.132      541.308      463.239      228.971        0.090        0.062       17.609       14.417        0.670      344.409       21.207      859.370
09/09/2013  22:03:00      -33.747      -70.778       -3.458       28.848       37.487       18.276      832.208     1405.278      333.999        0.437        0.129       78.412       23.352        0.089      345.053       22.309      859.370
09/09/2013  22:04:00      -64.982      -81.610       -6.000       18.519       29.318       12.653      342.950      859.516      160.091        0.614        0.068      104.321        9.958        0.009      345.214       22.582      859.376
09/09/2013  22:05:00      -45.680      -71.304       -6.035       31.295       30.982       15.252      979.392      959.880      232.615        0.469        0.109       84.682       14.458        0.029      345.197       22.556      859.380
09/09/2013  22:06:00      -25.365      -12.198        5.438       22.346       16.881       12.829      499.346      284.977      164.578        0.089        0.047       28.146       12.767        0.206      344.950       22.134      859.386
09/09/2013  22:07:00      -48.705      -19.075        5.514       29.708       17.321       10.921      882.536      300.032      119.259        0.203        0.065       52.307        6.258        0.014      345.015       22.244      859.396
09/09/2013  22:08:00      -48.664      -25.702        1.867       33.600       31.580       13.825     1128.959      997.321      191.143        0.267        0.116       55.035       13.125        0.057      344.778       21.839      859.395
09/09/2013  22:09:00      -63.955      -11.321       -0.539       24.352       26.820       15.270      593.025      719.286      233.170        0.288        0.077       64.949       15.291        0.055      344.715       21.731      859.412
09/09/2013  22:10:00      -66.228      -17.122       -4.075       20.283       17.325       11.124      411.393      300.144      123.733        0.277        0.042       68.405        7.989        0.014      344.758       21.803      859.424
09/09/2013  22:11:00      -72.214      -43.333       -5.152       27.875       17.440       12.114      777.011      304.145      146.755        0.417        0.061       84.218        7.413        0.008      344.746       21.784      859.425
09/09/2013  22:12:00      -95.032      -60.103       -7.147       15.446       19.581       15.021      238.588      383.399      225.642        0.677        0.042      112.443       10.398        0.009      344.751       21.792      859.442
09/09/2013  22:13:00     -107.814      -21.871      -13.039       19.967       21.118       13.397      398.694      445.988      179.467        0.665        0.051      110.010        9.547        0.008      344.691       21.689      859.444
09/09/2013  22:14:00      -99.061       -6.527       -9.974       31.459       23.522       17.316      989.639      553.262      299.861        0.590        0.092       99.275       18.942        0.036      344.656       21.630      859.462
09/09/2013  22:15:00      -76.495      -10.530       -7.217       25.416       17.735       13.315      645.975      314.538      177.277        0.358        0.057       77.217       10.888        0.020      344.739       21.772      859.470
09/09/2013  22:16:00      -86.635       -6.495       -5.383       20.424       16.542        9.743      417.152      273.635       94.927        0.418        0.039       86.878        7.657        0.008      344.851       21.965      859.473
09/09/2013  22:17:00      -80.267        0.794       -4.484       20.642       14.788       13.465      426.112      218.689      181.319        0.364        0.041       80.271       11.616        0.021      344.831       21.929      859.485
09/09/2013  22:18:00      -64.149       14.960       -1.650       35.917       22.647       12.381     1290.049      512.877      153.296        0.315        0.098       65.870       13.305        0.041      344.607       21.547      859.485
09/09/2013  22:19:00      -22.763       41.974       -2.998       13.294       16.306        8.832      176.739      265.888       78.006        0.140        0.026       47.749        3.236        0.005      344.517       21.391      859.500
09/09/2013  22:20:00        7.039       66.059        0.432       23.107       28.267       17.032      533.956      799.002      290.096        0.302        0.081       66.433       13.910        0.044      344.375       21.148      859.516
09/09/2013  22:21:00      -21.720       87.079      -16.121       14.977       23.108       10.558      224.301      534.002      111.480        0.459        0.043       89.747       12.996        0.021      344.495       21.353      859.522
09/09/2013  22:22:00      -65.758       17.042      -10.435       18.147       26.521       11.228      329.322      703.372      126.068        0.294        0.058       67.930        8.457        0.015      344.432       21.247      859.528
09/09/2013  22:23:00      -61.172       -2.311       -1.844       25.660       21.141       14.023      658.429      446.938      196.651        0.253        0.065       61.216       14.552        0.057      344.426       21.236      859.545
09/09/2013  22:24:00      -24.794        2.179       -3.161       15.415       14.542        8.384      237.607      211.481       70.288        0.057        0.026       24.890        5.779        0.054      344.415       21.218      859.555
09/09/2013  22:25:00      -18.855        6.916        6.277       25.633       15.528       13.823      657.058      241.124      191.087        0.077        0.054       20.084       13.241        0.435      344.117       20.709      859.567
09/09/2013  22:26:00      -46.316        8.711       -1.684       34.537       19.255       14.913     1192.780      370.743      222.410        0.200        0.089       47.128       11.288        0.057      344.319       21.053      859.575
09/09/2013  22:27:00     -111.902        8.026      -13.799       31.857       23.577       18.195     1014.849      555.894      331.057        0.734        0.095      112.189       13.128        0.014      344.531       21.416      859.576
09/09/2013  22:28:00     -140.398       26.803      -11.642       41.526       39.084       29.262     1724.450     1527.584      856.252        1.234        0.205      142.934       15.400        0.012      344.601       21.535      859.588
09/09/2013  22:29:00     -136.343       41.949      -10.619       54.448       37.667       20.977     2964.574     1418.798      440.048        1.264        0.241      142.650       22.023        0.024      344.647       21.614      859.581
09/09/2013  22:30:00     -177.292       46.962      -16.734       33.790       30.973       20.072     1141.755      959.343      402.870        1.821        0.125      183.407       10.881        0.004      344.513       21.385      859.582
09/09/2013  22:31:00     -197.131       59.171      -17.644       36.171       29.949       21.299     1308.360      896.930      453.665        2.267        0.133      205.820        8.885        0.002      344.461       21.295      859.584
09/09/2013  22:32:00     -175.195       52.856      -21.219       50.311       37.879       29.482     2531.192     1434.809      869.197        1.939        0.242      182.994       22.600        0.015      344.319       21.052      859.579
09/09/2013  22:33:00     -139.257       58.155      -13.494       61.331       33.987       25.131     3761.516     1155.086      631.591        1.425        0.277      150.913       21.722        0.021      344.234       20.907      859.595
09/09/2013  22:34:00     -123.546       10.608       -8.388       47.721       45.181       24.552     2277.300     2041.293      602.802        1.018        0.246      124.001       15.969        0.017      344.233       20.906      859.597
09/09/2013  22:35:00      -97.145       16.282      -14.610       38.271       26.967       20.535     1464.706      727.193      421.676        0.626        0.131       98.500       13.862        0.020      344.179       20.814      859.599
09/09/2013  22:36:00     -129.857       15.141      -15.658       37.950       28.351       23.871     1440.231      803.785      569.819        1.007        0.141      130.736       17.722        0.018      344.167       20.794      859.610
09/09/2013  22:37:00     -155.404       31.521      -17.909       29.340       28.616       19.222      860.847      818.850      369.502        1.376        0.102      158.569       13.894        0.008      344.183       20.820      859.610
09/09/2013  22:38:00      -96.265        3.814       -7.970       32.302       18.841       22.580     1043.390      354.978      509.843        0.563        0.095       96.340       14.647        0.023      344.127       20.726      859.609
09/09/2013  22:39:00      -58.203      -18.701       -4.940       34.413       40.518       18.885     1184.254     1641.709      356.649        0.347        0.159       61.134       16.852        0.076      344.011       20.527      859.609
09/09/2013  22:40:00      -71.152       -8.250       -8.878       28.810       32.127       21.806      829.998     1032.142      475.499        0.377        0.117       71.629        6.951        0.009      343.971       20.458      859.602
09/09/2013  22:41:00     -117.194      -23.585      -12.716       43.559       19.915       17.708     1897.349      396.613      313.578        0.853        0.130      119.543       18.997        0.025      343.842       20.238      859.595
09/09/2013  22:42:00      -87.592      -12.392       -1.038       28.932       22.642       14.787      837.047      512.643      218.653        0.470        0.078       88.464        8.181        0.009      343.790       20.148      859.594
09/09/2013  22:43:00      -67.643      -21.036       -8.572       27.219       17.037       16.924      740.881      290.256      286.432        0.320        0.066       70.838       13.597        0.037      343.926       20.382      859.590
09/09/2013  22:44:00     -106.087      -46.618       -7.368       26.370       22.776       12.727      695.360      518.758      161.987        0.743        0.069      115.878       10.417        0.008      343.845       20.243      859.607
09/09/2013  22:45:00     -107.669      -33.078       -4.952       26.733       27.480       12.706      714.672      755.165      161.446        0.717        0.082      112.635        9.359        0.007      343.839       20.234      859.613
09/09/2013  22:46:00     -126.539      -18.501       -3.928       25.551       25.113       15.119      652.865      630.682      228.578        0.894        0.076      127.885       12.003        0.009      343.844       20.242      859.619
09/09/2013  22:47:00     -104.725      -33.013       -5.838       19.487       18.886       10.260      379.751      356.695      105.277        0.647        0.042      109.805        3.014        0.001      343.974       20.464      859.630
09/09/2013  22:48:00      -65.543      -11.910       -3.718       31.336       21.856       15.231      981.919      477.706      231.991        0.307        0.085       66.616       12.388        0.035      343.889       20.318      859.643
09/09/2013  22:49:00      -90.376      -22.537       -2.246       48.291       25.402       19.253     2332.037      645.238      370.695        0.601        0.167       93.144       22.496        0.058      343.894       20.325      859.652
09/09/2013  22:50:00     -113.391      -43.430      -10.207       35.361       21.581       16.737     1250.378      465.719      280.118        0.842        0.100      121.423       11.322        0.009      343.975       20.466      859.654
09/09/2013  22:51:00     -131.842      -58.212       -0.916       24.721       24.065       15.155      611.120      579.108      229.676        1.110        0.071      144.121        6.683        0.002      343.969       20.454      859.667
09/09/2013  22:52:00     -112.726      -44.705       -1.006       29.332       28.321       14.755      860.382      802.083      217.704        0.829        0.094      121.267        6.257        0.003      343.962       20.444      859.656
09/09/2013  22:53:00     -108.534      -55.954        4.831       42.971       32.715       24.297     1846.498     1070.280      590.366        0.922        0.175      122.108       20.536        0.028      343.898       20.333      859.661
09/09/2013  22:54:00     -148.934      -66.110       -7.177       31.921       25.231       22.702     1018.962      636.595      515.365        1.439        0.109      162.948       18.693        0.013      343.787       20.144      859.649
09/09/2013  22:55:00     -107.245      -45.833        4.994       44.494       37.957       20.246     1979.747     1440.753      409.888        0.873        0.192      116.628       21.810        0.035      343.785       20.141      859.639
09/09/2013  22:56:00     -124.114      -34.084       -3.499       52.554       28.403       18.587     2761.912      806.714      345.463        1.025        0.196      128.708       24.759        0.037      343.859       20.267      859.646
09/09/2013  22:57:00     -157.151      -30.798      -14.298       28.984       21.511       14.533      840.060      462.710      211.222        1.368        0.076      160.141       14.927        0.009      343.894       20.328      859.642
09/09/2013  22:58:00     -140.044      -25.759       -4.827       39.086       36.948       21.846     1527.688     1365.140      477.269        1.183        0.169      142.393       23.334        0.027      343.881       20.306      859.638
09/09/2013  22:59:00     -135.255      -53.380      -10.998       27.121       22.905       16.996      735.531      524.646      288.876        1.141        0.077      145.408       11.069        0.006      343.897       20.330      859.644
09/09/2013  23:00:00     -113.231      -40.897       -5.439       32.526       27.013       15.546     1057.963      729.699      241.693        0.828        0.101      120.390       14.385        0.014      343.778       20.130      859.645
09/09/2013  23:01:00      -67.078       -5.363        1.990       31.251       33.532       16.274      976.623     1124.422      264.827        0.345        0.118       67.292       15.731        0.055      343.643       19.899      859.639
09/09/2013  23:02:00     -115.271      -27.646       -6.290       32.508       31.626       12.700     1056.773     1000.214      161.285        0.815        0.111      118.540        8.361        0.005      343.689       19.978      859.629
09/09/2013  23:03:00     -124.390      -35.298       -8.811       24.225       30.766       13.003      586.861      946.536      169.070        0.925        0.085      129.302        8.982        0.005      343.636       19.887      859.612
09/09/2013  23:04:00     -112.029      -23.994       -5.389       28.466       22.998       19.082      810.335      528.920      364.116        0.743        0.085      114.570       16.926        0.022      343.559       19.756      859.618
09/09/2013  23:05:00     -120.277      -11.334       -7.599       35.929       27.853       18.323     1290.867      775.797      335.748        0.853        0.120      120.810       16.268        0.018      343.519       19.686      859.612
09/09/2013  23:06:00     -105.192      -20.218       -3.770       34.086       28.939       19.465     1161.880      837.473      378.901        0.693        0.119      107.117       18.615        0.030      343.532       19.709      859.617
09/09/2013  23:07:00     -121.861      -43.013       -7.447       27.874       18.976       17.706      776.980      360.086      313.494        0.910        0.073      129.229       18.222        0.020      343.462       19.590      859.620
09/09/2013  23:08:00      -84.044      -43.680        3.734       21.304       21.595       18.587      453.856      466.341      345.459        0.513        0.063       94.718       12.403        0.017      343.510       19.672      859.624
09/09/2013  23:09:00      -74.165      -41.745       -2.730       34.372       22.464       18.315     1181.435      504.644      335.437        0.464        0.101       85.106        8.669        0.010      343.627       19.871      859.624
09/09/2013  23:10:00     -107.915      -44.369       -5.705       22.816       18.792       12.318      520.571      353.158      151.730        0.734        0.051      116.680       10.051        0.007      343.589       19.806      859.617
09/09/2013  23:11:00     -143.541      -50.936      -11.443       15.789       13.032        9.641      249.281      169.827       92.956        1.192        0.026      152.310        5.916        0.002      343.538       19.721      859.601
09/09/2013  23:12:00     -142.785      -55.908       -8.791       18.850       17.187       11.218      355.312      295.393      125.839        1.218        0.039      153.340        8.800        0.003      343.510       19.672      859.592
09/09/2013  23:13:00     -125.856      -61.495       -7.528       16.037       15.275       13.240      257.169      233.338      175.292        1.017        0.033      140.076        7.650        0.003      343.504       19.662      859.580
09/09/2013  23:14:00     -124.220      -39.225       -5.916       14.725       11.662       10.168      216.811      135.993      103.383        0.873        0.023      130.266        4.080        0.001      343.574       19.782      859.573
09/09/2013  23:15:00     -115.520      -25.894       -9.540       12.173       13.967        9.191      148.186      195.084       84.479        0.727        0.021      118.387        6.362        0.003      343.500       19.655      859.578
09/09/2013  23:16:00     -103.156      -29.513       -4.624       12.447       16.986        8.737      154.932      288.522       76.341        0.603        0.026      107.295        8.053        0.006      343.573       19.780      859.577
09/09/2013  23:17:00      -88.130      -52.200       -3.202       25.080       22.701       17.917      628.998      515.343      321.030        0.598        0.073      102.430       17.538        0.029      343.610       19.841      859.591
09/09/2013  23:18:00     -108.237      -55.347      -13.141       11.227       13.921       12.779      126.046      193.804      163.291        0.772        0.024      121.567        3.003        0.001      343.627       19.870      859.582
09/09/2013  23:19:00     -114.964      -54.526      -16.881       12.317       15.453        9.481      151.716      238.793       89.892        0.848        0.024      127.239        3.985        0.001      343.592       19.813      859.563
09/09/2013  23:20:00     -114.638      -51.978       -9.072       17.307       21.980       14.005      299.534      483.099      196.133        0.845        0.049      125.872        7.315        0.003      343.600       19.825      859.561
09/09/2013  23:21:00      -72.613      -21.328       -6.702       36.282       30.238       14.179     1316.409      914.321      201.034        0.410        0.122       75.680       18.879        0.062      343.466       19.599      859.564
09/09/2013  23:22:00      -47.600       -0.735        3.510       28.049       28.129       18.570      786.732      791.266      344.845        0.210        0.096       47.605       21.272        0.200      343.354       19.406      859.567
09/09/2013  23:23:00      -67.032      -21.541       -6.470       24.857       19.540       15.376      617.894      381.801      236.419        0.312        0.062       70.408       10.942        0.024      343.410       19.502      859.582
09/09/2013  23:24:00        2.691       -3.165       11.064       35.638       20.294       20.297     1270.056      411.859      411.984        0.112        0.105        4.155       21.814       27.568      343.148       19.057      859.579
09/09/2013  23:25:00      -43.341      -15.627       -8.930       18.015       15.449       11.742      324.536      238.674      137.884        0.145        0.035       46.072       10.245        0.049      343.335       19.373      859.574
09/09/2013  23:26:00      -68.866      -36.743        4.876       26.863       25.407       17.724      721.616      645.536      314.127        0.390        0.084       78.055       15.951        0.042      343.430       19.537      859.574
09/09/2013  23:27:00      -62.128      -52.534       -4.344       29.562       24.346       19.455      873.911      592.728      378.493        0.424        0.092       81.362       10.695        0.017      343.406       19.494      859.573
09/09/2013  23:28:00      -66.782      -50.605       -1.409       26.902       16.577       19.492      723.694      274.786      379.957        0.420        0.069       83.790       15.181        0.033      343.304       19.320      859.575
09/09/2013  23:29:00      -75.144      -58.899       -2.382       24.986       31.619       22.895      624.325      999.756      524.178        0.563        0.107       95.477       15.852        0.028      343.397       19.481      859.588
09/09/2013  23:30:00      -83.265      -55.789       -5.914       30.343       24.682       21.190      920.676      609.199      448.996        0.603        0.099      100.227        8.459        0.007      343.315       19.340      859.588
09/09/2013  23:31:00      -93.038      -58.344        4.724       39.126       41.100       19.484     1530.832     1689.213      379.613        0.784        0.180      109.818       13.810        0.016      343.271       19.266      859.579
09/09/2013  23:32:00     -120.197      -67.914       -2.237       37.918       39.879       23.265     1437.800     1590.324      541.238        1.132        0.178      138.056       20.539        0.022      343.211       19.163      859.582
09/09/2013  23:33:00     -111.131      -22.183        2.410       40.693       40.845       20.369     1655.902     1668.327      414.911        0.829        0.187      113.323       18.243        0.026      343.122       19.011      859.586
09/09/2013  23:34:00      -97.246      -21.944       -1.895       32.992       33.534       20.676     1088.485     1124.548      427.485        0.629        0.132       99.691       14.123        0.020      343.135       19.033      859.591
09/09/2013  23:35:00      -75.973        3.500       -2.868       39.545       24.038       20.553     1563.845      577.805      422.413        0.418        0.128       76.053       18.456        0.059      343.165       19.084      859.604
09/09/2013  23:36:00      -73.536      -39.356       -3.253       33.552       21.096       17.489     1125.725      445.059      305.861        0.442        0.094       83.405        7.804        0.009      343.346       19.393      859.625
09/09/2013  23:37:00      -38.136      -11.582        4.035       28.893       21.079       21.612      834.794      444.315      467.059        0.168        0.087       39.856       15.237        0.146      343.207       19.157      859.628
09/09/2013  23:38:00      -81.314      -31.563       -0.108       52.215       36.199       20.906     2726.437     1310.353      437.078        0.604        0.224       87.225       23.383        0.072      343.124       19.014      859.614
09/09/2013  23:39:00     -132.134      -41.453       -8.201       23.896       22.234       18.246      571.034      494.367      332.932        1.032        0.070      138.484       15.005        0.012      343.176       19.104      859.608
09/09/2013  23:40:00     -128.822      -49.555       -7.796       26.771       26.478       18.742      716.698      701.093      351.271        1.044        0.088      138.025       17.980        0.017      343.172       19.097      859.596
09/09/2013  23:41:00      -93.573      -43.200       -1.844       39.890       28.950       22.298     1591.196      838.077      497.182        0.678        0.146      103.064       23.984        0.054      343.084       18.947      859.595
09/09/2013  23:42:00      -76.871      -28.866        4.792       47.911       27.210       18.916     2295.475      740.410      357.821        0.508        0.170       82.112       21.848        0.071      343.070       18.923      859.598
09/09/2013  23:43:00      -98.715      -35.940        3.857       36.785       25.468       18.451     1353.100      648.640      340.444        0.670        0.117      105.054       18.788        0.032      343.076       18.933      859.573
09/09/2013  23:44:00      -62.996      -53.601       -3.986       40.851       31.448       20.807     1668.771      988.989      432.914        0.497        0.155       82.714       19.957        0.058      343.095       18.965      859.559
09/09/2013  23:45:00      -89.196      -50.402       -2.690       21.068       20.870       12.762      443.866      435.549      162.866        0.577        0.052      102.452        7.314        0.005      343.128       19.021      859.570
09/09/2013  23:46:00      -40.237      -20.171       -5.257       22.708       23.710       13.408      515.640      562.173      179.773        0.166        0.063       45.010       13.095        0.085      343.188       19.125      859.576
09/09/2013  23:47:00      -96.369      -34.300      -14.985       17.004       17.597       13.875      289.127      309.665      192.521        0.574        0.040      102.291        6.625        0.004      343.272       19.267      859.568
09/09/2013  23:48:00     -116.778      -46.630      -12.563       10.882       11.663       10.057      118.428      136.034      101.146        0.816        0.018      125.744        4.594        0.001      343.221       19.181      859.572
09/09/2013  23:49:00     -112.794      -52.345       -9.241       13.608       16.962       11.862      185.186      287.695      140.717        0.808        0.031      124.349        9.136        0.005      343.185       19.117      859.574
09/09/2013  23:50:00      -69.084      -42.043      -10.986       36.576       13.857       14.140     1337.817      192.009      199.948        0.419        0.086       80.871       13.289        0.027      343.109       18.989      859.580
09/09/2013  23:51:00      -12.026      -12.491        0.188       22.860       15.161       11.964      522.584      229.867      143.146        0.060        0.045       17.339       10.756        0.385      343.078       18.937      859.612
09/09/2013  23:52:00      -19.030      -23.435        2.087       18.465       12.411       10.782      340.967      154.042      116.254        0.076        0.031       30.188        8.973        0.088      343.122       19.013      859.635
09/09/2013  23:53:00      -28.838      -30.187        1.385       42.348       17.107       13.100     1793.313      292.638      171.603        0.200        0.113       41.748       11.356        0.074      343.087       18.952      859.636
09/09/2013  23:54:00     -100.994      -61.343       -6.118       38.057       21.440       18.143     1448.306      459.679      329.151        0.812        0.112      118.164       15.250        0.017      342.987       18.781      859.625
09/09/2013  23:55:00     -115.623      -72.345       -7.555       29.690       23.604       18.702      881.476      557.132      349.765        1.022        0.089      136.391       14.804        0.012      342.929       18.682      859.619
09/09/2013  23:56:00      -93.533      -63.213       -7.387       41.435       29.261       18.853     1716.896      856.212      355.424        0.786        0.146      112.890       14.169        0.016      342.964       18.743      859.613
09/09/2013  23:57:00     -107.944      -84.818       -9.312       39.443       29.944       21.828     1555.779      896.638      476.463        1.093        0.146      137.280       22.099        0.026      342.867       18.577      859.600
09/09/2013  23:58:00      -95.297      -67.389       -2.796       41.735       30.684       26.563     1741.804      941.507      705.577        0.851        0.169      116.717       25.329        0.047      342.728       18.339      859.595
09/09/2013  23:59:00     -129.779      -36.171       -8.631       18.028       28.951       15.431      325.006      838.170      238.121        0.981        0.070      134.726       11.953        0.008      342.702       18.296      859.595
